<?xml version="1.0" encoding="utf-8"?>
<gpx xmlns:xsi="http://www.w3.org/2001/XMLSchema-instance" xmlns:xsd="http://www.w3.org/2001/XMLSchema" version="1.1" creator="Shapelink.com" xmlns="http://www.topografix.com/GPX/1/1" xmlns:gpxtpx="http://www.garmin.com/xmlschemas/TrackPointExtension/v1">
  <metadata>
    <name>Løping 5.62 km, 2016-06-09</name>
    <desc></desc>
    <author><name>Stein Falk-Larssen</name></author> 
    <time>1970-01-01T01:00:00Z</time>
  </metadata>
  <trk>
    <name>Løping 5.62 km, 2016-06-09</name>
    <trkseg>
      <trkpt lat="63.35587183" lon="10.25113217">
        <ele>192.941</ele>
        <time>1970-01-01T01:00:00Z</time>
      </trkpt>
      <trkpt lat="63.35587" lon="10.25113117">
        <ele>192.941</ele>
        <time>1970-01-01T01:00:00Z</time>
      </trkpt>
      <trkpt lat="63.35587017" lon="10.25113117">
        <ele>192.941</ele>
        <time>1970-01-01T01:00:00Z</time>
      </trkpt>
      <trkpt lat="63.35587017" lon="10.25113017">
        <ele>193.093</ele>
        <time>1970-01-01T01:00:00Z</time>
      </trkpt>
      <trkpt lat="63.35587067" lon="10.25112983">
        <ele>193.093</ele>
        <time>1970-01-01T01:00:00Z</time>
      </trkpt>
      <trkpt lat="63.355872" lon="10.2511295">
        <ele>193.093</ele>
        <time>1970-01-01T01:00:00Z</time>
      </trkpt>
      <trkpt lat="63.35587567" lon="10.25113067">
        <ele>193.093</ele>
        <time>1970-01-01T01:00:00Z</time>
      </trkpt>
      <trkpt lat="63.35588417" lon="10.25113183">
        <ele>193.093</ele>
        <time>1970-01-01T01:00:00Z</time>
      </trkpt>
      <trkpt lat="63.35589633" lon="10.25113283">
        <ele>193.093</ele>
        <time>1970-01-01T01:00:00Z</time>
      </trkpt>
      <trkpt lat="63.3559115" lon="10.25113417">
        <ele>193.093</ele>
        <time>1970-01-01T01:00:00Z</time>
      </trkpt>
      <trkpt lat="63.35592967" lon="10.25113967">
        <ele>193.093</ele>
        <time>1970-01-01T01:00:00Z</time>
      </trkpt>
      <trkpt lat="63.3559555" lon="10.25114767">
        <ele>193.246</ele>
        <time>1970-01-01T01:00:00Z</time>
      </trkpt>
      <trkpt lat="63.35598683" lon="10.25115667">
        <ele>193.246</ele>
        <time>1970-01-01T01:00:00Z</time>
      </trkpt>
      <trkpt lat="63.35601933" lon="10.25116517">
        <ele>193.246</ele>
        <time>1970-01-01T01:00:00Z</time>
      </trkpt>
      <trkpt lat="63.35605083" lon="10.2511785">
        <ele>193.246</ele>
        <time>1970-01-01T01:00:00Z</time>
      </trkpt>
      <trkpt lat="63.35608383" lon="10.25119117">
        <ele>193.398</ele>
        <time>1970-01-01T01:00:00Z</time>
      </trkpt>
      <trkpt lat="63.35611767" lon="10.25120383">
        <ele>193.398</ele>
        <time>1970-01-01T01:00:00Z</time>
      </trkpt>
      <trkpt lat="63.35615333" lon="10.25120917">
        <ele>193.398</ele>
        <time>1970-01-01T01:00:00Z</time>
      </trkpt>
      <trkpt lat="63.3561895" lon="10.2512175">
        <ele>193.398</ele>
        <time>1970-01-01T01:00:00Z</time>
      </trkpt>
      <trkpt lat="63.35622867" lon="10.25122533">
        <ele>193.398</ele>
        <time>1970-01-01T01:00:00Z</time>
      </trkpt>
      <trkpt lat="63.35626567" lon="10.25123617">
        <ele>193.398</ele>
        <time>1970-01-01T01:00:00Z</time>
      </trkpt>
      <trkpt lat="63.356301" lon="10.251246">
        <ele>193.703</ele>
        <time>1970-01-01T01:00:00Z</time>
      </trkpt>
      <trkpt lat="63.35633367" lon="10.25125483">
        <ele>193.703</ele>
        <time>1970-01-01T01:00:00Z</time>
      </trkpt>
      <trkpt lat="63.356368" lon="10.25126067">
        <ele>193.855</ele>
        <time>1970-01-01T01:00:00Z</time>
      </trkpt>
      <trkpt lat="63.35640133" lon="10.2512645">
        <ele>193.855</ele>
        <time>1970-01-01T01:00:00Z</time>
      </trkpt>
      <trkpt lat="63.356438" lon="10.251273">
        <ele>194.008</ele>
        <time>1970-01-01T01:00:00Z</time>
      </trkpt>
      <trkpt lat="63.35647483" lon="10.25128833">
        <ele>194.008</ele>
        <time>1970-01-01T01:00:00Z</time>
      </trkpt>
      <trkpt lat="63.35651233" lon="10.25130467">
        <ele>194.312</ele>
        <time>1970-01-01T01:00:00Z</time>
      </trkpt>
      <trkpt lat="63.35654667" lon="10.251316">
        <ele>194.312</ele>
        <time>1970-01-01T01:00:00Z</time>
      </trkpt>
      <trkpt lat="63.35657967" lon="10.25132067">
        <ele>194.465</ele>
        <time>1970-01-01T01:00:00Z</time>
      </trkpt>
      <trkpt lat="63.35661283" lon="10.25132133">
        <ele>194.465</ele>
        <time>1970-01-01T01:00:00Z</time>
      </trkpt>
      <trkpt lat="63.35664567" lon="10.251319">
        <ele>194.617</ele>
        <time>1970-01-01T01:00:00Z</time>
      </trkpt>
      <trkpt lat="63.3566785" lon="10.2513145">
        <ele>194.617</ele>
        <time>1970-01-01T01:00:00Z</time>
      </trkpt>
      <trkpt lat="63.35671083" lon="10.25131033">
        <ele>194.77</ele>
        <time>1970-01-01T01:00:00Z</time>
      </trkpt>
      <trkpt lat="63.35674317" lon="10.25130417">
        <ele>194.77</ele>
        <time>1970-01-01T01:00:00Z</time>
      </trkpt>
      <trkpt lat="63.35677633" lon="10.25129817">
        <ele>194.922</ele>
        <time>1970-01-01T01:00:00Z</time>
      </trkpt>
      <trkpt lat="63.35680917" lon="10.25129117">
        <ele>194.922</ele>
        <time>1970-01-01T01:00:00Z</time>
      </trkpt>
      <trkpt lat="63.35684267" lon="10.25127867">
        <ele>195.074</ele>
        <time>1970-01-01T01:00:00Z</time>
      </trkpt>
      <trkpt lat="63.35687417" lon="10.25126217">
        <ele>195.074</ele>
        <time>1970-01-01T01:00:00Z</time>
      </trkpt>
      <trkpt lat="63.35690667" lon="10.251242">
        <ele>195.227</ele>
        <time>1970-01-01T01:00:00Z</time>
      </trkpt>
      <trkpt lat="63.356939" lon="10.251221">
        <ele>195.227</ele>
        <time>1970-01-01T01:00:00Z</time>
      </trkpt>
      <trkpt lat="63.356973" lon="10.25119667">
        <ele>195.227</ele>
        <time>1970-01-01T01:00:00Z</time>
      </trkpt>
      <trkpt lat="63.3570055" lon="10.25116783">
        <ele>195.227</ele>
        <time>1970-01-01T01:00:00Z</time>
      </trkpt>
      <trkpt lat="63.35703967" lon="10.25113683">
        <ele>195.227</ele>
        <time>1970-01-01T01:00:00Z</time>
      </trkpt>
      <trkpt lat="63.35707367" lon="10.25110583">
        <ele>195.227</ele>
        <time>1970-01-01T01:00:00Z</time>
      </trkpt>
      <trkpt lat="63.35710883" lon="10.25108133">
        <ele>195.227</ele>
        <time>1970-01-01T01:00:00Z</time>
      </trkpt>
      <trkpt lat="63.35714267" lon="10.25106117">
        <ele>195.227</ele>
        <time>1970-01-01T01:00:00Z</time>
      </trkpt>
      <trkpt lat="63.35717583" lon="10.25104667">
        <ele>195.227</ele>
        <time>1970-01-01T01:00:00Z</time>
      </trkpt>
      <trkpt lat="63.357208" lon="10.251028">
        <ele>195.227</ele>
        <time>1970-01-01T01:00:00Z</time>
      </trkpt>
      <trkpt lat="63.35723933" lon="10.25100883">
        <ele>195.227</ele>
        <time>1970-01-01T01:00:00Z</time>
      </trkpt>
      <trkpt lat="63.35727233" lon="10.25098567">
        <ele>195.227</ele>
        <time>1970-01-01T01:00:00Z</time>
      </trkpt>
      <trkpt lat="63.35730633" lon="10.25096517">
        <ele>195.227</ele>
        <time>1970-01-01T01:00:00Z</time>
      </trkpt>
      <trkpt lat="63.3573405" lon="10.25094267">
        <ele>195.227</ele>
        <time>1970-01-01T01:00:00Z</time>
      </trkpt>
      <trkpt lat="63.35737233" lon="10.25091867">
        <ele>195.227</ele>
        <time>1970-01-01T01:00:00Z</time>
      </trkpt>
      <trkpt lat="63.3574035" lon="10.25089417">
        <ele>195.227</ele>
        <time>1970-01-01T01:00:00Z</time>
      </trkpt>
      <trkpt lat="63.3574355" lon="10.250871">
        <ele>195.074</ele>
        <time>1970-01-01T01:00:00Z</time>
      </trkpt>
      <trkpt lat="63.35746817" lon="10.250848">
        <ele>195.074</ele>
        <time>1970-01-01T01:00:00Z</time>
      </trkpt>
      <trkpt lat="63.357503" lon="10.2508235">
        <ele>194.922</ele>
        <time>1970-01-01T01:00:00Z</time>
      </trkpt>
      <trkpt lat="63.35753617" lon="10.25079817">
        <ele>194.922</ele>
        <time>1970-01-01T01:00:00Z</time>
      </trkpt>
      <trkpt lat="63.35756967" lon="10.25077367">
        <ele>194.922</ele>
        <time>1970-01-01T01:00:00Z</time>
      </trkpt>
      <trkpt lat="63.35760233" lon="10.25074867">
        <ele>194.922</ele>
        <time>1970-01-01T01:00:00Z</time>
      </trkpt>
      <trkpt lat="63.35763533" lon="10.25072133">
        <ele>194.77</ele>
        <time>1970-01-01T01:00:00Z</time>
      </trkpt>
      <trkpt lat="63.3576675" lon="10.2506925">
        <ele>194.77</ele>
        <time>1970-01-01T01:00:00Z</time>
      </trkpt>
      <trkpt lat="63.35769983" lon="10.2506635">
        <ele>194.77</ele>
        <time>1970-01-01T01:00:00Z</time>
      </trkpt>
      <trkpt lat="63.357733" lon="10.250637">
        <ele>194.77</ele>
        <time>1970-01-01T01:00:00Z</time>
      </trkpt>
      <trkpt lat="63.35776467" lon="10.250611">
        <ele>194.617</ele>
        <time>1970-01-01T01:00:00Z</time>
      </trkpt>
      <trkpt lat="63.3577965" lon="10.25058433">
        <ele>194.617</ele>
        <time>1970-01-01T01:00:00Z</time>
      </trkpt>
      <trkpt lat="63.35782817" lon="10.25055933">
        <ele>194.617</ele>
        <time>1970-01-01T01:00:00Z</time>
      </trkpt>
      <trkpt lat="63.3578625" lon="10.25053183">
        <ele>194.617</ele>
        <time>1970-01-01T01:00:00Z</time>
      </trkpt>
      <trkpt lat="63.35789417" lon="10.250504">
        <ele>194.465</ele>
        <time>1970-01-01T01:00:00Z</time>
      </trkpt>
      <trkpt lat="63.3579255" lon="10.25047483">
        <ele>194.465</ele>
        <time>1970-01-01T01:00:00Z</time>
      </trkpt>
      <trkpt lat="63.35795683" lon="10.2504495">
        <ele>194.465</ele>
        <time>1970-01-01T01:00:00Z</time>
      </trkpt>
      <trkpt lat="63.35798883" lon="10.250426">
        <ele>194.465</ele>
        <time>1970-01-01T01:00:00Z</time>
      </trkpt>
      <trkpt lat="63.3580195" lon="10.2504">
        <ele>194.312</ele>
        <time>1970-01-01T01:00:00Z</time>
      </trkpt>
      <trkpt lat="63.35805017" lon="10.25037233">
        <ele>194.312</ele>
        <time>1970-01-01T01:00:00Z</time>
      </trkpt>
      <trkpt lat="63.35807967" lon="10.2503425">
        <ele>194.312</ele>
        <time>1970-01-01T01:00:00Z</time>
      </trkpt>
      <trkpt lat="63.35810967" lon="10.2503195">
        <ele>194.312</ele>
        <time>1970-01-01T01:00:00Z</time>
      </trkpt>
      <trkpt lat="63.35814267" lon="10.25030633">
        <ele>194.16</ele>
        <time>1970-01-01T01:00:00Z</time>
      </trkpt>
      <trkpt lat="63.35817783" lon="10.25030233">
        <ele>194.16</ele>
        <time>1970-01-01T01:00:00Z</time>
      </trkpt>
      <trkpt lat="63.35821433" lon="10.25029817">
        <ele>194.008</ele>
        <time>1970-01-01T01:00:00Z</time>
      </trkpt>
      <trkpt lat="63.35824617" lon="10.25028983">
        <ele>194.008</ele>
        <time>1970-01-01T01:00:00Z</time>
      </trkpt>
      <trkpt lat="63.358277" lon="10.250277">
        <ele>193.855</ele>
        <time>1970-01-01T01:00:00Z</time>
      </trkpt>
      <trkpt lat="63.3583075" lon="10.2502655">
        <ele>193.855</ele>
        <time>1970-01-01T01:00:00Z</time>
      </trkpt>
      <trkpt lat="63.35833717" lon="10.25025817">
        <ele>193.55</ele>
        <time>1970-01-01T01:00:00Z</time>
      </trkpt>
      <trkpt lat="63.358364" lon="10.2502555">
        <ele>193.55</ele>
        <time>1970-01-01T01:00:00Z</time>
      </trkpt>
      <trkpt lat="63.35838967" lon="10.250249">
        <ele>193.398</ele>
        <time>1970-01-01T01:00:00Z</time>
      </trkpt>
      <trkpt lat="63.35841667" lon="10.2502365">
        <ele>193.398</ele>
        <time>1970-01-01T01:00:00Z</time>
      </trkpt>
      <trkpt lat="63.35844533" lon="10.25022017">
        <ele>193.093</ele>
        <time>1970-01-01T01:00:00Z</time>
      </trkpt>
      <trkpt lat="63.35847267" lon="10.25020417">
        <ele>193.093</ele>
        <time>1970-01-01T01:00:00Z</time>
      </trkpt>
      <trkpt lat="63.35849783" lon="10.25018533">
        <ele>192.941</ele>
        <time>1970-01-01T01:00:00Z</time>
      </trkpt>
      <trkpt lat="63.3585235" lon="10.2501635">
        <ele>192.941</ele>
        <time>1970-01-01T01:00:00Z</time>
      </trkpt>
      <trkpt lat="63.35855167" lon="10.25014017">
        <ele>192.788</ele>
        <time>1970-01-01T01:00:00Z</time>
      </trkpt>
      <trkpt lat="63.35858133" lon="10.25011967">
        <ele>192.788</ele>
        <time>1970-01-01T01:00:00Z</time>
      </trkpt>
      <trkpt lat="63.35861233" lon="10.25009533">
        <ele>192.636</ele>
        <time>1970-01-01T01:00:00Z</time>
      </trkpt>
      <trkpt lat="63.35864267" lon="10.25006883">
        <ele>192.636</ele>
        <time>1970-01-01T01:00:00Z</time>
      </trkpt>
      <trkpt lat="63.35867333" lon="10.25003733">
        <ele>192.484</ele>
        <time>1970-01-01T01:00:00Z</time>
      </trkpt>
      <trkpt lat="63.35870317" lon="10.25000517">
        <ele>192.484</ele>
        <time>1970-01-01T01:00:00Z</time>
      </trkpt>
      <trkpt lat="63.35873083" lon="10.24997317">
        <ele>192.484</ele>
        <time>1970-01-01T01:00:00Z</time>
      </trkpt>
      <trkpt lat="63.35875733" lon="10.249937">
        <ele>192.484</ele>
        <time>1970-01-01T01:00:00Z</time>
      </trkpt>
      <trkpt lat="63.358782" lon="10.24989967">
        <ele>192.331</ele>
        <time>1970-01-01T01:00:00Z</time>
      </trkpt>
      <trkpt lat="63.35880783" lon="10.24985783">
        <ele>192.331</ele>
        <time>1970-01-01T01:00:00Z</time>
      </trkpt>
      <trkpt lat="63.358833" lon="10.24981967">
        <ele>192.331</ele>
        <time>1970-01-01T01:00:00Z</time>
      </trkpt>
      <trkpt lat="63.358859" lon="10.24977817">
        <ele>192.331</ele>
        <time>1970-01-01T01:00:00Z</time>
      </trkpt>
      <trkpt lat="63.35888117" lon="10.249737">
        <ele>192.179</ele>
        <time>1970-01-01T01:00:00Z</time>
      </trkpt>
      <trkpt lat="63.3589025" lon="10.2496955">
        <ele>192.179</ele>
        <time>1970-01-01T01:00:00Z</time>
      </trkpt>
      <trkpt lat="63.35892183" lon="10.2496555">
        <ele>192.179</ele>
        <time>1970-01-01T01:00:00Z</time>
      </trkpt>
      <trkpt lat="63.35894233" lon="10.2496185">
        <ele>192.179</ele>
        <time>1970-01-01T01:00:00Z</time>
      </trkpt>
      <trkpt lat="63.35896283" lon="10.24957967">
        <ele>192.026</ele>
        <time>1970-01-01T01:00:00Z</time>
      </trkpt>
      <trkpt lat="63.35898367" lon="10.24953683">
        <ele>192.026</ele>
        <time>1970-01-01T01:00:00Z</time>
      </trkpt>
      <trkpt lat="63.35900533" lon="10.24948883">
        <ele>191.874</ele>
        <time>1970-01-01T01:00:00Z</time>
      </trkpt>
      <trkpt lat="63.35902867" lon="10.249437">
        <ele>191.874</ele>
        <time>1970-01-01T01:00:00Z</time>
      </trkpt>
      <trkpt lat="63.359052" lon="10.24939183">
        <ele>191.874</ele>
        <time>1970-01-01T01:00:00Z</time>
      </trkpt>
      <trkpt lat="63.35907533" lon="10.24934833">
        <ele>191.874</ele>
        <time>1970-01-01T01:00:00Z</time>
      </trkpt>
      <trkpt lat="63.3590965" lon="10.24930983">
        <ele>191.722</ele>
        <time>1970-01-01T01:00:00Z</time>
      </trkpt>
      <trkpt lat="63.35911733" lon="10.24926783">
        <ele>191.722</ele>
        <time>1970-01-01T01:00:00Z</time>
      </trkpt>
      <trkpt lat="63.35913833" lon="10.24922333">
        <ele>191.722</ele>
        <time>1970-01-01T01:00:00Z</time>
      </trkpt>
      <trkpt lat="63.35916" lon="10.24917667">
        <ele>191.722</ele>
        <time>1970-01-01T01:00:00Z</time>
      </trkpt>
      <trkpt lat="63.359182" lon="10.24912967">
        <ele>191.569</ele>
        <time>1970-01-01T01:00:00Z</time>
      </trkpt>
      <trkpt lat="63.35920283" lon="10.24908817">
        <ele>191.569</ele>
        <time>1970-01-01T01:00:00Z</time>
      </trkpt>
      <trkpt lat="63.3592245" lon="10.24904733">
        <ele>191.569</ele>
        <time>1970-01-01T01:00:00Z</time>
      </trkpt>
      <trkpt lat="63.35924633" lon="10.249007">
        <ele>191.569</ele>
        <time>1970-01-01T01:00:00Z</time>
      </trkpt>
      <trkpt lat="63.35926867" lon="10.24897283">
        <ele>191.569</ele>
        <time>1970-01-01T01:00:00Z</time>
      </trkpt>
      <trkpt lat="63.35928833" lon="10.24893483">
        <ele>191.569</ele>
        <time>1970-01-01T01:00:00Z</time>
      </trkpt>
      <trkpt lat="63.35930467" lon="10.2489005">
        <ele>191.722</ele>
        <time>1970-01-01T01:00:00Z</time>
      </trkpt>
      <trkpt lat="63.35931983" lon="10.24886217">
        <ele>191.722</ele>
        <time>1970-01-01T01:00:00Z</time>
      </trkpt>
      <trkpt lat="63.35933567" lon="10.24883317">
        <ele>191.722</ele>
        <time>1970-01-01T01:00:00Z</time>
      </trkpt>
      <trkpt lat="63.35935167" lon="10.24880483">
        <ele>191.722</ele>
        <time>1970-01-01T01:00:00Z</time>
      </trkpt>
      <trkpt lat="63.359367" lon="10.248775">
        <ele>191.722</ele>
        <time>1970-01-01T01:00:00Z</time>
      </trkpt>
      <trkpt lat="63.359379" lon="10.24874767">
        <ele>191.722</ele>
        <time>1970-01-01T01:00:00Z</time>
      </trkpt>
      <trkpt lat="63.35939017" lon="10.248723">
        <ele>191.874</ele>
        <time>1970-01-01T01:00:00Z</time>
      </trkpt>
      <trkpt lat="63.35939983" lon="10.24870133">
        <ele>191.874</ele>
        <time>1970-01-01T01:00:00Z</time>
      </trkpt>
      <trkpt lat="63.35941167" lon="10.24867367">
        <ele>192.026</ele>
        <time>1970-01-01T01:00:00Z</time>
      </trkpt>
      <trkpt lat="63.35942383" lon="10.24863667">
        <ele>192.026</ele>
        <time>1970-01-01T01:00:00Z</time>
      </trkpt>
      <trkpt lat="63.35943617" lon="10.24859783">
        <ele>192.179</ele>
        <time>1970-01-01T01:00:00Z</time>
      </trkpt>
      <trkpt lat="63.359445" lon="10.248556">
        <ele>192.179</ele>
        <time>1970-01-01T01:00:00Z</time>
      </trkpt>
      <trkpt lat="63.35945117" lon="10.24851433">
        <ele>192.179</ele>
        <time>1970-01-01T01:00:00Z</time>
      </trkpt>
      <trkpt lat="63.35945433" lon="10.2484725">
        <ele>192.179</ele>
        <time>1970-01-01T01:00:00Z</time>
      </trkpt>
      <trkpt lat="63.35945683" lon="10.2484315">
        <ele>192.331</ele>
        <time>1970-01-01T01:00:00Z</time>
      </trkpt>
      <trkpt lat="63.35945767" lon="10.24839367">
        <ele>192.331</ele>
        <time>1970-01-01T01:00:00Z</time>
      </trkpt>
      <trkpt lat="63.35945567" lon="10.24835883">
        <ele>192.484</ele>
        <time>1970-01-01T01:00:00Z</time>
      </trkpt>
      <trkpt lat="63.359451" lon="10.24832333">
        <ele>192.484</ele>
        <time>1970-01-01T01:00:00Z</time>
      </trkpt>
      <trkpt lat="63.35944567" lon="10.24829283">
        <ele>192.636</ele>
        <time>1970-01-01T01:00:00Z</time>
      </trkpt>
      <trkpt lat="63.359439" lon="10.24825567">
        <ele>192.636</ele>
        <time>1970-01-01T01:00:00Z</time>
      </trkpt>
      <trkpt lat="63.35943083" lon="10.2482185">
        <ele>192.788</ele>
        <time>1970-01-01T01:00:00Z</time>
      </trkpt>
      <trkpt lat="63.35941933" lon="10.24817383">
        <ele>192.788</ele>
        <time>1970-01-01T01:00:00Z</time>
      </trkpt>
      <trkpt lat="63.359407" lon="10.24812317">
        <ele>193.093</ele>
        <time>1970-01-01T01:00:00Z</time>
      </trkpt>
      <trkpt lat="63.359395" lon="10.248071">
        <ele>193.093</ele>
        <time>1970-01-01T01:00:00Z</time>
      </trkpt>
      <trkpt lat="63.35938283" lon="10.24801333">
        <ele>193.246</ele>
        <time>1970-01-01T01:00:00Z</time>
      </trkpt>
      <trkpt lat="63.3593705" lon="10.24795483">
        <ele>193.246</ele>
        <time>1970-01-01T01:00:00Z</time>
      </trkpt>
      <trkpt lat="63.359356" lon="10.24789433">
        <ele>193.398</ele>
        <time>1970-01-01T01:00:00Z</time>
      </trkpt>
      <trkpt lat="63.35934217" lon="10.24783567">
        <ele>193.398</ele>
        <time>1970-01-01T01:00:00Z</time>
      </trkpt>
      <trkpt lat="63.35932817" lon="10.24778167">
        <ele>193.55</ele>
        <time>1970-01-01T01:00:00Z</time>
      </trkpt>
      <trkpt lat="63.359314" lon="10.247722">
        <ele>193.55</ele>
        <time>1970-01-01T01:00:00Z</time>
      </trkpt>
      <trkpt lat="63.35929983" lon="10.2476595">
        <ele>193.55</ele>
        <time>1970-01-01T01:00:00Z</time>
      </trkpt>
      <trkpt lat="63.35928667" lon="10.24759">
        <ele>193.55</ele>
        <time>1970-01-01T01:00:00Z</time>
      </trkpt>
      <trkpt lat="63.359274" lon="10.24753233">
        <ele>193.703</ele>
        <time>1970-01-01T01:00:00Z</time>
      </trkpt>
      <trkpt lat="63.3592615" lon="10.2474835">
        <ele>193.703</ele>
        <time>1970-01-01T01:00:00Z</time>
      </trkpt>
      <trkpt lat="63.359246" lon="10.247435">
        <ele>193.703</ele>
        <time>1970-01-01T01:00:00Z</time>
      </trkpt>
      <trkpt lat="63.35922967" lon="10.2473765">
        <ele>193.703</ele>
        <time>1970-01-01T01:00:00Z</time>
      </trkpt>
      <trkpt lat="63.35921217" lon="10.24731033">
        <ele>193.855</ele>
        <time>1970-01-01T01:00:00Z</time>
      </trkpt>
      <trkpt lat="63.35919583" lon="10.247248">
        <ele>193.855</ele>
        <time>1970-01-01T01:00:00Z</time>
      </trkpt>
      <trkpt lat="63.3591835" lon="10.24718467">
        <ele>193.855</ele>
        <time>1970-01-01T01:00:00Z</time>
      </trkpt>
      <trkpt lat="63.35917333" lon="10.24711967">
        <ele>193.855</ele>
        <time>1970-01-01T01:00:00Z</time>
      </trkpt>
      <trkpt lat="63.35916467" lon="10.247044">
        <ele>193.855</ele>
        <time>1970-01-01T01:00:00Z</time>
      </trkpt>
      <trkpt lat="63.35915267" lon="10.24696883">
        <ele>193.855</ele>
        <time>1970-01-01T01:00:00Z</time>
      </trkpt>
      <trkpt lat="63.35914167" lon="10.2468885">
        <ele>194.008</ele>
        <time>1970-01-01T01:00:00Z</time>
      </trkpt>
      <trkpt lat="63.35913183" lon="10.2468175">
        <ele>194.008</ele>
        <time>1970-01-01T01:00:00Z</time>
      </trkpt>
      <trkpt lat="63.35912583" lon="10.246752">
        <ele>194.008</ele>
        <time>1970-01-01T01:00:00Z</time>
      </trkpt>
      <trkpt lat="63.35912217" lon="10.2466925">
        <ele>194.008</ele>
        <time>1970-01-01T01:00:00Z</time>
      </trkpt>
      <trkpt lat="63.3591205" lon="10.2466325">
        <ele>193.855</ele>
        <time>1970-01-01T01:00:00Z</time>
      </trkpt>
      <trkpt lat="63.35911867" lon="10.246566">
        <ele>193.855</ele>
        <time>1970-01-01T01:00:00Z</time>
      </trkpt>
      <trkpt lat="63.3591155" lon="10.24650267">
        <ele>193.855</ele>
        <time>1970-01-01T01:00:00Z</time>
      </trkpt>
      <trkpt lat="63.3591155" lon="10.2464415">
        <ele>193.855</ele>
        <time>1970-01-01T01:00:00Z</time>
      </trkpt>
      <trkpt lat="63.35912133" lon="10.246388">
        <ele>193.855</ele>
        <time>1970-01-01T01:00:00Z</time>
      </trkpt>
      <trkpt lat="63.359131" lon="10.2463455">
        <ele>193.855</ele>
        <time>1970-01-01T01:00:00Z</time>
      </trkpt>
      <trkpt lat="63.359141" lon="10.24630217">
        <ele>193.855</ele>
        <time>1970-01-01T01:00:00Z</time>
      </trkpt>
      <trkpt lat="63.35914967" lon="10.24625633">
        <ele>193.855</ele>
        <time>1970-01-01T01:00:00Z</time>
      </trkpt>
      <trkpt lat="63.359159" lon="10.24620367">
        <ele>193.855</ele>
        <time>1970-01-01T01:00:00Z</time>
      </trkpt>
      <trkpt lat="63.35917217" lon="10.2461455">
        <ele>193.855</ele>
        <time>1970-01-01T01:00:00Z</time>
      </trkpt>
      <trkpt lat="63.35918717" lon="10.24608833">
        <ele>193.703</ele>
        <time>1970-01-01T01:00:00Z</time>
      </trkpt>
      <trkpt lat="63.35920333" lon="10.24602767">
        <ele>193.703</ele>
        <time>1970-01-01T01:00:00Z</time>
      </trkpt>
      <trkpt lat="63.35921733" lon="10.24597333">
        <ele>193.703</ele>
        <time>1970-01-01T01:00:00Z</time>
      </trkpt>
      <trkpt lat="63.35923033" lon="10.24591567">
        <ele>193.703</ele>
        <time>1970-01-01T01:00:00Z</time>
      </trkpt>
      <trkpt lat="63.35924367" lon="10.24585933">
        <ele>193.703</ele>
        <time>1970-01-01T01:00:00Z</time>
      </trkpt>
      <trkpt lat="63.35925417" lon="10.2458005">
        <ele>193.703</ele>
        <time>1970-01-01T01:00:00Z</time>
      </trkpt>
      <trkpt lat="63.35926517" lon="10.24573817">
        <ele>193.703</ele>
        <time>1970-01-01T01:00:00Z</time>
      </trkpt>
      <trkpt lat="63.35927417" lon="10.24567683">
        <ele>193.703</ele>
        <time>1970-01-01T01:00:00Z</time>
      </trkpt>
      <trkpt lat="63.3592855" lon="10.24561567">
        <ele>193.703</ele>
        <time>1970-01-01T01:00:00Z</time>
      </trkpt>
      <trkpt lat="63.35929817" lon="10.245561">
        <ele>193.703</ele>
        <time>1970-01-01T01:00:00Z</time>
      </trkpt>
      <trkpt lat="63.35931217" lon="10.24550117">
        <ele>193.855</ele>
        <time>1970-01-01T01:00:00Z</time>
      </trkpt>
      <trkpt lat="63.3593235" lon="10.24544">
        <ele>193.855</ele>
        <time>1970-01-01T01:00:00Z</time>
      </trkpt>
      <trkpt lat="63.35933117" lon="10.24537317">
        <ele>193.855</ele>
        <time>1970-01-01T01:00:00Z</time>
      </trkpt>
      <trkpt lat="63.35933767" lon="10.24530583">
        <ele>193.855</ele>
        <time>1970-01-01T01:00:00Z</time>
      </trkpt>
      <trkpt lat="63.35934633" lon="10.24524517">
        <ele>194.008</ele>
        <time>1970-01-01T01:00:00Z</time>
      </trkpt>
      <trkpt lat="63.35935367" lon="10.24518783">
        <ele>194.008</ele>
        <time>1970-01-01T01:00:00Z</time>
      </trkpt>
      <trkpt lat="63.35936367" lon="10.2451355">
        <ele>194.16</ele>
        <time>1970-01-01T01:00:00Z</time>
      </trkpt>
      <trkpt lat="63.359374" lon="10.24508317">
        <ele>194.16</ele>
        <time>1970-01-01T01:00:00Z</time>
      </trkpt>
      <trkpt lat="63.35938633" lon="10.24502883">
        <ele>194.312</ele>
        <time>1970-01-01T01:00:00Z</time>
      </trkpt>
      <trkpt lat="63.3593965" lon="10.244974">
        <ele>194.312</ele>
        <time>1970-01-01T01:00:00Z</time>
      </trkpt>
      <trkpt lat="63.35940383" lon="10.2449155">
        <ele>194.465</ele>
        <time>1970-01-01T01:00:00Z</time>
      </trkpt>
      <trkpt lat="63.35940883" lon="10.24486">
        <ele>194.465</ele>
        <time>1970-01-01T01:00:00Z</time>
      </trkpt>
      <trkpt lat="63.35941217" lon="10.244802">
        <ele>194.617</ele>
        <time>1970-01-01T01:00:00Z</time>
      </trkpt>
      <trkpt lat="63.35941633" lon="10.24474517">
        <ele>194.617</ele>
        <time>1970-01-01T01:00:00Z</time>
      </trkpt>
      <trkpt lat="63.3594215" lon="10.244686">
        <ele>194.617</ele>
        <time>1970-01-01T01:00:00Z</time>
      </trkpt>
      <trkpt lat="63.35942617" lon="10.2446275">
        <ele>194.617</ele>
        <time>1970-01-01T01:00:00Z</time>
      </trkpt>
      <trkpt lat="63.3594295" lon="10.244568">
        <ele>194.77</ele>
        <time>1970-01-01T01:00:00Z</time>
      </trkpt>
      <trkpt lat="63.3594325" lon="10.24450767">
        <ele>194.77</ele>
        <time>1970-01-01T01:00:00Z</time>
      </trkpt>
      <trkpt lat="63.3594375" lon="10.24443883">
        <ele>194.77</ele>
        <time>1970-01-01T01:00:00Z</time>
      </trkpt>
      <trkpt lat="63.359443" lon="10.24436567">
        <ele>194.77</ele>
        <time>1970-01-01T01:00:00Z</time>
      </trkpt>
      <trkpt lat="63.35945" lon="10.24428783">
        <ele>194.922</ele>
        <time>1970-01-01T01:00:00Z</time>
      </trkpt>
      <trkpt lat="63.3594535" lon="10.24421567">
        <ele>194.922</ele>
        <time>1970-01-01T01:00:00Z</time>
      </trkpt>
      <trkpt lat="63.35945583" lon="10.244143">
        <ele>194.922</ele>
        <time>1970-01-01T01:00:00Z</time>
      </trkpt>
      <trkpt lat="63.3594575" lon="10.24406833">
        <ele>194.922</ele>
        <time>1970-01-01T01:00:00Z</time>
      </trkpt>
      <trkpt lat="63.3594605" lon="10.24399133">
        <ele>194.922</ele>
        <time>1970-01-01T01:00:00Z</time>
      </trkpt>
      <trkpt lat="63.359469" lon="10.24391267">
        <ele>194.922</ele>
        <time>1970-01-01T01:00:00Z</time>
      </trkpt>
      <trkpt lat="63.35947917" lon="10.24383883">
        <ele>194.922</ele>
        <time>1970-01-01T01:00:00Z</time>
      </trkpt>
      <trkpt lat="63.35949017" lon="10.24376683">
        <ele>194.922</ele>
        <time>1970-01-01T01:00:00Z</time>
      </trkpt>
      <trkpt lat="63.35949833" lon="10.2436945">
        <ele>194.922</ele>
        <time>1970-01-01T01:00:00Z</time>
      </trkpt>
      <trkpt lat="63.359508" lon="10.24362333">
        <ele>194.922</ele>
        <time>1970-01-01T01:00:00Z</time>
      </trkpt>
      <trkpt lat="63.3595205" lon="10.24354567">
        <ele>194.922</ele>
        <time>1970-01-01T01:00:00Z</time>
      </trkpt>
      <trkpt lat="63.35953267" lon="10.24347067">
        <ele>194.922</ele>
        <time>1970-01-01T01:00:00Z</time>
      </trkpt>
      <trkpt lat="63.3595425" lon="10.24339117">
        <ele>195.074</ele>
        <time>1970-01-01T01:00:00Z</time>
      </trkpt>
      <trkpt lat="63.35955183" lon="10.243315">
        <ele>195.074</ele>
        <time>1970-01-01T01:00:00Z</time>
      </trkpt>
      <trkpt lat="63.359562" lon="10.24323617">
        <ele>195.074</ele>
        <time>1970-01-01T01:00:00Z</time>
      </trkpt>
      <trkpt lat="63.35957233" lon="10.24315833">
        <ele>195.074</ele>
        <time>1970-01-01T01:00:00Z</time>
      </trkpt>
      <trkpt lat="63.3595825" lon="10.24308667">
        <ele>195.074</ele>
        <time>1970-01-01T01:00:00Z</time>
      </trkpt>
      <trkpt lat="63.359592" lon="10.24301767">
        <ele>195.074</ele>
        <time>1970-01-01T01:00:00Z</time>
      </trkpt>
      <trkpt lat="63.35960267" lon="10.24296133">
        <ele>195.074</ele>
        <time>1970-01-01T01:00:00Z</time>
      </trkpt>
      <trkpt lat="63.35961333" lon="10.24290483">
        <ele>195.074</ele>
        <time>1970-01-01T01:00:00Z</time>
      </trkpt>
      <trkpt lat="63.359625" lon="10.24285383">
        <ele>195.227</ele>
        <time>1970-01-01T01:00:00Z</time>
      </trkpt>
      <trkpt lat="63.35963867" lon="10.2427945">
        <ele>195.227</ele>
        <time>1970-01-01T01:00:00Z</time>
      </trkpt>
      <trkpt lat="63.3596525" lon="10.24273683">
        <ele>195.227</ele>
        <time>1970-01-01T01:00:00Z</time>
      </trkpt>
      <trkpt lat="63.3596665" lon="10.24267733">
        <ele>195.227</ele>
        <time>1970-01-01T01:00:00Z</time>
      </trkpt>
      <trkpt lat="63.35968" lon="10.24262">
        <ele>195.227</ele>
        <time>1970-01-01T01:00:00Z</time>
      </trkpt>
      <trkpt lat="63.359694" lon="10.24256217">
        <ele>195.227</ele>
        <time>1970-01-01T01:00:00Z</time>
      </trkpt>
      <trkpt lat="63.359709" lon="10.24250267">
        <ele>195.227</ele>
        <time>1970-01-01T01:00:00Z</time>
      </trkpt>
      <trkpt lat="63.35972317" lon="10.24244567">
        <ele>195.227</ele>
        <time>1970-01-01T01:00:00Z</time>
      </trkpt>
      <trkpt lat="63.3597375" lon="10.24239033">
        <ele>195.074</ele>
        <time>1970-01-01T01:00:00Z</time>
      </trkpt>
      <trkpt lat="63.35975167" lon="10.242341">
        <ele>195.074</ele>
        <time>1970-01-01T01:00:00Z</time>
      </trkpt>
      <trkpt lat="63.35976733" lon="10.24228967">
        <ele>195.074</ele>
        <time>1970-01-01T01:00:00Z</time>
      </trkpt>
      <trkpt lat="63.35978267" lon="10.242239">
        <ele>195.074</ele>
        <time>1970-01-01T01:00:00Z</time>
      </trkpt>
      <trkpt lat="63.3597975" lon="10.24218633">
        <ele>195.074</ele>
        <time>1970-01-01T01:00:00Z</time>
      </trkpt>
      <trkpt lat="63.359813" lon="10.242134">
        <ele>195.074</ele>
        <time>1970-01-01T01:00:00Z</time>
      </trkpt>
      <trkpt lat="63.35983033" lon="10.242082">
        <ele>194.922</ele>
        <time>1970-01-01T01:00:00Z</time>
      </trkpt>
      <trkpt lat="63.35984867" lon="10.2420305">
        <ele>194.922</ele>
        <time>1970-01-01T01:00:00Z</time>
      </trkpt>
      <trkpt lat="63.35986783" lon="10.24198117">
        <ele>194.922</ele>
        <time>1970-01-01T01:00:00Z</time>
      </trkpt>
      <trkpt lat="63.35988717" lon="10.24193117">
        <ele>194.922</ele>
        <time>1970-01-01T01:00:00Z</time>
      </trkpt>
      <trkpt lat="63.359906" lon="10.2418855">
        <ele>194.922</ele>
        <time>1970-01-01T01:00:00Z</time>
      </trkpt>
      <trkpt lat="63.35992333" lon="10.24184167">
        <ele>194.922</ele>
        <time>1970-01-01T01:00:00Z</time>
      </trkpt>
      <trkpt lat="63.3599405" lon="10.2418025">
        <ele>194.922</ele>
        <time>1970-01-01T01:00:00Z</time>
      </trkpt>
      <trkpt lat="63.35995717" lon="10.24176217">
        <ele>194.922</ele>
        <time>1970-01-01T01:00:00Z</time>
      </trkpt>
      <trkpt lat="63.35997483" lon="10.24172133">
        <ele>195.074</ele>
        <time>1970-01-01T01:00:00Z</time>
      </trkpt>
      <trkpt lat="63.359993" lon="10.24168133">
        <ele>195.074</ele>
        <time>1970-01-01T01:00:00Z</time>
      </trkpt>
      <trkpt lat="63.36001333" lon="10.2416415">
        <ele>195.074</ele>
        <time>1970-01-01T01:00:00Z</time>
      </trkpt>
      <trkpt lat="63.36003233" lon="10.24160683">
        <ele>195.074</ele>
        <time>1970-01-01T01:00:00Z</time>
      </trkpt>
      <trkpt lat="63.3600515" lon="10.24157467">
        <ele>195.074</ele>
        <time>1970-01-01T01:00:00Z</time>
      </trkpt>
      <trkpt lat="63.36006917" lon="10.241548">
        <ele>195.074</ele>
        <time>1970-01-01T01:00:00Z</time>
      </trkpt>
      <trkpt lat="63.3600865" lon="10.24151967">
        <ele>195.227</ele>
        <time>1970-01-01T01:00:00Z</time>
      </trkpt>
      <trkpt lat="63.360103" lon="10.2414835">
        <ele>195.227</ele>
        <time>1970-01-01T01:00:00Z</time>
      </trkpt>
      <trkpt lat="63.3601175" lon="10.2414415">
        <ele>195.379</ele>
        <time>1970-01-01T01:00:00Z</time>
      </trkpt>
      <trkpt lat="63.36013433" lon="10.24139267">
        <ele>195.379</ele>
        <time>1970-01-01T01:00:00Z</time>
      </trkpt>
      <trkpt lat="63.36015183" lon="10.24134383">
        <ele>195.379</ele>
        <time>1970-01-01T01:00:00Z</time>
      </trkpt>
      <trkpt lat="63.360171" lon="10.2412925">
        <ele>195.379</ele>
        <time>1970-01-01T01:00:00Z</time>
      </trkpt>
      <trkpt lat="63.36018817" lon="10.24124033">
        <ele>195.532</ele>
        <time>1970-01-01T01:00:00Z</time>
      </trkpt>
      <trkpt lat="63.36020383" lon="10.24119017">
        <ele>195.532</ele>
        <time>1970-01-01T01:00:00Z</time>
      </trkpt>
      <trkpt lat="63.36021767" lon="10.24113983">
        <ele>195.684</ele>
        <time>1970-01-01T01:00:00Z</time>
      </trkpt>
      <trkpt lat="63.36023183" lon="10.241096">
        <ele>195.684</ele>
        <time>1970-01-01T01:00:00Z</time>
      </trkpt>
      <trkpt lat="63.36024733" lon="10.241053">
        <ele>195.684</ele>
        <time>1970-01-01T01:00:00Z</time>
      </trkpt>
      <trkpt lat="63.360264" lon="10.24100883">
        <ele>195.684</ele>
        <time>1970-01-01T01:00:00Z</time>
      </trkpt>
      <trkpt lat="63.36028183" lon="10.24096467">
        <ele>195.836</ele>
        <time>1970-01-01T01:00:00Z</time>
      </trkpt>
      <trkpt lat="63.36029933" lon="10.2409175">
        <ele>195.836</ele>
        <time>1970-01-01T01:00:00Z</time>
      </trkpt>
      <trkpt lat="63.36031833" lon="10.24087033">
        <ele>195.836</ele>
        <time>1970-01-01T01:00:00Z</time>
      </trkpt>
      <trkpt lat="63.36033517" lon="10.24081783">
        <ele>195.836</ele>
        <time>1970-01-01T01:00:00Z</time>
      </trkpt>
      <trkpt lat="63.36035283" lon="10.2407675">
        <ele>195.836</ele>
        <time>1970-01-01T01:00:00Z</time>
      </trkpt>
      <trkpt lat="63.360374" lon="10.240716">
        <ele>195.836</ele>
        <time>1970-01-01T01:00:00Z</time>
      </trkpt>
      <trkpt lat="63.36039867" lon="10.24065883">
        <ele>195.836</ele>
        <time>1970-01-01T01:00:00Z</time>
      </trkpt>
      <trkpt lat="63.36042333" lon="10.24059783">
        <ele>195.836</ele>
        <time>1970-01-01T01:00:00Z</time>
      </trkpt>
      <trkpt lat="63.36044517" lon="10.240536">
        <ele>195.684</ele>
        <time>1970-01-01T01:00:00Z</time>
      </trkpt>
      <trkpt lat="63.36046533" lon="10.240477">
        <ele>195.684</ele>
        <time>1970-01-01T01:00:00Z</time>
      </trkpt>
      <trkpt lat="63.36048433" lon="10.24041233">
        <ele>195.684</ele>
        <time>1970-01-01T01:00:00Z</time>
      </trkpt>
      <trkpt lat="63.36050083" lon="10.24034817">
        <ele>195.684</ele>
        <time>1970-01-01T01:00:00Z</time>
      </trkpt>
      <trkpt lat="63.360518" lon="10.24028833">
        <ele>195.532</ele>
        <time>1970-01-01T01:00:00Z</time>
      </trkpt>
      <trkpt lat="63.36053583" lon="10.240238">
        <ele>195.532</ele>
        <time>1970-01-01T01:00:00Z</time>
      </trkpt>
      <trkpt lat="63.3605565" lon="10.24019383">
        <ele>195.532</ele>
        <time>1970-01-01T01:00:00Z</time>
      </trkpt>
      <trkpt lat="63.36057683" lon="10.2401455">
        <ele>195.532</ele>
        <time>1970-01-01T01:00:00Z</time>
      </trkpt>
      <trkpt lat="63.360597" lon="10.24009783">
        <ele>195.532</ele>
        <time>1970-01-01T01:00:00Z</time>
      </trkpt>
      <trkpt lat="63.36061667" lon="10.240048">
        <ele>195.532</ele>
        <time>1970-01-01T01:00:00Z</time>
      </trkpt>
      <trkpt lat="63.36063617" lon="10.24000833">
        <ele>195.379</ele>
        <time>1970-01-01T01:00:00Z</time>
      </trkpt>
      <trkpt lat="63.360656" lon="10.239969">
        <ele>195.379</ele>
        <time>1970-01-01T01:00:00Z</time>
      </trkpt>
      <trkpt lat="63.36067883" lon="10.23993217">
        <ele>195.379</ele>
        <time>1970-01-01T01:00:00Z</time>
      </trkpt>
      <trkpt lat="63.36070417" lon="10.23989217">
        <ele>195.379</ele>
        <time>1970-01-01T01:00:00Z</time>
      </trkpt>
      <trkpt lat="63.3607315" lon="10.23985267">
        <ele>195.379</ele>
        <time>1970-01-01T01:00:00Z</time>
      </trkpt>
      <trkpt lat="63.36075567" lon="10.239812">
        <ele>195.379</ele>
        <time>1970-01-01T01:00:00Z</time>
      </trkpt>
      <trkpt lat="63.3607775" lon="10.23976967">
        <ele>195.379</ele>
        <time>1970-01-01T01:00:00Z</time>
      </trkpt>
      <trkpt lat="63.360795" lon="10.239726">
        <ele>195.379</ele>
        <time>1970-01-01T01:00:00Z</time>
      </trkpt>
      <trkpt lat="63.36081233" lon="10.23968167">
        <ele>195.379</ele>
        <time>1970-01-01T01:00:00Z</time>
      </trkpt>
      <trkpt lat="63.36082517" lon="10.23963983">
        <ele>195.379</ele>
        <time>1970-01-01T01:00:00Z</time>
      </trkpt>
      <trkpt lat="63.36083667" lon="10.23959867">
        <ele>195.379</ele>
        <time>1970-01-01T01:00:00Z</time>
      </trkpt>
      <trkpt lat="63.36084483" lon="10.23955433">
        <ele>195.379</ele>
        <time>1970-01-01T01:00:00Z</time>
      </trkpt>
      <trkpt lat="63.36085583" lon="10.239509">
        <ele>195.379</ele>
        <time>1970-01-01T01:00:00Z</time>
      </trkpt>
      <trkpt lat="63.36086667" lon="10.23945783">
        <ele>195.379</ele>
        <time>1970-01-01T01:00:00Z</time>
      </trkpt>
      <trkpt lat="63.36087533" lon="10.23940933">
        <ele>195.532</ele>
        <time>1970-01-01T01:00:00Z</time>
      </trkpt>
      <trkpt lat="63.36087833" lon="10.23935583">
        <ele>195.532</ele>
        <time>1970-01-01T01:00:00Z</time>
      </trkpt>
      <trkpt lat="63.36087767" lon="10.2393055">
        <ele>195.532</ele>
        <time>1970-01-01T01:00:00Z</time>
      </trkpt>
      <trkpt lat="63.360876" lon="10.23925417">
        <ele>195.532</ele>
        <time>1970-01-01T01:00:00Z</time>
      </trkpt>
      <trkpt lat="63.36087433" lon="10.23920383">
        <ele>195.684</ele>
        <time>1970-01-01T01:00:00Z</time>
      </trkpt>
      <trkpt lat="63.36087267" lon="10.23915383">
        <ele>195.684</ele>
        <time>1970-01-01T01:00:00Z</time>
      </trkpt>
      <trkpt lat="63.3608655" lon="10.23910417">
        <ele>195.684</ele>
        <time>1970-01-01T01:00:00Z</time>
      </trkpt>
      <trkpt lat="63.3608605" lon="10.23906017">
        <ele>195.684</ele>
        <time>1970-01-01T01:00:00Z</time>
      </trkpt>
      <trkpt lat="63.36085283" lon="10.2390135">
        <ele>195.836</ele>
        <time>1970-01-01T01:00:00Z</time>
      </trkpt>
      <trkpt lat="63.360849" lon="10.238969">
        <ele>195.836</ele>
        <time>1970-01-01T01:00:00Z</time>
      </trkpt>
      <trkpt lat="63.36084067" lon="10.23892283">
        <ele>195.836</ele>
        <time>1970-01-01T01:00:00Z</time>
      </trkpt>
      <trkpt lat="63.360834" lon="10.238873">
        <ele>195.836</ele>
        <time>1970-01-01T01:00:00Z</time>
      </trkpt>
      <trkpt lat="63.3608255" lon="10.23882617">
        <ele>195.989</ele>
        <time>1970-01-01T01:00:00Z</time>
      </trkpt>
      <trkpt lat="63.36081433" lon="10.23877567">
        <ele>195.989</ele>
        <time>1970-01-01T01:00:00Z</time>
      </trkpt>
      <trkpt lat="63.3608025" lon="10.23873433">
        <ele>195.989</ele>
        <time>1970-01-01T01:00:00Z</time>
      </trkpt>
      <trkpt lat="63.36079033" lon="10.23869267">
        <ele>195.989</ele>
        <time>1970-01-01T01:00:00Z</time>
      </trkpt>
      <trkpt lat="63.360778" lon="10.23866033">
        <ele>196.141</ele>
        <time>1970-01-01T01:00:00Z</time>
      </trkpt>
      <trkpt lat="63.360764" lon="10.2386305">
        <ele>196.141</ele>
        <time>1970-01-01T01:00:00Z</time>
      </trkpt>
      <trkpt lat="63.36075133" lon="10.23859167">
        <ele>196.294</ele>
        <time>1970-01-01T01:00:00Z</time>
      </trkpt>
      <trkpt lat="63.360741" lon="10.23855">
        <ele>196.294</ele>
        <time>1970-01-01T01:00:00Z</time>
      </trkpt>
      <trkpt lat="63.36073183" lon="10.23850783">
        <ele>196.446</ele>
        <time>1970-01-01T01:00:00Z</time>
      </trkpt>
      <trkpt lat="63.36072183" lon="10.2384695">
        <ele>196.446</ele>
        <time>1970-01-01T01:00:00Z</time>
      </trkpt>
      <trkpt lat="63.3607105" lon="10.23843083">
        <ele>196.751</ele>
        <time>1970-01-01T01:00:00Z</time>
      </trkpt>
      <trkpt lat="63.36069667" lon="10.23838817">
        <ele>196.751</ele>
        <time>1970-01-01T01:00:00Z</time>
      </trkpt>
      <trkpt lat="63.36068267" lon="10.2383485">
        <ele>196.903</ele>
        <time>1970-01-01T01:00:00Z</time>
      </trkpt>
      <trkpt lat="63.36067183" lon="10.238311">
        <ele>196.903</ele>
        <time>1970-01-01T01:00:00Z</time>
      </trkpt>
      <trkpt lat="63.36066483" lon="10.23827383">
        <ele>197.208</ele>
        <time>1970-01-01T01:00:00Z</time>
      </trkpt>
      <trkpt lat="63.360656" lon="10.238246">
        <ele>197.208</ele>
        <time>1970-01-01T01:00:00Z</time>
      </trkpt>
      <trkpt lat="63.36064383" lon="10.23821433">
        <ele>197.513</ele>
        <time>1970-01-01T01:00:00Z</time>
      </trkpt>
      <trkpt lat="63.36063" lon="10.238179">
        <ele>197.513</ele>
        <time>1970-01-01T01:00:00Z</time>
      </trkpt>
      <trkpt lat="63.36061717" lon="10.23813217">
        <ele>197.818</ele>
        <time>1970-01-01T01:00:00Z</time>
      </trkpt>
      <trkpt lat="63.36060667" lon="10.23808">
        <ele>197.818</ele>
        <time>1970-01-01T01:00:00Z</time>
      </trkpt>
      <trkpt lat="63.360599" lon="10.23802783">
        <ele>198.122</ele>
        <time>1970-01-01T01:00:00Z</time>
      </trkpt>
      <trkpt lat="63.36059333" lon="10.2379735">
        <ele>198.122</ele>
        <time>1970-01-01T01:00:00Z</time>
      </trkpt>
      <trkpt lat="63.36058783" lon="10.2379155">
        <ele>198.427</ele>
        <time>1970-01-01T01:00:00Z</time>
      </trkpt>
      <trkpt lat="63.36058017" lon="10.23785633">
        <ele>198.427</ele>
        <time>1970-01-01T01:00:00Z</time>
      </trkpt>
      <trkpt lat="63.3605725" lon="10.23779517">
        <ele>198.732</ele>
        <time>1970-01-01T01:00:00Z</time>
      </trkpt>
      <trkpt lat="63.36056583" lon="10.23773933">
        <ele>198.732</ele>
        <time>1970-01-01T01:00:00Z</time>
      </trkpt>
      <trkpt lat="63.36056033" lon="10.237688">
        <ele>198.884</ele>
        <time>1970-01-01T01:00:00Z</time>
      </trkpt>
      <trkpt lat="63.36055517" lon="10.23763717">
        <ele>198.884</ele>
        <time>1970-01-01T01:00:00Z</time>
      </trkpt>
      <trkpt lat="63.36054683" lon="10.237591">
        <ele>199.037</ele>
        <time>1970-01-01T01:00:00Z</time>
      </trkpt>
      <trkpt lat="63.36054067" lon="10.2375415">
        <ele>199.037</ele>
        <time>1970-01-01T01:00:00Z</time>
      </trkpt>
      <trkpt lat="63.360536" lon="10.23749783">
        <ele>199.342</ele>
        <time>1970-01-01T01:00:00Z</time>
      </trkpt>
      <trkpt lat="63.360534" lon="10.2374545">
        <ele>199.342</ele>
        <time>1970-01-01T01:00:00Z</time>
      </trkpt>
      <trkpt lat="63.36053133" lon="10.23742033">
        <ele>199.494</ele>
        <time>1970-01-01T01:00:00Z</time>
      </trkpt>
      <trkpt lat="63.36052833" lon="10.2373895">
        <ele>199.494</ele>
        <time>1970-01-01T01:00:00Z</time>
      </trkpt>
      <trkpt lat="63.36052567" lon="10.23736217">
        <ele>199.646</ele>
        <time>1970-01-01T01:00:00Z</time>
      </trkpt>
      <trkpt lat="63.360522" lon="10.237335">
        <ele>199.646</ele>
        <time>1970-01-01T01:00:00Z</time>
      </trkpt>
      <trkpt lat="63.36051817" lon="10.23730717">
        <ele>199.951</ele>
        <time>1970-01-01T01:00:00Z</time>
      </trkpt>
      <trkpt lat="63.36051367" lon="10.237282">
        <ele>199.951</ele>
        <time>1970-01-01T01:00:00Z</time>
      </trkpt>
      <trkpt lat="63.36050933" lon="10.23725617">
        <ele>200.256</ele>
        <time>1970-01-01T01:00:00Z</time>
      </trkpt>
      <trkpt lat="63.36050667" lon="10.23723217">
        <ele>200.256</ele>
        <time>1970-01-01T01:00:00Z</time>
      </trkpt>
      <trkpt lat="63.36050417" lon="10.23720333">
        <ele>200.408</ele>
        <time>1970-01-01T01:00:00Z</time>
      </trkpt>
      <trkpt lat="63.36050367" lon="10.23717267">
        <ele>200.408</ele>
        <time>1970-01-01T01:00:00Z</time>
      </trkpt>
      <trkpt lat="63.36050233" lon="10.23714033">
        <ele>200.713</ele>
        <time>1970-01-01T01:00:00Z</time>
      </trkpt>
      <trkpt lat="63.36050067" lon="10.23710883">
        <ele>200.713</ele>
        <time>1970-01-01T01:00:00Z</time>
      </trkpt>
      <trkpt lat="63.36049867" lon="10.23707383">
        <ele>201.018</ele>
        <time>1970-01-01T01:00:00Z</time>
      </trkpt>
      <trkpt lat="63.36049567" lon="10.23703983">
        <ele>201.018</ele>
        <time>1970-01-01T01:00:00Z</time>
      </trkpt>
      <trkpt lat="63.360493" lon="10.23700533">
        <ele>201.323</ele>
        <time>1970-01-01T01:00:00Z</time>
      </trkpt>
      <trkpt lat="63.360488" lon="10.23698033">
        <ele>201.323</ele>
        <time>1970-01-01T01:00:00Z</time>
      </trkpt>
      <trkpt lat="63.36048267" lon="10.236956">
        <ele>201.628</ele>
        <time>1970-01-01T01:00:00Z</time>
      </trkpt>
      <trkpt lat="63.36047817" lon="10.23693483">
        <ele>201.628</ele>
        <time>1970-01-01T01:00:00Z</time>
      </trkpt>
      <trkpt lat="63.3604735" lon="10.23691167">
        <ele>201.932</ele>
        <time>1970-01-01T01:00:00Z</time>
      </trkpt>
      <trkpt lat="63.3604695" lon="10.23688833">
        <ele>201.932</ele>
        <time>1970-01-01T01:00:00Z</time>
      </trkpt>
      <trkpt lat="63.36046433" lon="10.2368645">
        <ele>202.237</ele>
        <time>1970-01-01T01:00:00Z</time>
      </trkpt>
      <trkpt lat="63.3604605" lon="10.23684183">
        <ele>202.237</ele>
        <time>1970-01-01T01:00:00Z</time>
      </trkpt>
      <trkpt lat="63.3604585" lon="10.23681467">
        <ele>202.542</ele>
        <time>1970-01-01T01:00:00Z</time>
      </trkpt>
      <trkpt lat="63.36045767" lon="10.2367845">
        <ele>202.542</ele>
        <time>1970-01-01T01:00:00Z</time>
      </trkpt>
      <trkpt lat="63.36045683" lon="10.236752">
        <ele>202.847</ele>
        <time>1970-01-01T01:00:00Z</time>
      </trkpt>
      <trkpt lat="63.36045583" lon="10.23672283">
        <ele>202.847</ele>
        <time>1970-01-01T01:00:00Z</time>
      </trkpt>
      <trkpt lat="63.3604535" lon="10.23669367">
        <ele>203.152</ele>
        <time>1970-01-01T01:00:00Z</time>
      </trkpt>
      <trkpt lat="63.36045117" lon="10.2366655">
        <ele>203.152</ele>
        <time>1970-01-01T01:00:00Z</time>
      </trkpt>
      <trkpt lat="63.360448" lon="10.23663583">
        <ele>203.456</ele>
        <time>1970-01-01T01:00:00Z</time>
      </trkpt>
      <trkpt lat="63.36044667" lon="10.236606">
        <ele>203.456</ele>
        <time>1970-01-01T01:00:00Z</time>
      </trkpt>
      <trkpt lat="63.3604435" lon="10.236575">
        <ele>203.761</ele>
        <time>1970-01-01T01:00:00Z</time>
      </trkpt>
      <trkpt lat="63.36044083" lon="10.2365515">
        <ele>203.761</ele>
        <time>1970-01-01T01:00:00Z</time>
      </trkpt>
      <trkpt lat="63.36043767" lon="10.23653283">
        <ele>204.066</ele>
        <time>1970-01-01T01:00:00Z</time>
      </trkpt>
      <trkpt lat="63.36043583" lon="10.23651533">
        <ele>204.066</ele>
        <time>1970-01-01T01:00:00Z</time>
      </trkpt>
      <trkpt lat="63.36043533" lon="10.23648967">
        <ele>204.218</ele>
        <time>1970-01-01T01:00:00Z</time>
      </trkpt>
      <trkpt lat="63.36043617" lon="10.23645883">
        <ele>204.218</ele>
        <time>1970-01-01T01:00:00Z</time>
      </trkpt>
      <trkpt lat="63.3604355" lon="10.23642483">
        <ele>204.523</ele>
        <time>1970-01-01T01:00:00Z</time>
      </trkpt>
      <trkpt lat="63.36043467" lon="10.23639167">
        <ele>204.523</ele>
        <time>1970-01-01T01:00:00Z</time>
      </trkpt>
      <trkpt lat="63.36043217" lon="10.2363595">
        <ele>204.828</ele>
        <time>1970-01-01T01:00:00Z</time>
      </trkpt>
      <trkpt lat="63.36043133" lon="10.23632833">
        <ele>204.828</ele>
        <time>1970-01-01T01:00:00Z</time>
      </trkpt>
      <trkpt lat="63.36042717" lon="10.23629683">
        <ele>204.98</ele>
        <time>1970-01-01T01:00:00Z</time>
      </trkpt>
      <trkpt lat="63.3604225" lon="10.2362625">
        <ele>204.98</ele>
        <time>1970-01-01T01:00:00Z</time>
      </trkpt>
      <trkpt lat="63.36041917" lon="10.2362285">
        <ele>205.133</ele>
        <time>1970-01-01T01:00:00Z</time>
      </trkpt>
      <trkpt lat="63.360418" lon="10.23619333">
        <ele>205.133</ele>
        <time>1970-01-01T01:00:00Z</time>
      </trkpt>
      <trkpt lat="63.36041633" lon="10.23616267">
        <ele>205.438</ele>
        <time>1970-01-01T01:00:00Z</time>
      </trkpt>
      <trkpt lat="63.3604135" lon="10.2361275">
        <ele>205.438</ele>
        <time>1970-01-01T01:00:00Z</time>
      </trkpt>
      <trkpt lat="63.36040833" lon="10.23609133">
        <ele>205.59</ele>
        <time>1970-01-01T01:00:00Z</time>
      </trkpt>
      <trkpt lat="63.3604005" lon="10.23604733">
        <ele>205.59</ele>
        <time>1970-01-01T01:00:00Z</time>
      </trkpt>
      <trkpt lat="63.360387" lon="10.23599917">
        <ele>205.742</ele>
        <time>1970-01-01T01:00:00Z</time>
      </trkpt>
      <trkpt lat="63.36037067" lon="10.23595017">
        <ele>205.742</ele>
        <time>1970-01-01T01:00:00Z</time>
      </trkpt>
      <trkpt lat="63.36035417" lon="10.2359015">
        <ele>206.047</ele>
        <time>1970-01-01T01:00:00Z</time>
      </trkpt>
      <trkpt lat="63.36034" lon="10.23585133">
        <ele>206.047</ele>
        <time>1970-01-01T01:00:00Z</time>
      </trkpt>
      <trkpt lat="63.3603275" lon="10.23579217">
        <ele>206.2</ele>
        <time>1970-01-01T01:00:00Z</time>
      </trkpt>
      <trkpt lat="63.360317" lon="10.23573233">
        <ele>206.2</ele>
        <time>1970-01-01T01:00:00Z</time>
      </trkpt>
      <trkpt lat="63.360308" lon="10.23567483">
        <ele>206.505</ele>
        <time>1970-01-01T01:00:00Z</time>
      </trkpt>
      <trkpt lat="63.36029817" lon="10.23562067">
        <ele>206.505</ele>
        <time>1970-01-01T01:00:00Z</time>
      </trkpt>
      <trkpt lat="63.360288" lon="10.23556683">
        <ele>206.657</ele>
        <time>1970-01-01T01:00:00Z</time>
      </trkpt>
      <trkpt lat="63.36027467" lon="10.23550933">
        <ele>206.657</ele>
        <time>1970-01-01T01:00:00Z</time>
      </trkpt>
      <trkpt lat="63.36026167" lon="10.23545433">
        <ele>206.962</ele>
        <time>1970-01-01T01:00:00Z</time>
      </trkpt>
      <trkpt lat="63.36024783" lon="10.23539783">
        <ele>206.962</ele>
        <time>1970-01-01T01:00:00Z</time>
      </trkpt>
      <trkpt lat="63.3602355" lon="10.23534383">
        <ele>207.114</ele>
        <time>1970-01-01T01:00:00Z</time>
      </trkpt>
      <trkpt lat="63.36022333" lon="10.23529133">
        <ele>207.114</ele>
        <time>1970-01-01T01:00:00Z</time>
      </trkpt>
      <trkpt lat="63.360213" lon="10.23523333">
        <ele>207.419</ele>
        <time>1970-01-01T01:00:00Z</time>
      </trkpt>
      <trkpt lat="63.36020267" lon="10.235176">
        <ele>207.419</ele>
        <time>1970-01-01T01:00:00Z</time>
      </trkpt>
      <trkpt lat="63.36019217" lon="10.23511467">
        <ele>207.571</ele>
        <time>1970-01-01T01:00:00Z</time>
      </trkpt>
      <trkpt lat="63.36018117" lon="10.23506233">
        <ele>207.571</ele>
        <time>1970-01-01T01:00:00Z</time>
      </trkpt>
      <trkpt lat="63.3601695" lon="10.2350085">
        <ele>207.876</ele>
        <time>1970-01-01T01:00:00Z</time>
      </trkpt>
      <trkpt lat="63.36016017" lon="10.23495717">
        <ele>207.876</ele>
        <time>1970-01-01T01:00:00Z</time>
      </trkpt>
      <trkpt lat="63.360151" lon="10.23490583">
        <ele>208.029</ele>
        <time>1970-01-01T01:00:00Z</time>
      </trkpt>
      <trkpt lat="63.3601425" lon="10.23485433">
        <ele>208.029</ele>
        <time>1970-01-01T01:00:00Z</time>
      </trkpt>
      <trkpt lat="63.36013017" lon="10.23480367">
        <ele>208.181</ele>
        <time>1970-01-01T01:00:00Z</time>
      </trkpt>
      <trkpt lat="63.360117" lon="10.23475">
        <ele>208.181</ele>
        <time>1970-01-01T01:00:00Z</time>
      </trkpt>
      <trkpt lat="63.36010433" lon="10.23470017">
        <ele>208.486</ele>
        <time>1970-01-01T01:00:00Z</time>
      </trkpt>
      <trkpt lat="63.3600875" lon="10.23464283">
        <ele>208.486</ele>
        <time>1970-01-01T01:00:00Z</time>
      </trkpt>
      <trkpt lat="63.36006817" lon="10.23458933">
        <ele>208.638</ele>
        <time>1970-01-01T01:00:00Z</time>
      </trkpt>
      <trkpt lat="63.3600445" lon="10.23453583">
        <ele>208.638</ele>
        <time>1970-01-01T01:00:00Z</time>
      </trkpt>
      <trkpt lat="63.36002283" lon="10.23449267">
        <ele>208.943</ele>
        <time>1970-01-01T01:00:00Z</time>
      </trkpt>
      <trkpt lat="63.359999" lon="10.23445283">
        <ele>208.943</ele>
        <time>1970-01-01T01:00:00Z</time>
      </trkpt>
      <trkpt lat="63.35997183" lon="10.23441817">
        <ele>209.095</ele>
        <time>1970-01-01T01:00:00Z</time>
      </trkpt>
      <trkpt lat="63.359945" lon="10.2343955">
        <ele>209.095</ele>
        <time>1970-01-01T01:00:00Z</time>
      </trkpt>
      <trkpt lat="63.35991767" lon="10.234379">
        <ele>209.095</ele>
        <time>1970-01-01T01:00:00Z</time>
      </trkpt>
      <trkpt lat="63.35989333" lon="10.2343675">
        <ele>209.095</ele>
        <time>1970-01-01T01:00:00Z</time>
      </trkpt>
      <trkpt lat="63.35986867" lon="10.2343545">
        <ele>209.248</ele>
        <time>1970-01-01T01:00:00Z</time>
      </trkpt>
      <trkpt lat="63.35984383" lon="10.23433833">
        <ele>209.248</ele>
        <time>1970-01-01T01:00:00Z</time>
      </trkpt>
      <trkpt lat="63.35982017" lon="10.23431933">
        <ele>209.4</ele>
        <time>1970-01-01T01:00:00Z</time>
      </trkpt>
      <trkpt lat="63.35979417" lon="10.234297">
        <ele>209.4</ele>
        <time>1970-01-01T01:00:00Z</time>
      </trkpt>
      <trkpt lat="63.359768" lon="10.23427533">
        <ele>209.553</ele>
        <time>1970-01-01T01:00:00Z</time>
      </trkpt>
      <trkpt lat="63.35973767" lon="10.2342555">
        <ele>209.553</ele>
        <time>1970-01-01T01:00:00Z</time>
      </trkpt>
      <trkpt lat="63.359707" lon="10.23423833">
        <ele>209.553</ele>
        <time>1970-01-01T01:00:00Z</time>
      </trkpt>
      <trkpt lat="63.35967567" lon="10.2342255">
        <ele>209.553</ele>
        <time>1970-01-01T01:00:00Z</time>
      </trkpt>
      <trkpt lat="63.35964467" lon="10.23421217">
        <ele>209.705</ele>
        <time>1970-01-01T01:00:00Z</time>
      </trkpt>
      <trkpt lat="63.3596135" lon="10.2342015">
        <ele>209.705</ele>
        <time>1970-01-01T01:00:00Z</time>
      </trkpt>
      <trkpt lat="63.359583" lon="10.23418983">
        <ele>209.705</ele>
        <time>1970-01-01T01:00:00Z</time>
      </trkpt>
      <trkpt lat="63.35955367" lon="10.2341815">
        <ele>209.705</ele>
        <time>1970-01-01T01:00:00Z</time>
      </trkpt>
      <trkpt lat="63.3595245" lon="10.2341715">
        <ele>209.705</ele>
        <time>1970-01-01T01:00:00Z</time>
      </trkpt>
      <trkpt lat="63.3594935" lon="10.23416333">
        <ele>209.705</ele>
        <time>1970-01-01T01:00:00Z</time>
      </trkpt>
      <trkpt lat="63.359461" lon="10.23415667">
        <ele>209.553</ele>
        <time>1970-01-01T01:00:00Z</time>
      </trkpt>
      <trkpt lat="63.359428" lon="10.23414983">
        <ele>209.553</ele>
        <time>1970-01-01T01:00:00Z</time>
      </trkpt>
      <trkpt lat="63.35939667" lon="10.234146">
        <ele>209.553</ele>
        <time>1970-01-01T01:00:00Z</time>
      </trkpt>
      <trkpt lat="63.35936883" lon="10.23413733">
        <ele>209.553</ele>
        <time>1970-01-01T01:00:00Z</time>
      </trkpt>
      <trkpt lat="63.35934433" lon="10.23412767">
        <ele>209.553</ele>
        <time>1970-01-01T01:00:00Z</time>
      </trkpt>
      <trkpt lat="63.35932233" lon="10.23411833">
        <ele>209.553</ele>
        <time>1970-01-01T01:00:00Z</time>
      </trkpt>
      <trkpt lat="63.35930033" lon="10.23411517">
        <ele>209.553</ele>
        <time>1970-01-01T01:00:00Z</time>
      </trkpt>
      <trkpt lat="63.35927783" lon="10.23411767">
        <ele>209.553</ele>
        <time>1970-01-01T01:00:00Z</time>
      </trkpt>
      <trkpt lat="63.3592515" lon="10.2341165">
        <ele>209.553</ele>
        <time>1970-01-01T01:00:00Z</time>
      </trkpt>
      <trkpt lat="63.35922417" lon="10.234111">
        <ele>209.553</ele>
        <time>1970-01-01T01:00:00Z</time>
      </trkpt>
      <trkpt lat="63.35919383" lon="10.234102">
        <ele>209.553</ele>
        <time>1970-01-01T01:00:00Z</time>
      </trkpt>
      <trkpt lat="63.35916417" lon="10.23409283">
        <ele>209.553</ele>
        <time>1970-01-01T01:00:00Z</time>
      </trkpt>
      <trkpt lat="63.3591315" lon="10.2340865">
        <ele>209.553</ele>
        <time>1970-01-01T01:00:00Z</time>
      </trkpt>
      <trkpt lat="63.35909967" lon="10.23408633">
        <ele>209.553</ele>
        <time>1970-01-01T01:00:00Z</time>
      </trkpt>
      <trkpt lat="63.35906717" lon="10.23408567">
        <ele>209.553</ele>
        <time>1970-01-01T01:00:00Z</time>
      </trkpt>
      <trkpt lat="63.35903817" lon="10.234084">
        <ele>209.553</ele>
        <time>1970-01-01T01:00:00Z</time>
      </trkpt>
      <trkpt lat="63.3590095" lon="10.23407633">
        <ele>209.553</ele>
        <time>1970-01-01T01:00:00Z</time>
      </trkpt>
      <trkpt lat="63.35898233" lon="10.23406917">
        <ele>209.553</ele>
        <time>1970-01-01T01:00:00Z</time>
      </trkpt>
      <trkpt lat="63.3589545" lon="10.234062">
        <ele>209.4</ele>
        <time>1970-01-01T01:00:00Z</time>
      </trkpt>
      <trkpt lat="63.3589285" lon="10.234053">
        <ele>209.4</ele>
        <time>1970-01-01T01:00:00Z</time>
      </trkpt>
      <trkpt lat="63.3589045" lon="10.23404517">
        <ele>209.4</ele>
        <time>1970-01-01T01:00:00Z</time>
      </trkpt>
      <trkpt lat="63.35888" lon="10.23404033">
        <ele>209.4</ele>
        <time>1970-01-01T01:00:00Z</time>
      </trkpt>
      <trkpt lat="63.358854" lon="10.23403983">
        <ele>209.248</ele>
        <time>1970-01-01T01:00:00Z</time>
      </trkpt>
      <trkpt lat="63.35882733" lon="10.234043">
        <ele>209.248</ele>
        <time>1970-01-01T01:00:00Z</time>
      </trkpt>
      <trkpt lat="63.35879983" lon="10.23404333">
        <ele>209.248</ele>
        <time>1970-01-01T01:00:00Z</time>
      </trkpt>
      <trkpt lat="63.3587735" lon="10.23404517">
        <ele>209.248</ele>
        <time>1970-01-01T01:00:00Z</time>
      </trkpt>
      <trkpt lat="63.35874383" lon="10.23404117">
        <ele>209.248</ele>
        <time>1970-01-01T01:00:00Z</time>
      </trkpt>
      <trkpt lat="63.35871667" lon="10.23404017">
        <ele>209.248</ele>
        <time>1970-01-01T01:00:00Z</time>
      </trkpt>
      <trkpt lat="63.35868767" lon="10.23404083">
        <ele>209.095</ele>
        <time>1970-01-01T01:00:00Z</time>
      </trkpt>
      <trkpt lat="63.3586605" lon="10.23405">
        <ele>209.095</ele>
        <time>1970-01-01T01:00:00Z</time>
      </trkpt>
      <trkpt lat="63.3586325" lon="10.23406017">
        <ele>209.095</ele>
        <time>1970-01-01T01:00:00Z</time>
      </trkpt>
      <trkpt lat="63.3586055" lon="10.2340765">
        <ele>209.095</ele>
        <time>1970-01-01T01:00:00Z</time>
      </trkpt>
      <trkpt lat="63.3585805" lon="10.23409733">
        <ele>209.095</ele>
        <time>1970-01-01T01:00:00Z</time>
      </trkpt>
      <trkpt lat="63.358556" lon="10.2341285">
        <ele>209.095</ele>
        <time>1970-01-01T01:00:00Z</time>
      </trkpt>
      <trkpt lat="63.3585335" lon="10.23416183">
        <ele>209.095</ele>
        <time>1970-01-01T01:00:00Z</time>
      </trkpt>
      <trkpt lat="63.3585135" lon="10.2342005">
        <ele>209.095</ele>
        <time>1970-01-01T01:00:00Z</time>
      </trkpt>
      <trkpt lat="63.35849783" lon="10.23424867">
        <ele>209.095</ele>
        <time>1970-01-01T01:00:00Z</time>
      </trkpt>
      <trkpt lat="63.35848417" lon="10.23430133">
        <ele>209.095</ele>
        <time>1970-01-01T01:00:00Z</time>
      </trkpt>
      <trkpt lat="63.35847117" lon="10.2343595">
        <ele>209.095</ele>
        <time>1970-01-01T01:00:00Z</time>
      </trkpt>
      <trkpt lat="63.3584585" lon="10.234415">
        <ele>209.095</ele>
        <time>1970-01-01T01:00:00Z</time>
      </trkpt>
      <trkpt lat="63.35844467" lon="10.2344725">
        <ele>208.943</ele>
        <time>1970-01-01T01:00:00Z</time>
      </trkpt>
      <trkpt lat="63.35843083" lon="10.23452817">
        <ele>208.943</ele>
        <time>1970-01-01T01:00:00Z</time>
      </trkpt>
      <trkpt lat="63.3584155" lon="10.23458333">
        <ele>208.943</ele>
        <time>1970-01-01T01:00:00Z</time>
      </trkpt>
      <trkpt lat="63.35840283" lon="10.23463817">
        <ele>208.943</ele>
        <time>1970-01-01T01:00:00Z</time>
      </trkpt>
      <trkpt lat="63.358391" lon="10.2346935">
        <ele>208.943</ele>
        <time>1970-01-01T01:00:00Z</time>
      </trkpt>
      <trkpt lat="63.35838033" lon="10.23474683">
        <ele>208.943</ele>
        <time>1970-01-01T01:00:00Z</time>
      </trkpt>
      <trkpt lat="63.35837033" lon="10.2348">
        <ele>208.943</ele>
        <time>1970-01-01T01:00:00Z</time>
      </trkpt>
      <trkpt lat="63.35836017" lon="10.23485567">
        <ele>208.943</ele>
        <time>1970-01-01T01:00:00Z</time>
      </trkpt>
      <trkpt lat="63.35835217" lon="10.2349135">
        <ele>208.943</ele>
        <time>1970-01-01T01:00:00Z</time>
      </trkpt>
      <trkpt lat="63.35834233" lon="10.234974">
        <ele>208.943</ele>
        <time>1970-01-01T01:00:00Z</time>
      </trkpt>
      <trkpt lat="63.358333" lon="10.23503233">
        <ele>208.943</ele>
        <time>1970-01-01T01:00:00Z</time>
      </trkpt>
      <trkpt lat="63.35832417" lon="10.23509133">
        <ele>208.943</ele>
        <time>1970-01-01T01:00:00Z</time>
      </trkpt>
      <trkpt lat="63.35831633" lon="10.23515033">
        <ele>208.943</ele>
        <time>1970-01-01T01:00:00Z</time>
      </trkpt>
      <trkpt lat="63.35830733" lon="10.23521033">
        <ele>208.943</ele>
        <time>1970-01-01T01:00:00Z</time>
      </trkpt>
      <trkpt lat="63.358297" lon="10.23526983">
        <ele>208.943</ele>
        <time>1970-01-01T01:00:00Z</time>
      </trkpt>
      <trkpt lat="63.35828817" lon="10.235327">
        <ele>208.943</ele>
        <time>1970-01-01T01:00:00Z</time>
      </trkpt>
      <trkpt lat="63.3582805" lon="10.2353815">
        <ele>208.943</ele>
        <time>1970-01-01T01:00:00Z</time>
      </trkpt>
      <trkpt lat="63.35827483" lon="10.23543317">
        <ele>208.943</ele>
        <time>1970-01-01T01:00:00Z</time>
      </trkpt>
      <trkpt lat="63.35827133" lon="10.2354765">
        <ele>208.943</ele>
        <time>1970-01-01T01:00:00Z</time>
      </trkpt>
      <trkpt lat="63.35827" lon="10.23551967">
        <ele>208.943</ele>
        <time>1970-01-01T01:00:00Z</time>
      </trkpt>
      <trkpt lat="63.35826933" lon="10.23556">
        <ele>209.095</ele>
        <time>1970-01-01T01:00:00Z</time>
      </trkpt>
      <trkpt lat="63.35826917" lon="10.235605">
        <ele>209.095</ele>
        <time>1970-01-01T01:00:00Z</time>
      </trkpt>
      <trkpt lat="63.35826667" lon="10.23564833">
        <ele>209.095</ele>
        <time>1970-01-01T01:00:00Z</time>
      </trkpt>
      <trkpt lat="63.35826233" lon="10.23568983">
        <ele>209.095</ele>
        <time>1970-01-01T01:00:00Z</time>
      </trkpt>
      <trkpt lat="63.358255" lon="10.23572933">
        <ele>209.248</ele>
        <time>1970-01-01T01:00:00Z</time>
      </trkpt>
      <trkpt lat="63.358251" lon="10.235768">
        <ele>209.248</ele>
        <time>1970-01-01T01:00:00Z</time>
      </trkpt>
      <trkpt lat="63.35824833" lon="10.23580833">
        <ele>209.4</ele>
        <time>1970-01-01T01:00:00Z</time>
      </trkpt>
      <trkpt lat="63.35824683" lon="10.235856">
        <ele>209.4</ele>
        <time>1970-01-01T01:00:00Z</time>
      </trkpt>
      <trkpt lat="63.358243" lon="10.2359095">
        <ele>209.553</ele>
        <time>1970-01-01T01:00:00Z</time>
      </trkpt>
      <trkpt lat="63.35823333" lon="10.2359725">
        <ele>209.553</ele>
        <time>1970-01-01T01:00:00Z</time>
      </trkpt>
      <trkpt lat="63.358219" lon="10.236034">
        <ele>209.705</ele>
        <time>1970-01-01T01:00:00Z</time>
      </trkpt>
      <trkpt lat="63.35820217" lon="10.236091">
        <ele>209.705</ele>
        <time>1970-01-01T01:00:00Z</time>
      </trkpt>
      <trkpt lat="63.35819033" lon="10.23614217">
        <ele>209.857</ele>
        <time>1970-01-01T01:00:00Z</time>
      </trkpt>
      <trkpt lat="63.3581815" lon="10.23619317">
        <ele>209.857</ele>
        <time>1970-01-01T01:00:00Z</time>
      </trkpt>
      <trkpt lat="63.35817467" lon="10.23624267">
        <ele>210.01</ele>
        <time>1970-01-01T01:00:00Z</time>
      </trkpt>
      <trkpt lat="63.358167" lon="10.2362975">
        <ele>210.01</ele>
        <time>1970-01-01T01:00:00Z</time>
      </trkpt>
      <trkpt lat="63.35815933" lon="10.23634933">
        <ele>210.01</ele>
        <time>1970-01-01T01:00:00Z</time>
      </trkpt>
      <trkpt lat="63.35815217" lon="10.23640483">
        <ele>210.01</ele>
        <time>1970-01-01T01:00:00Z</time>
      </trkpt>
      <trkpt lat="63.35814783" lon="10.236456">
        <ele>210.162</ele>
        <time>1970-01-01T01:00:00Z</time>
      </trkpt>
      <trkpt lat="63.358144" lon="10.23650917">
        <ele>210.162</ele>
        <time>1970-01-01T01:00:00Z</time>
      </trkpt>
      <trkpt lat="63.35813883" lon="10.23656183">
        <ele>210.315</ele>
        <time>1970-01-01T01:00:00Z</time>
      </trkpt>
      <trkpt lat="63.358132" lon="10.2366125">
        <ele>210.315</ele>
        <time>1970-01-01T01:00:00Z</time>
      </trkpt>
      <trkpt lat="63.35812633" lon="10.23666183">
        <ele>210.467</ele>
        <time>1970-01-01T01:00:00Z</time>
      </trkpt>
      <trkpt lat="63.35812217" lon="10.23671133">
        <ele>210.467</ele>
        <time>1970-01-01T01:00:00Z</time>
      </trkpt>
      <trkpt lat="63.35811833" lon="10.23676433">
        <ele>210.619</ele>
        <time>1970-01-01T01:00:00Z</time>
      </trkpt>
      <trkpt lat="63.35811233" lon="10.23682033">
        <ele>210.619</ele>
        <time>1970-01-01T01:00:00Z</time>
      </trkpt>
      <trkpt lat="63.35810667" lon="10.2368775">
        <ele>210.619</ele>
        <time>1970-01-01T01:00:00Z</time>
      </trkpt>
      <trkpt lat="63.35810183" lon="10.23693567">
        <ele>210.619</ele>
        <time>1970-01-01T01:00:00Z</time>
      </trkpt>
      <trkpt lat="63.3580985" lon="10.23699617">
        <ele>210.772</ele>
        <time>1970-01-01T01:00:00Z</time>
      </trkpt>
      <trkpt lat="63.358094" lon="10.2370565">
        <ele>210.772</ele>
        <time>1970-01-01T01:00:00Z</time>
      </trkpt>
      <trkpt lat="63.35808567" lon="10.23712067">
        <ele>210.924</ele>
        <time>1970-01-01T01:00:00Z</time>
      </trkpt>
      <trkpt lat="63.3580765" lon="10.23717483">
        <ele>210.924</ele>
        <time>1970-01-01T01:00:00Z</time>
      </trkpt>
      <trkpt lat="63.35806583" lon="10.23723233">
        <ele>211.077</ele>
        <time>1970-01-01T01:00:00Z</time>
      </trkpt>
      <trkpt lat="63.358055" lon="10.237284">
        <ele>211.077</ele>
        <time>1970-01-01T01:00:00Z</time>
      </trkpt>
      <trkpt lat="63.35804433" lon="10.23734183">
        <ele>211.381</ele>
        <time>1970-01-01T01:00:00Z</time>
      </trkpt>
      <trkpt lat="63.3580315" lon="10.2373995">
        <ele>211.381</ele>
        <time>1970-01-01T01:00:00Z</time>
      </trkpt>
      <trkpt lat="63.35801933" lon="10.23745433">
        <ele>211.534</ele>
        <time>1970-01-01T01:00:00Z</time>
      </trkpt>
      <trkpt lat="63.35800667" lon="10.23750833">
        <ele>211.534</ele>
        <time>1970-01-01T01:00:00Z</time>
      </trkpt>
      <trkpt lat="63.357995" lon="10.23755767">
        <ele>211.686</ele>
        <time>1970-01-01T01:00:00Z</time>
      </trkpt>
      <trkpt lat="63.35798417" lon="10.23760483">
        <ele>211.686</ele>
        <time>1970-01-01T01:00:00Z</time>
      </trkpt>
      <trkpt lat="63.35797233" lon="10.23765133">
        <ele>211.839</ele>
        <time>1970-01-01T01:00:00Z</time>
      </trkpt>
      <trkpt lat="63.35796183" lon="10.23769867">
        <ele>211.839</ele>
        <time>1970-01-01T01:00:00Z</time>
      </trkpt>
      <trkpt lat="63.35795033" lon="10.23775167">
        <ele>211.991</ele>
        <time>1970-01-01T01:00:00Z</time>
      </trkpt>
      <trkpt lat="63.3579425" lon="10.237805">
        <ele>211.991</ele>
        <time>1970-01-01T01:00:00Z</time>
      </trkpt>
      <trkpt lat="63.35793417" lon="10.23785367">
        <ele>212.296</ele>
        <time>1970-01-01T01:00:00Z</time>
      </trkpt>
      <trkpt lat="63.3579255" lon="10.23790267">
        <ele>212.296</ele>
        <time>1970-01-01T01:00:00Z</time>
      </trkpt>
      <trkpt lat="63.35791517" lon="10.23794933">
        <ele>212.448</ele>
        <time>1970-01-01T01:00:00Z</time>
      </trkpt>
      <trkpt lat="63.3579065" lon="10.23800017">
        <ele>212.448</ele>
        <time>1970-01-01T01:00:00Z</time>
      </trkpt>
      <trkpt lat="63.3578995" lon="10.23804617">
        <ele>212.753</ele>
        <time>1970-01-01T01:00:00Z</time>
      </trkpt>
      <trkpt lat="63.35789233" lon="10.238093">
        <ele>212.753</ele>
        <time>1970-01-01T01:00:00Z</time>
      </trkpt>
      <trkpt lat="63.35788267" lon="10.2381385">
        <ele>213.058</ele>
        <time>1970-01-01T01:00:00Z</time>
      </trkpt>
      <trkpt lat="63.357872" lon="10.23818583">
        <ele>213.058</ele>
        <time>1970-01-01T01:00:00Z</time>
      </trkpt>
      <trkpt lat="63.35785983" lon="10.23823483">
        <ele>213.21</ele>
        <time>1970-01-01T01:00:00Z</time>
      </trkpt>
      <trkpt lat="63.35784967" lon="10.23828267">
        <ele>213.21</ele>
        <time>1970-01-01T01:00:00Z</time>
      </trkpt>
      <trkpt lat="63.35784033" lon="10.23833033">
        <ele>213.515</ele>
        <time>1970-01-01T01:00:00Z</time>
      </trkpt>
      <trkpt lat="63.35782967" lon="10.23838167">
        <ele>213.515</ele>
        <time>1970-01-01T01:00:00Z</time>
      </trkpt>
      <trkpt lat="63.35781783" lon="10.238439">
        <ele>213.82</ele>
        <time>1970-01-01T01:00:00Z</time>
      </trkpt>
      <trkpt lat="63.35780067" lon="10.2385">
        <ele>213.82</ele>
        <time>1970-01-01T01:00:00Z</time>
      </trkpt>
      <trkpt lat="63.357784" lon="10.23855933">
        <ele>213.972</ele>
        <time>1970-01-01T01:00:00Z</time>
      </trkpt>
      <trkpt lat="63.357767" lon="10.2386175">
        <ele>213.972</ele>
        <time>1970-01-01T01:00:00Z</time>
      </trkpt>
      <trkpt lat="63.3577545" lon="10.23867033">
        <ele>214.277</ele>
        <time>1970-01-01T01:00:00Z</time>
      </trkpt>
      <trkpt lat="63.35774417" lon="10.238722">
        <ele>214.277</ele>
        <time>1970-01-01T01:00:00Z</time>
      </trkpt>
      <trkpt lat="63.35773467" lon="10.23877483">
        <ele>214.429</ele>
        <time>1970-01-01T01:00:00Z</time>
      </trkpt>
      <trkpt lat="63.3577245" lon="10.23883183">
        <ele>214.429</ele>
        <time>1970-01-01T01:00:00Z</time>
      </trkpt>
      <trkpt lat="63.35771317" lon="10.238889">
        <ele>214.582</ele>
        <time>1970-01-01T01:00:00Z</time>
      </trkpt>
      <trkpt lat="63.3577025" lon="10.23894417">
        <ele>214.582</ele>
        <time>1970-01-01T01:00:00Z</time>
      </trkpt>
      <trkpt lat="63.35769183" lon="10.23899817">
        <ele>214.887</ele>
        <time>1970-01-01T01:00:00Z</time>
      </trkpt>
      <trkpt lat="63.35768283" lon="10.23904967">
        <ele>214.887</ele>
        <time>1970-01-01T01:00:00Z</time>
      </trkpt>
      <trkpt lat="63.35767333" lon="10.239106">
        <ele>215.039</ele>
        <time>1970-01-01T01:00:00Z</time>
      </trkpt>
      <trkpt lat="63.35766483" lon="10.23916433">
        <ele>215.039</ele>
        <time>1970-01-01T01:00:00Z</time>
      </trkpt>
      <trkpt lat="63.35765583" lon="10.2392255">
        <ele>215.191</ele>
        <time>1970-01-01T01:00:00Z</time>
      </trkpt>
      <trkpt lat="63.35765017" lon="10.23928917">
        <ele>215.191</ele>
        <time>1970-01-01T01:00:00Z</time>
      </trkpt>
      <trkpt lat="63.3576455" lon="10.23935133">
        <ele>215.344</ele>
        <time>1970-01-01T01:00:00Z</time>
      </trkpt>
      <trkpt lat="63.35764217" lon="10.2394135">
        <ele>215.344</ele>
        <time>1970-01-01T01:00:00Z</time>
      </trkpt>
      <trkpt lat="63.35763883" lon="10.2394685">
        <ele>215.496</ele>
        <time>1970-01-01T01:00:00Z</time>
      </trkpt>
      <trkpt lat="63.35763517" lon="10.23952417">
        <ele>215.496</ele>
        <time>1970-01-01T01:00:00Z</time>
      </trkpt>
      <trkpt lat="63.357632" lon="10.23957883">
        <ele>215.801</ele>
        <time>1970-01-01T01:00:00Z</time>
      </trkpt>
      <trkpt lat="63.357625" lon="10.2396305">
        <ele>215.801</ele>
        <time>1970-01-01T01:00:00Z</time>
      </trkpt>
      <trkpt lat="63.35761017" lon="10.23967983">
        <ele>215.953</ele>
        <time>1970-01-01T01:00:00Z</time>
      </trkpt>
      <trkpt lat="63.357592" lon="10.23972917">
        <ele>215.953</ele>
        <time>1970-01-01T01:00:00Z</time>
      </trkpt>
      <trkpt lat="63.35757517" lon="10.23977933">
        <ele>216.258</ele>
        <time>1970-01-01T01:00:00Z</time>
      </trkpt>
      <trkpt lat="63.35756383" lon="10.23982933">
        <ele>216.258</ele>
        <time>1970-01-01T01:00:00Z</time>
      </trkpt>
      <trkpt lat="63.3575535" lon="10.23987333">
        <ele>216.411</ele>
        <time>1970-01-01T01:00:00Z</time>
      </trkpt>
      <trkpt lat="63.35754433" lon="10.23991567">
        <ele>216.411</ele>
        <time>1970-01-01T01:00:00Z</time>
      </trkpt>
      <trkpt lat="63.35753733" lon="10.23995617">
        <ele>216.411</ele>
        <time>1970-01-01T01:00:00Z</time>
      </trkpt>
      <trkpt lat="63.35753133" lon="10.24000083">
        <ele>216.411</ele>
        <time>1970-01-01T01:00:00Z</time>
      </trkpt>
      <trkpt lat="63.35752467" lon="10.240053">
        <ele>216.563</ele>
        <time>1970-01-01T01:00:00Z</time>
      </trkpt>
      <trkpt lat="63.357517" lon="10.24010967">
        <ele>216.563</ele>
        <time>1970-01-01T01:00:00Z</time>
      </trkpt>
      <trkpt lat="63.35751083" lon="10.24016983">
        <ele>216.715</ele>
        <time>1970-01-01T01:00:00Z</time>
      </trkpt>
      <trkpt lat="63.3575045" lon="10.2402265">
        <ele>216.715</ele>
        <time>1970-01-01T01:00:00Z</time>
      </trkpt>
      <trkpt lat="63.35750083" lon="10.240281">
        <ele>216.868</ele>
        <time>1970-01-01T01:00:00Z</time>
      </trkpt>
      <trkpt lat="63.35749733" lon="10.24033717">
        <ele>216.868</ele>
        <time>1970-01-01T01:00:00Z</time>
      </trkpt>
      <trkpt lat="63.35749567" lon="10.2403975">
        <ele>216.868</ele>
        <time>1970-01-01T01:00:00Z</time>
      </trkpt>
      <trkpt lat="63.357491" lon="10.24045917">
        <ele>216.868</ele>
        <time>1970-01-01T01:00:00Z</time>
      </trkpt>
      <trkpt lat="63.357486" lon="10.24051767">
        <ele>217.02</ele>
        <time>1970-01-01T01:00:00Z</time>
      </trkpt>
      <trkpt lat="63.35748" lon="10.2405765">
        <ele>217.02</ele>
        <time>1970-01-01T01:00:00Z</time>
      </trkpt>
      <trkpt lat="63.3574765" lon="10.2406365">
        <ele>217.173</ele>
        <time>1970-01-01T01:00:00Z</time>
      </trkpt>
      <trkpt lat="63.357472" lon="10.24070033">
        <ele>217.173</ele>
        <time>1970-01-01T01:00:00Z</time>
      </trkpt>
      <trkpt lat="63.35746983" lon="10.24076333">
        <ele>217.325</ele>
        <time>1970-01-01T01:00:00Z</time>
      </trkpt>
      <trkpt lat="63.357467" lon="10.240832">
        <ele>217.325</ele>
        <time>1970-01-01T01:00:00Z</time>
      </trkpt>
      <trkpt lat="63.35746417" lon="10.24090467">
        <ele>217.325</ele>
        <time>1970-01-01T01:00:00Z</time>
      </trkpt>
      <trkpt lat="63.35746017" lon="10.24097867">
        <ele>217.325</ele>
        <time>1970-01-01T01:00:00Z</time>
      </trkpt>
      <trkpt lat="63.3574555" lon="10.24104933">
        <ele>217.477</ele>
        <time>1970-01-01T01:00:00Z</time>
      </trkpt>
      <trkpt lat="63.3574515" lon="10.24111417">
        <ele>217.477</ele>
        <time>1970-01-01T01:00:00Z</time>
      </trkpt>
      <trkpt lat="63.357447" lon="10.24118233">
        <ele>217.477</ele>
        <time>1970-01-01T01:00:00Z</time>
      </trkpt>
      <trkpt lat="63.35744383" lon="10.24125017">
        <ele>217.477</ele>
        <time>1970-01-01T01:00:00Z</time>
      </trkpt>
      <trkpt lat="63.35744133" lon="10.2413215">
        <ele>217.477</ele>
        <time>1970-01-01T01:00:00Z</time>
      </trkpt>
      <trkpt lat="63.3574385" lon="10.24139117">
        <ele>217.477</ele>
        <time>1970-01-01T01:00:00Z</time>
      </trkpt>
      <trkpt lat="63.35743817" lon="10.24145867">
        <ele>217.477</ele>
        <time>1970-01-01T01:00:00Z</time>
      </trkpt>
      <trkpt lat="63.357439" lon="10.24152833">
        <ele>217.477</ele>
        <time>1970-01-01T01:00:00Z</time>
      </trkpt>
      <trkpt lat="63.35744317" lon="10.2415955">
        <ele>217.477</ele>
        <time>1970-01-01T01:00:00Z</time>
      </trkpt>
      <trkpt lat="63.3574485" lon="10.241668">
        <ele>217.477</ele>
        <time>1970-01-01T01:00:00Z</time>
      </trkpt>
      <trkpt lat="63.3574535" lon="10.24173583">
        <ele>217.477</ele>
        <time>1970-01-01T01:00:00Z</time>
      </trkpt>
      <trkpt lat="63.35745733" lon="10.24180667">
        <ele>217.477</ele>
        <time>1970-01-01T01:00:00Z</time>
      </trkpt>
      <trkpt lat="63.357461" lon="10.24187317">
        <ele>217.477</ele>
        <time>1970-01-01T01:00:00Z</time>
      </trkpt>
      <trkpt lat="63.35746767" lon="10.24193883">
        <ele>217.477</ele>
        <time>1970-01-01T01:00:00Z</time>
      </trkpt>
      <trkpt lat="63.35747717" lon="10.2420005">
        <ele>217.325</ele>
        <time>1970-01-01T01:00:00Z</time>
      </trkpt>
      <trkpt lat="63.35748467" lon="10.24206067">
        <ele>217.325</ele>
        <time>1970-01-01T01:00:00Z</time>
      </trkpt>
      <trkpt lat="63.35748967" lon="10.2421255">
        <ele>217.477</ele>
        <time>1970-01-01T01:00:00Z</time>
      </trkpt>
      <trkpt lat="63.35749167" lon="10.24218933">
        <ele>217.477</ele>
        <time>1970-01-01T01:00:00Z</time>
      </trkpt>
      <trkpt lat="63.35749783" lon="10.24225833">
        <ele>217.477</ele>
        <time>1970-01-01T01:00:00Z</time>
      </trkpt>
      <trkpt lat="63.35750683" lon="10.24231917">
        <ele>217.477</ele>
        <time>1970-01-01T01:00:00Z</time>
      </trkpt>
      <trkpt lat="63.35751933" lon="10.24238067">
        <ele>217.477</ele>
        <time>1970-01-01T01:00:00Z</time>
      </trkpt>
      <trkpt lat="63.357531" lon="10.24244333">
        <ele>217.477</ele>
        <time>1970-01-01T01:00:00Z</time>
      </trkpt>
      <trkpt lat="63.35754217" lon="10.242509">
        <ele>217.477</ele>
        <time>1970-01-01T01:00:00Z</time>
      </trkpt>
      <trkpt lat="63.357554" lon="10.2425775">
        <ele>217.477</ele>
        <time>1970-01-01T01:00:00Z</time>
      </trkpt>
      <trkpt lat="63.3575655" lon="10.24264217">
        <ele>217.63</ele>
        <time>1970-01-01T01:00:00Z</time>
      </trkpt>
      <trkpt lat="63.35757433" lon="10.2427085">
        <ele>217.63</ele>
        <time>1970-01-01T01:00:00Z</time>
      </trkpt>
      <trkpt lat="63.35758067" lon="10.242777">
        <ele>217.63</ele>
        <time>1970-01-01T01:00:00Z</time>
      </trkpt>
      <trkpt lat="63.35758817" lon="10.24284783">
        <ele>217.63</ele>
        <time>1970-01-01T01:00:00Z</time>
      </trkpt>
      <trkpt lat="63.35759967" lon="10.24292217">
        <ele>217.782</ele>
        <time>1970-01-01T01:00:00Z</time>
      </trkpt>
      <trkpt lat="63.35761117" lon="10.24299133">
        <ele>217.782</ele>
        <time>1970-01-01T01:00:00Z</time>
      </trkpt>
      <trkpt lat="63.35762183" lon="10.2430595">
        <ele>217.935</ele>
        <time>1970-01-01T01:00:00Z</time>
      </trkpt>
      <trkpt lat="63.35762983" lon="10.24311967">
        <ele>217.935</ele>
        <time>1970-01-01T01:00:00Z</time>
      </trkpt>
      <trkpt lat="63.35763817" lon="10.2431825">
        <ele>217.935</ele>
        <time>1970-01-01T01:00:00Z</time>
      </trkpt>
      <trkpt lat="63.35764867" lon="10.24324017">
        <ele>217.935</ele>
        <time>1970-01-01T01:00:00Z</time>
      </trkpt>
      <trkpt lat="63.3576615" lon="10.24329783">
        <ele>218.087</ele>
        <time>1970-01-01T01:00:00Z</time>
      </trkpt>
      <trkpt lat="63.35767667" lon="10.243352">
        <ele>218.087</ele>
        <time>1970-01-01T01:00:00Z</time>
      </trkpt>
      <trkpt lat="63.35769367" lon="10.24340283">
        <ele>218.087</ele>
        <time>1970-01-01T01:00:00Z</time>
      </trkpt>
      <trkpt lat="63.35771417" lon="10.24345167">
        <ele>218.087</ele>
        <time>1970-01-01T01:00:00Z</time>
      </trkpt>
      <trkpt lat="63.35773433" lon="10.243497">
        <ele>218.087</ele>
        <time>1970-01-01T01:00:00Z</time>
      </trkpt>
      <trkpt lat="63.35775617" lon="10.243541">
        <ele>218.087</ele>
        <time>1970-01-01T01:00:00Z</time>
      </trkpt>
      <trkpt lat="63.3577765" lon="10.24358317">
        <ele>218.087</ele>
        <time>1970-01-01T01:00:00Z</time>
      </trkpt>
      <trkpt lat="63.35779783" lon="10.24362317">
        <ele>218.087</ele>
        <time>1970-01-01T01:00:00Z</time>
      </trkpt>
      <trkpt lat="63.35781983" lon="10.24366033">
        <ele>217.935</ele>
        <time>1970-01-01T01:00:00Z</time>
      </trkpt>
      <trkpt lat="63.357844" lon="10.24369533">
        <ele>217.935</ele>
        <time>1970-01-01T01:00:00Z</time>
      </trkpt>
      <trkpt lat="63.35787167" lon="10.24372867">
        <ele>217.935</ele>
        <time>1970-01-01T01:00:00Z</time>
      </trkpt>
      <trkpt lat="63.35789833" lon="10.24376">
        <ele>217.935</ele>
        <time>1970-01-01T01:00:00Z</time>
      </trkpt>
      <trkpt lat="63.35792717" lon="10.24378883">
        <ele>217.782</ele>
        <time>1970-01-01T01:00:00Z</time>
      </trkpt>
      <trkpt lat="63.35795483" lon="10.24381017">
        <ele>217.782</ele>
        <time>1970-01-01T01:00:00Z</time>
      </trkpt>
      <trkpt lat="63.35798217" lon="10.243834">
        <ele>217.477</ele>
        <time>1970-01-01T01:00:00Z</time>
      </trkpt>
      <trkpt lat="63.35800833" lon="10.24386717">
        <ele>217.477</ele>
        <time>1970-01-01T01:00:00Z</time>
      </trkpt>
      <trkpt lat="63.35803467" lon="10.2439075">
        <ele>217.173</ele>
        <time>1970-01-01T01:00:00Z</time>
      </trkpt>
      <trkpt lat="63.3580625" lon="10.24395017">
        <ele>217.173</ele>
        <time>1970-01-01T01:00:00Z</time>
      </trkpt>
      <trkpt lat="63.35808983" lon="10.243991">
        <ele>216.868</ele>
        <time>1970-01-01T01:00:00Z</time>
      </trkpt>
      <trkpt lat="63.3581185" lon="10.2440425">
        <ele>216.868</ele>
        <time>1970-01-01T01:00:00Z</time>
      </trkpt>
      <trkpt lat="63.35814467" lon="10.2440935">
        <ele>216.563</ele>
        <time>1970-01-01T01:00:00Z</time>
      </trkpt>
      <trkpt lat="63.35817117" lon="10.2441455">
        <ele>216.563</ele>
        <time>1970-01-01T01:00:00Z</time>
      </trkpt>
      <trkpt lat="63.35819633" lon="10.24419033">
        <ele>216.258</ele>
        <time>1970-01-01T01:00:00Z</time>
      </trkpt>
      <trkpt lat="63.35822233" lon="10.244236">
        <ele>216.258</ele>
        <time>1970-01-01T01:00:00Z</time>
      </trkpt>
      <trkpt lat="63.3582485" lon="10.24427983">
        <ele>215.953</ele>
        <time>1970-01-01T01:00:00Z</time>
      </trkpt>
      <trkpt lat="63.35827733" lon="10.24432217">
        <ele>215.953</ele>
        <time>1970-01-01T01:00:00Z</time>
      </trkpt>
      <trkpt lat="63.35830633" lon="10.24435783">
        <ele>215.649</ele>
        <time>1970-01-01T01:00:00Z</time>
      </trkpt>
      <trkpt lat="63.3583345" lon="10.2443855">
        <ele>215.649</ele>
        <time>1970-01-01T01:00:00Z</time>
      </trkpt>
      <trkpt lat="63.35836167" lon="10.24440733">
        <ele>215.191</ele>
        <time>1970-01-01T01:00:00Z</time>
      </trkpt>
      <trkpt lat="63.35838867" lon="10.24443183">
        <ele>215.191</ele>
        <time>1970-01-01T01:00:00Z</time>
      </trkpt>
      <trkpt lat="63.35841733" lon="10.2444605">
        <ele>214.887</ele>
        <time>1970-01-01T01:00:00Z</time>
      </trkpt>
      <trkpt lat="63.358445" lon="10.24449017">
        <ele>214.887</ele>
        <time>1970-01-01T01:00:00Z</time>
      </trkpt>
      <trkpt lat="63.35847333" lon="10.24451283">
        <ele>214.582</ele>
        <time>1970-01-01T01:00:00Z</time>
      </trkpt>
      <trkpt lat="63.35849883" lon="10.24453567">
        <ele>214.582</ele>
        <time>1970-01-01T01:00:00Z</time>
      </trkpt>
      <trkpt lat="63.35852" lon="10.24455367">
        <ele>214.277</ele>
        <time>1970-01-01T01:00:00Z</time>
      </trkpt>
      <trkpt lat="63.35854117" lon="10.2445705">
        <ele>214.277</ele>
        <time>1970-01-01T01:00:00Z</time>
      </trkpt>
      <trkpt lat="63.3585645" lon="10.244578">
        <ele>214.125</ele>
        <time>1970-01-01T01:00:00Z</time>
      </trkpt>
      <trkpt lat="63.35859017" lon="10.24458717">
        <ele>214.125</ele>
        <time>1970-01-01T01:00:00Z</time>
      </trkpt>
      <trkpt lat="63.3586165" lon="10.24460817">
        <ele>213.82</ele>
        <time>1970-01-01T01:00:00Z</time>
      </trkpt>
      <trkpt lat="63.3586415" lon="10.24464317">
        <ele>213.82</ele>
        <time>1970-01-01T01:00:00Z</time>
      </trkpt>
      <trkpt lat="63.35866917" lon="10.24469333">
        <ele>213.667</ele>
        <time>1970-01-01T01:00:00Z</time>
      </trkpt>
      <trkpt lat="63.35869683" lon="10.24474833">
        <ele>213.667</ele>
        <time>1970-01-01T01:00:00Z</time>
      </trkpt>
      <trkpt lat="63.35872167" lon="10.24480517">
        <ele>213.515</ele>
        <time>1970-01-01T01:00:00Z</time>
      </trkpt>
      <trkpt lat="63.35874533" lon="10.24487533">
        <ele>213.515</ele>
        <time>1970-01-01T01:00:00Z</time>
      </trkpt>
      <trkpt lat="63.358767" lon="10.244952">
        <ele>213.363</ele>
        <time>1970-01-01T01:00:00Z</time>
      </trkpt>
      <trkpt lat="63.35879233" lon="10.24503017">
        <ele>213.363</ele>
        <time>1970-01-01T01:00:00Z</time>
      </trkpt>
      <trkpt lat="63.35881567" lon="10.24509567">
        <ele>213.21</ele>
        <time>1970-01-01T01:00:00Z</time>
      </trkpt>
      <trkpt lat="63.358837" lon="10.24515567">
        <ele>213.21</ele>
        <time>1970-01-01T01:00:00Z</time>
      </trkpt>
      <trkpt lat="63.3588555" lon="10.24521867">
        <ele>213.21</ele>
        <time>1970-01-01T01:00:00Z</time>
      </trkpt>
      <trkpt lat="63.35887267" lon="10.24527967">
        <ele>213.21</ele>
        <time>1970-01-01T01:00:00Z</time>
      </trkpt>
      <trkpt lat="63.35889017" lon="10.24534183">
        <ele>213.21</ele>
        <time>1970-01-01T01:00:00Z</time>
      </trkpt>
      <trkpt lat="63.3589085" lon="10.24540983">
        <ele>213.21</ele>
        <time>1970-01-01T01:00:00Z</time>
      </trkpt>
      <trkpt lat="63.3589275" lon="10.24548283">
        <ele>213.21</ele>
        <time>1970-01-01T01:00:00Z</time>
      </trkpt>
      <trkpt lat="63.35894533" lon="10.2455635">
        <ele>213.21</ele>
        <time>1970-01-01T01:00:00Z</time>
      </trkpt>
      <trkpt lat="63.35895867" lon="10.24563617">
        <ele>213.363</ele>
        <time>1970-01-01T01:00:00Z</time>
      </trkpt>
      <trkpt lat="63.35896167" lon="10.24570467">
        <ele>213.363</ele>
        <time>1970-01-01T01:00:00Z</time>
      </trkpt>
      <trkpt lat="63.358954" lon="10.24576767">
        <ele>213.515</ele>
        <time>1970-01-01T01:00:00Z</time>
      </trkpt>
      <trkpt lat="63.3589405" lon="10.24582783">
        <ele>213.515</ele>
        <time>1970-01-01T01:00:00Z</time>
      </trkpt>
      <trkpt lat="63.35892667" lon="10.2458885">
        <ele>213.515</ele>
        <time>1970-01-01T01:00:00Z</time>
      </trkpt>
      <trkpt lat="63.35891467" lon="10.245944">
        <ele>213.515</ele>
        <time>1970-01-01T01:00:00Z</time>
      </trkpt>
      <trkpt lat="63.3588975" lon="10.24600433">
        <ele>213.515</ele>
        <time>1970-01-01T01:00:00Z</time>
      </trkpt>
      <trkpt lat="63.35887667" lon="10.24606317">
        <ele>213.515</ele>
        <time>1970-01-01T01:00:00Z</time>
      </trkpt>
      <trkpt lat="63.35884417" lon="10.246115">
        <ele>213.363</ele>
        <time>1970-01-01T01:00:00Z</time>
      </trkpt>
      <trkpt lat="63.35880433" lon="10.24616283">
        <ele>213.363</ele>
        <time>1970-01-01T01:00:00Z</time>
      </trkpt>
      <trkpt lat="63.35876233" lon="10.246202">
        <ele>213.21</ele>
        <time>1970-01-01T01:00:00Z</time>
      </trkpt>
      <trkpt lat="63.35872233" lon="10.24624233">
        <ele>213.21</ele>
        <time>1970-01-01T01:00:00Z</time>
      </trkpt>
      <trkpt lat="63.358688" lon="10.24627833">
        <ele>212.753</ele>
        <time>1970-01-01T01:00:00Z</time>
      </trkpt>
      <trkpt lat="63.35865267" lon="10.246318">
        <ele>212.753</ele>
        <time>1970-01-01T01:00:00Z</time>
      </trkpt>
      <trkpt lat="63.35862" lon="10.24635333">
        <ele>212.296</ele>
        <time>1970-01-01T01:00:00Z</time>
      </trkpt>
      <trkpt lat="63.3585875" lon="10.24638367">
        <ele>212.296</ele>
        <time>1970-01-01T01:00:00Z</time>
      </trkpt>
      <trkpt lat="63.358555" lon="10.24641">
        <ele>211.839</ele>
        <time>1970-01-01T01:00:00Z</time>
      </trkpt>
      <trkpt lat="63.35852267" lon="10.24643867">
        <ele>211.839</ele>
        <time>1970-01-01T01:00:00Z</time>
      </trkpt>
      <trkpt lat="63.3584875" lon="10.24647333">
        <ele>211.381</ele>
        <time>1970-01-01T01:00:00Z</time>
      </trkpt>
      <trkpt lat="63.35845117" lon="10.24650617">
        <ele>211.381</ele>
        <time>1970-01-01T01:00:00Z</time>
      </trkpt>
      <trkpt lat="63.35841633" lon="10.24653633">
        <ele>210.924</ele>
        <time>1970-01-01T01:00:00Z</time>
      </trkpt>
      <trkpt lat="63.35838367" lon="10.24656083">
        <ele>210.924</ele>
        <time>1970-01-01T01:00:00Z</time>
      </trkpt>
      <trkpt lat="63.3583525" lon="10.2465865">
        <ele>210.315</ele>
        <time>1970-01-01T01:00:00Z</time>
      </trkpt>
      <trkpt lat="63.35832067" lon="10.24661367">
        <ele>210.315</ele>
        <time>1970-01-01T01:00:00Z</time>
      </trkpt>
      <trkpt lat="63.35828983" lon="10.24664517">
        <ele>209.705</ele>
        <time>1970-01-01T01:00:00Z</time>
      </trkpt>
      <trkpt lat="63.35826083" lon="10.24667383">
        <ele>209.705</ele>
        <time>1970-01-01T01:00:00Z</time>
      </trkpt>
      <trkpt lat="63.35823083" lon="10.24669867">
        <ele>209.248</ele>
        <time>1970-01-01T01:00:00Z</time>
      </trkpt>
      <trkpt lat="63.358202" lon="10.24671583">
        <ele>209.248</ele>
        <time>1970-01-01T01:00:00Z</time>
      </trkpt>
      <trkpt lat="63.3581725" lon="10.24672883">
        <ele>208.638</ele>
        <time>1970-01-01T01:00:00Z</time>
      </trkpt>
      <trkpt lat="63.35814433" lon="10.2467445">
        <ele>208.638</ele>
        <time>1970-01-01T01:00:00Z</time>
      </trkpt>
      <trkpt lat="63.3581125" lon="10.2467645">
        <ele>207.876</ele>
        <time>1970-01-01T01:00:00Z</time>
      </trkpt>
      <trkpt lat="63.35808033" lon="10.2467865">
        <ele>207.876</ele>
        <time>1970-01-01T01:00:00Z</time>
      </trkpt>
      <trkpt lat="63.35804733" lon="10.24680733">
        <ele>207.267</ele>
        <time>1970-01-01T01:00:00Z</time>
      </trkpt>
      <trkpt lat="63.35801583" lon="10.246826">
        <ele>207.267</ele>
        <time>1970-01-01T01:00:00Z</time>
      </trkpt>
      <trkpt lat="63.3579855" lon="10.2468485">
        <ele>206.505</ele>
        <time>1970-01-01T01:00:00Z</time>
      </trkpt>
      <trkpt lat="63.35795467" lon="10.24686983">
        <ele>206.505</ele>
        <time>1970-01-01T01:00:00Z</time>
      </trkpt>
      <trkpt lat="63.35792317" lon="10.246889">
        <ele>205.742</ele>
        <time>1970-01-01T01:00:00Z</time>
      </trkpt>
      <trkpt lat="63.35788867" lon="10.24690067">
        <ele>205.742</ele>
        <time>1970-01-01T01:00:00Z</time>
      </trkpt>
      <trkpt lat="63.3578545" lon="10.24690867">
        <ele>204.98</ele>
        <time>1970-01-01T01:00:00Z</time>
      </trkpt>
      <trkpt lat="63.35782217" lon="10.246914">
        <ele>204.98</ele>
        <time>1970-01-01T01:00:00Z</time>
      </trkpt>
      <trkpt lat="63.35779283" lon="10.24692083">
        <ele>204.218</ele>
        <time>1970-01-01T01:00:00Z</time>
      </trkpt>
      <trkpt lat="63.3577645" lon="10.246928">
        <ele>204.218</ele>
        <time>1970-01-01T01:00:00Z</time>
      </trkpt>
      <trkpt lat="63.35773717" lon="10.24693767">
        <ele>203.456</ele>
        <time>1970-01-01T01:00:00Z</time>
      </trkpt>
      <trkpt lat="63.35771117" lon="10.2469515">
        <ele>203.456</ele>
        <time>1970-01-01T01:00:00Z</time>
      </trkpt>
      <trkpt lat="63.35768517" lon="10.2469605">
        <ele>202.694</ele>
        <time>1970-01-01T01:00:00Z</time>
      </trkpt>
      <trkpt lat="63.357658" lon="10.24696517">
        <ele>202.694</ele>
        <time>1970-01-01T01:00:00Z</time>
      </trkpt>
      <trkpt lat="63.357628" lon="10.24696883">
        <ele>201.78</ele>
        <time>1970-01-01T01:00:00Z</time>
      </trkpt>
      <trkpt lat="63.35759583" lon="10.24698217">
        <ele>201.78</ele>
        <time>1970-01-01T01:00:00Z</time>
      </trkpt>
      <trkpt lat="63.35756267" lon="10.24700283">
        <ele>201.018</ele>
        <time>1970-01-01T01:00:00Z</time>
      </trkpt>
      <trkpt lat="63.35753067" lon="10.24702433">
        <ele>201.018</ele>
        <time>1970-01-01T01:00:00Z</time>
      </trkpt>
      <trkpt lat="63.35749867" lon="10.2470415">
        <ele>200.104</ele>
        <time>1970-01-01T01:00:00Z</time>
      </trkpt>
      <trkpt lat="63.357468" lon="10.24704733">
        <ele>200.104</ele>
        <time>1970-01-01T01:00:00Z</time>
      </trkpt>
      <trkpt lat="63.35743317" lon="10.2470465">
        <ele>199.342</ele>
        <time>1970-01-01T01:00:00Z</time>
      </trkpt>
      <trkpt lat="63.35739933" lon="10.24704283">
        <ele>199.342</ele>
        <time>1970-01-01T01:00:00Z</time>
      </trkpt>
      <trkpt lat="63.35736217" lon="10.24704167">
        <ele>198.58</ele>
        <time>1970-01-01T01:00:00Z</time>
      </trkpt>
      <trkpt lat="63.35732783" lon="10.247035">
        <ele>198.58</ele>
        <time>1970-01-01T01:00:00Z</time>
      </trkpt>
      <trkpt lat="63.35729717" lon="10.24702167">
        <ele>197.818</ele>
        <time>1970-01-01T01:00:00Z</time>
      </trkpt>
      <trkpt lat="63.35726733" lon="10.24700167">
        <ele>197.818</ele>
        <time>1970-01-01T01:00:00Z</time>
      </trkpt>
      <trkpt lat="63.35724033" lon="10.246982">
        <ele>197.056</ele>
        <time>1970-01-01T01:00:00Z</time>
      </trkpt>
      <trkpt lat="63.35720833" lon="10.24696333">
        <ele>197.056</ele>
        <time>1970-01-01T01:00:00Z</time>
      </trkpt>
      <trkpt lat="63.35717833" lon="10.246944">
        <ele>196.446</ele>
        <time>1970-01-01T01:00:00Z</time>
      </trkpt>
      <trkpt lat="63.35714533" lon="10.24692">
        <ele>196.446</ele>
        <time>1970-01-01T01:00:00Z</time>
      </trkpt>
      <trkpt lat="63.35711317" lon="10.24689433">
        <ele>195.836</ele>
        <time>1970-01-01T01:00:00Z</time>
      </trkpt>
      <trkpt lat="63.357081" lon="10.24687067">
        <ele>195.836</ele>
        <time>1970-01-01T01:00:00Z</time>
      </trkpt>
      <trkpt lat="63.35704683" lon="10.24684417">
        <ele>195.227</ele>
        <time>1970-01-01T01:00:00Z</time>
      </trkpt>
      <trkpt lat="63.35701167" lon="10.246816">
        <ele>195.227</ele>
        <time>1970-01-01T01:00:00Z</time>
      </trkpt>
      <trkpt lat="63.35697683" lon="10.24678417">
        <ele>194.77</ele>
        <time>1970-01-01T01:00:00Z</time>
      </trkpt>
      <trkpt lat="63.35694467" lon="10.2467555">
        <ele>194.77</ele>
        <time>1970-01-01T01:00:00Z</time>
      </trkpt>
      <trkpt lat="63.35691417" lon="10.24672567">
        <ele>194.16</ele>
        <time>1970-01-01T01:00:00Z</time>
      </trkpt>
      <trkpt lat="63.35688217" lon="10.24669717">
        <ele>194.16</ele>
        <time>1970-01-01T01:00:00Z</time>
      </trkpt>
      <trkpt lat="63.356851" lon="10.2466645">
        <ele>193.703</ele>
        <time>1970-01-01T01:00:00Z</time>
      </trkpt>
      <trkpt lat="63.3568195" lon="10.24663083">
        <ele>193.703</ele>
        <time>1970-01-01T01:00:00Z</time>
      </trkpt>
      <trkpt lat="63.35678883" lon="10.24659733">
        <ele>193.246</ele>
        <time>1970-01-01T01:00:00Z</time>
      </trkpt>
      <trkpt lat="63.35676" lon="10.24656433">
        <ele>193.246</ele>
        <time>1970-01-01T01:00:00Z</time>
      </trkpt>
      <trkpt lat="63.3567315" lon="10.24653217">
        <ele>192.941</ele>
        <time>1970-01-01T01:00:00Z</time>
      </trkpt>
      <trkpt lat="63.35670617" lon="10.246499">
        <ele>192.941</ele>
        <time>1970-01-01T01:00:00Z</time>
      </trkpt>
      <trkpt lat="63.35668133" lon="10.24646767">
        <ele>192.484</ele>
        <time>1970-01-01T01:00:00Z</time>
      </trkpt>
      <trkpt lat="63.3566595" lon="10.24644017">
        <ele>192.484</ele>
        <time>1970-01-01T01:00:00Z</time>
      </trkpt>
      <trkpt lat="63.35663783" lon="10.2464165">
        <ele>192.179</ele>
        <time>1970-01-01T01:00:00Z</time>
      </trkpt>
      <trkpt lat="63.35661383" lon="10.24639683">
        <ele>192.179</ele>
        <time>1970-01-01T01:00:00Z</time>
      </trkpt>
      <trkpt lat="63.3565875" lon="10.24637883">
        <ele>191.722</ele>
        <time>1970-01-01T01:00:00Z</time>
      </trkpt>
      <trkpt lat="63.35655667" lon="10.24635533">
        <ele>191.722</ele>
        <time>1970-01-01T01:00:00Z</time>
      </trkpt>
      <trkpt lat="63.3565275" lon="10.24632817">
        <ele>191.417</ele>
        <time>1970-01-01T01:00:00Z</time>
      </trkpt>
      <trkpt lat="63.35649867" lon="10.24629717">
        <ele>191.417</ele>
        <time>1970-01-01T01:00:00Z</time>
      </trkpt>
      <trkpt lat="63.35647267" lon="10.246265">
        <ele>191.112</ele>
        <time>1970-01-01T01:00:00Z</time>
      </trkpt>
      <trkpt lat="63.356447" lon="10.2462345">
        <ele>191.112</ele>
        <time>1970-01-01T01:00:00Z</time>
      </trkpt>
      <trkpt lat="63.35642117" lon="10.24620417">
        <ele>190.807</ele>
        <time>1970-01-01T01:00:00Z</time>
      </trkpt>
      <trkpt lat="63.35639633" lon="10.24617733">
        <ele>190.807</ele>
        <time>1970-01-01T01:00:00Z</time>
      </trkpt>
      <trkpt lat="63.35637083" lon="10.246153">
        <ele>190.655</ele>
        <time>1970-01-01T01:00:00Z</time>
      </trkpt>
      <trkpt lat="63.35634433" lon="10.24613033">
        <ele>190.655</ele>
        <time>1970-01-01T01:00:00Z</time>
      </trkpt>
      <trkpt lat="63.35631683" lon="10.24611267">
        <ele>190.35</ele>
        <time>1970-01-01T01:00:00Z</time>
      </trkpt>
      <trkpt lat="63.35628917" lon="10.24610117">
        <ele>190.35</ele>
        <time>1970-01-01T01:00:00Z</time>
      </trkpt>
      <trkpt lat="63.356264" lon="10.24609383">
        <ele>190.045</ele>
        <time>1970-01-01T01:00:00Z</time>
      </trkpt>
      <trkpt lat="63.35623917" lon="10.24608867">
        <ele>190.045</ele>
        <time>1970-01-01T01:00:00Z</time>
      </trkpt>
      <trkpt lat="63.35621183" lon="10.2460805">
        <ele>189.893</ele>
        <time>1970-01-01T01:00:00Z</time>
      </trkpt>
      <trkpt lat="63.35618333" lon="10.2460725">
        <ele>189.893</ele>
        <time>1970-01-01T01:00:00Z</time>
      </trkpt>
      <trkpt lat="63.35615183" lon="10.24606583">
        <ele>189.74</ele>
        <time>1970-01-01T01:00:00Z</time>
      </trkpt>
      <trkpt lat="63.35612117" lon="10.24606">
        <ele>189.74</ele>
        <time>1970-01-01T01:00:00Z</time>
      </trkpt>
      <trkpt lat="63.35608933" lon="10.24605483">
        <ele>189.588</ele>
        <time>1970-01-01T01:00:00Z</time>
      </trkpt>
      <trkpt lat="63.3560585" lon="10.24605">
        <ele>189.588</ele>
        <time>1970-01-01T01:00:00Z</time>
      </trkpt>
      <trkpt lat="63.35602933" lon="10.24604867">
        <ele>189.283</ele>
        <time>1970-01-01T01:00:00Z</time>
      </trkpt>
      <trkpt lat="63.35599967" lon="10.24604783">
        <ele>189.283</ele>
        <time>1970-01-01T01:00:00Z</time>
      </trkpt>
      <trkpt lat="63.35597267" lon="10.24604733">
        <ele>189.131</ele>
        <time>1970-01-01T01:00:00Z</time>
      </trkpt>
      <trkpt lat="63.3559465" lon="10.24604817">
        <ele>189.131</ele>
        <time>1970-01-01T01:00:00Z</time>
      </trkpt>
      <trkpt lat="63.35592233" lon="10.2460505">
        <ele>188.826</ele>
        <time>1970-01-01T01:00:00Z</time>
      </trkpt>
      <trkpt lat="63.35589883" lon="10.24605283">
        <ele>188.826</ele>
        <time>1970-01-01T01:00:00Z</time>
      </trkpt>
      <trkpt lat="63.35587533" lon="10.246047">
        <ele>188.521</ele>
        <time>1970-01-01T01:00:00Z</time>
      </trkpt>
      <trkpt lat="63.35585183" lon="10.246039">
        <ele>188.521</ele>
        <time>1970-01-01T01:00:00Z</time>
      </trkpt>
      <trkpt lat="63.3558285" lon="10.24603333">
        <ele>188.216</ele>
        <time>1970-01-01T01:00:00Z</time>
      </trkpt>
      <trkpt lat="63.35580467" lon="10.2460365">
        <ele>188.216</ele>
        <time>1970-01-01T01:00:00Z</time>
      </trkpt>
      <trkpt lat="63.35577983" lon="10.24604567">
        <ele>187.911</ele>
        <time>1970-01-01T01:00:00Z</time>
      </trkpt>
      <trkpt lat="63.35575333" lon="10.24605783">
        <ele>187.911</ele>
        <time>1970-01-01T01:00:00Z</time>
      </trkpt>
      <trkpt lat="63.35572717" lon="10.24606783">
        <ele>187.607</ele>
        <time>1970-01-01T01:00:00Z</time>
      </trkpt>
      <trkpt lat="63.35570083" lon="10.24608033">
        <ele>187.607</ele>
        <time>1970-01-01T01:00:00Z</time>
      </trkpt>
      <trkpt lat="63.35567617" lon="10.24609567">
        <ele>187.454</ele>
        <time>1970-01-01T01:00:00Z</time>
      </trkpt>
      <trkpt lat="63.35565183" lon="10.2461185">
        <ele>187.454</ele>
        <time>1970-01-01T01:00:00Z</time>
      </trkpt>
      <trkpt lat="63.35562933" lon="10.246148">
        <ele>187.149</ele>
        <time>1970-01-01T01:00:00Z</time>
      </trkpt>
      <trkpt lat="63.35560517" lon="10.24617967">
        <ele>187.149</ele>
        <time>1970-01-01T01:00:00Z</time>
      </trkpt>
      <trkpt lat="63.35557967" lon="10.2462135">
        <ele>186.845</ele>
        <time>1970-01-01T01:00:00Z</time>
      </trkpt>
      <trkpt lat="63.35555383" lon="10.24624883">
        <ele>186.845</ele>
        <time>1970-01-01T01:00:00Z</time>
      </trkpt>
      <trkpt lat="63.35552933" lon="10.246285">
        <ele>186.54</ele>
        <time>1970-01-01T01:00:00Z</time>
      </trkpt>
      <trkpt lat="63.35550617" lon="10.24632633">
        <ele>186.54</ele>
        <time>1970-01-01T01:00:00Z</time>
      </trkpt>
      <trkpt lat="63.35548233" lon="10.24636117">
        <ele>186.387</ele>
        <time>1970-01-01T01:00:00Z</time>
      </trkpt>
      <trkpt lat="63.3554585" lon="10.24639583">
        <ele>186.387</ele>
        <time>1970-01-01T01:00:00Z</time>
      </trkpt>
      <trkpt lat="63.35543617" lon="10.2464245">
        <ele>186.083</ele>
        <time>1970-01-01T01:00:00Z</time>
      </trkpt>
      <trkpt lat="63.35541433" lon="10.24645867">
        <ele>186.083</ele>
        <time>1970-01-01T01:00:00Z</time>
      </trkpt>
      <trkpt lat="63.3553915" lon="10.2464965">
        <ele>185.93</ele>
        <time>1970-01-01T01:00:00Z</time>
      </trkpt>
      <trkpt lat="63.35536783" lon="10.24653567">
        <ele>185.93</ele>
        <time>1970-01-01T01:00:00Z</time>
      </trkpt>
      <trkpt lat="63.35534567" lon="10.24657417">
        <ele>185.778</ele>
        <time>1970-01-01T01:00:00Z</time>
      </trkpt>
      <trkpt lat="63.3553275" lon="10.24661133">
        <ele>185.778</ele>
        <time>1970-01-01T01:00:00Z</time>
      </trkpt>
      <trkpt lat="63.35531233" lon="10.24665283">
        <ele>185.625</ele>
        <time>1970-01-01T01:00:00Z</time>
      </trkpt>
      <trkpt lat="63.35529883" lon="10.24669783">
        <ele>185.625</ele>
        <time>1970-01-01T01:00:00Z</time>
      </trkpt>
      <trkpt lat="63.3552865" lon="10.24674133">
        <ele>185.473</ele>
        <time>1970-01-01T01:00:00Z</time>
      </trkpt>
      <trkpt lat="63.35527467" lon="10.24678217">
        <ele>185.473</ele>
        <time>1970-01-01T01:00:00Z</time>
      </trkpt>
      <trkpt lat="63.35526417" lon="10.24681717">
        <ele>185.473</ele>
        <time>1970-01-01T01:00:00Z</time>
      </trkpt>
      <trkpt lat="63.3552525" lon="10.246852">
        <ele>185.473</ele>
        <time>1970-01-01T01:00:00Z</time>
      </trkpt>
      <trkpt lat="63.35524117" lon="10.24688917">
        <ele>185.473</ele>
        <time>1970-01-01T01:00:00Z</time>
      </trkpt>
      <trkpt lat="63.355231" lon="10.2469265">
        <ele>185.473</ele>
        <time>1970-01-01T01:00:00Z</time>
      </trkpt>
      <trkpt lat="63.35522317" lon="10.24695867">
        <ele>185.473</ele>
        <time>1970-01-01T01:00:00Z</time>
      </trkpt>
      <trkpt lat="63.35521417" lon="10.246984">
        <ele>185.473</ele>
        <time>1970-01-01T01:00:00Z</time>
      </trkpt>
      <trkpt lat="63.35520517" lon="10.24700767">
        <ele>185.473</ele>
        <time>1970-01-01T01:00:00Z</time>
      </trkpt>
      <trkpt lat="63.355194" lon="10.24703833">
        <ele>185.473</ele>
        <time>1970-01-01T01:00:00Z</time>
      </trkpt>
      <trkpt lat="63.35518383" lon="10.247075">
        <ele>185.625</ele>
        <time>1970-01-01T01:00:00Z</time>
      </trkpt>
      <trkpt lat="63.35517317" lon="10.24711267">
        <ele>185.625</ele>
        <time>1970-01-01T01:00:00Z</time>
      </trkpt>
      <trkpt lat="63.35516433" lon="10.2471465">
        <ele>185.778</ele>
        <time>1970-01-01T01:00:00Z</time>
      </trkpt>
      <trkpt lat="63.35515767" lon="10.24718167">
        <ele>185.778</ele>
        <time>1970-01-01T01:00:00Z</time>
      </trkpt>
      <trkpt lat="63.35515267" lon="10.24721633">
        <ele>185.93</ele>
        <time>1970-01-01T01:00:00Z</time>
      </trkpt>
      <trkpt lat="63.35514867" lon="10.24725233">
        <ele>185.93</ele>
        <time>1970-01-01T01:00:00Z</time>
      </trkpt>
      <trkpt lat="63.35514667" lon="10.24729033">
        <ele>186.235</ele>
        <time>1970-01-01T01:00:00Z</time>
      </trkpt>
      <trkpt lat="63.35514583" lon="10.24733167">
        <ele>186.235</ele>
        <time>1970-01-01T01:00:00Z</time>
      </trkpt>
      <trkpt lat="63.35514867" lon="10.247376">
        <ele>186.387</ele>
        <time>1970-01-01T01:00:00Z</time>
      </trkpt>
      <trkpt lat="63.35515233" lon="10.24741617">
        <ele>186.387</ele>
        <time>1970-01-01T01:00:00Z</time>
      </trkpt>
      <trkpt lat="63.35516067" lon="10.24745783">
        <ele>186.692</ele>
        <time>1970-01-01T01:00:00Z</time>
      </trkpt>
      <trkpt lat="63.35516767" lon="10.24749733">
        <ele>186.692</ele>
        <time>1970-01-01T01:00:00Z</time>
      </trkpt>
      <trkpt lat="63.355174" lon="10.247535">
        <ele>186.997</ele>
        <time>1970-01-01T01:00:00Z</time>
      </trkpt>
      <trkpt lat="63.35517767" lon="10.247575">
        <ele>186.997</ele>
        <time>1970-01-01T01:00:00Z</time>
      </trkpt>
      <trkpt lat="63.35518267" lon="10.24761717">
        <ele>187.302</ele>
        <time>1970-01-01T01:00:00Z</time>
      </trkpt>
      <trkpt lat="63.35519133" lon="10.24766067">
        <ele>187.302</ele>
        <time>1970-01-01T01:00:00Z</time>
      </trkpt>
      <trkpt lat="63.355201" lon="10.2477025">
        <ele>187.759</ele>
        <time>1970-01-01T01:00:00Z</time>
      </trkpt>
      <trkpt lat="63.35520767" lon="10.24774333">
        <ele>187.759</ele>
        <time>1970-01-01T01:00:00Z</time>
      </trkpt>
      <trkpt lat="63.3552115" lon="10.24778733">
        <ele>188.216</ele>
        <time>1970-01-01T01:00:00Z</time>
      </trkpt>
      <trkpt lat="63.35521617" lon="10.247836">
        <ele>188.216</ele>
        <time>1970-01-01T01:00:00Z</time>
      </trkpt>
      <trkpt lat="63.35522433" lon="10.24788317">
        <ele>188.521</ele>
        <time>1970-01-01T01:00:00Z</time>
      </trkpt>
      <trkpt lat="63.35523233" lon="10.24792967">
        <ele>188.521</ele>
        <time>1970-01-01T01:00:00Z</time>
      </trkpt>
      <trkpt lat="63.35523817" lon="10.24797283">
        <ele>188.978</ele>
        <time>1970-01-01T01:00:00Z</time>
      </trkpt>
      <trkpt lat="63.35524283" lon="10.248018">
        <ele>188.978</ele>
        <time>1970-01-01T01:00:00Z</time>
      </trkpt>
      <trkpt lat="63.355248" lon="10.24806767">
        <ele>189.283</ele>
        <time>1970-01-01T01:00:00Z</time>
      </trkpt>
      <trkpt lat="63.35525117" lon="10.24811967">
        <ele>189.283</ele>
        <time>1970-01-01T01:00:00Z</time>
      </trkpt>
      <trkpt lat="63.35524733" lon="10.24817133">
        <ele>189.74</ele>
        <time>1970-01-01T01:00:00Z</time>
      </trkpt>
      <trkpt lat="63.355243" lon="10.248217">
        <ele>189.74</ele>
        <time>1970-01-01T01:00:00Z</time>
      </trkpt>
      <trkpt lat="63.35524" lon="10.24826117">
        <ele>190.045</ele>
        <time>1970-01-01T01:00:00Z</time>
      </trkpt>
      <trkpt lat="63.3552445" lon="10.2483145">
        <ele>190.045</ele>
        <time>1970-01-01T01:00:00Z</time>
      </trkpt>
      <trkpt lat="63.35524917" lon="10.248373">
        <ele>190.35</ele>
        <time>1970-01-01T01:00:00Z</time>
      </trkpt>
      <trkpt lat="63.35525467" lon="10.24843317">
        <ele>190.35</ele>
        <time>1970-01-01T01:00:00Z</time>
      </trkpt>
      <trkpt lat="63.35525733" lon="10.24848833">
        <ele>190.655</ele>
        <time>1970-01-01T01:00:00Z</time>
      </trkpt>
      <trkpt lat="63.3552595" lon="10.24854283">
        <ele>190.655</ele>
        <time>1970-01-01T01:00:00Z</time>
      </trkpt>
      <trkpt lat="63.35526167" lon="10.24859767">
        <ele>190.807</ele>
        <time>1970-01-01T01:00:00Z</time>
      </trkpt>
      <trkpt lat="63.3552645" lon="10.24864767">
        <ele>190.807</ele>
        <time>1970-01-01T01:00:00Z</time>
      </trkpt>
      <trkpt lat="63.3552675" lon="10.24869483">
        <ele>191.112</ele>
        <time>1970-01-01T01:00:00Z</time>
      </trkpt>
      <trkpt lat="63.35527183" lon="10.248738">
        <ele>191.112</ele>
        <time>1970-01-01T01:00:00Z</time>
      </trkpt>
      <trkpt lat="63.355277" lon="10.24878317">
        <ele>191.417</ele>
        <time>1970-01-01T01:00:00Z</time>
      </trkpt>
      <trkpt lat="63.35528117" lon="10.24883667">
        <ele>191.417</ele>
        <time>1970-01-01T01:00:00Z</time>
      </trkpt>
      <trkpt lat="63.35528333" lon="10.2488895">
        <ele>191.722</ele>
        <time>1970-01-01T01:00:00Z</time>
      </trkpt>
      <trkpt lat="63.355287" lon="10.24894517">
        <ele>191.722</ele>
        <time>1970-01-01T01:00:00Z</time>
      </trkpt>
      <trkpt lat="63.355291" lon="10.24899733">
        <ele>192.026</ele>
        <time>1970-01-01T01:00:00Z</time>
      </trkpt>
      <trkpt lat="63.35529483" lon="10.2490535">
        <ele>192.026</ele>
        <time>1970-01-01T01:00:00Z</time>
      </trkpt>
      <trkpt lat="63.355298" lon="10.24911483">
        <ele>192.331</ele>
        <time>1970-01-01T01:00:00Z</time>
      </trkpt>
      <trkpt lat="63.35530283" lon="10.24917883">
        <ele>192.331</ele>
        <time>1970-01-01T01:00:00Z</time>
      </trkpt>
      <trkpt lat="63.35531167" lon="10.24925067">
        <ele>192.636</ele>
        <time>1970-01-01T01:00:00Z</time>
      </trkpt>
      <trkpt lat="63.35532117" lon="10.249324">
        <ele>192.636</ele>
        <time>1970-01-01T01:00:00Z</time>
      </trkpt>
      <trkpt lat="63.35533183" lon="10.249398">
        <ele>192.941</ele>
        <time>1970-01-01T01:00:00Z</time>
      </trkpt>
      <trkpt lat="63.35534317" lon="10.24946867">
        <ele>192.941</ele>
        <time>1970-01-01T01:00:00Z</time>
      </trkpt>
      <trkpt lat="63.35535367" lon="10.24953283">
        <ele>193.246</ele>
        <time>1970-01-01T01:00:00Z</time>
      </trkpt>
      <trkpt lat="63.35536583" lon="10.2495975">
        <ele>193.246</ele>
        <time>1970-01-01T01:00:00Z</time>
      </trkpt>
      <trkpt lat="63.3553765" lon="10.2496595">
        <ele>193.55</ele>
        <time>1970-01-01T01:00:00Z</time>
      </trkpt>
      <trkpt lat="63.355389" lon="10.24972633">
        <ele>193.55</ele>
        <time>1970-01-01T01:00:00Z</time>
      </trkpt>
      <trkpt lat="63.35540067" lon="10.2497855">
        <ele>193.855</ele>
        <time>1970-01-01T01:00:00Z</time>
      </trkpt>
      <trkpt lat="63.3554115" lon="10.24984717">
        <ele>193.855</ele>
        <time>1970-01-01T01:00:00Z</time>
      </trkpt>
      <trkpt lat="63.35542033" lon="10.2499035">
        <ele>194.16</ele>
        <time>1970-01-01T01:00:00Z</time>
      </trkpt>
      <trkpt lat="63.35542883" lon="10.24996383">
        <ele>194.16</ele>
        <time>1970-01-01T01:00:00Z</time>
      </trkpt>
      <trkpt lat="63.355439" lon="10.25002417">
        <ele>194.465</ele>
        <time>1970-01-01T01:00:00Z</time>
      </trkpt>
      <trkpt lat="63.355449" lon="10.250085">
        <ele>194.465</ele>
        <time>1970-01-01T01:00:00Z</time>
      </trkpt>
      <trkpt lat="63.355457" lon="10.25015033">
        <ele>194.617</ele>
        <time>1970-01-01T01:00:00Z</time>
      </trkpt>
      <trkpt lat="63.355463" lon="10.250218">
        <ele>194.617</ele>
        <time>1970-01-01T01:00:00Z</time>
      </trkpt>
      <trkpt lat="63.355467" lon="10.2502895">
        <ele>194.922</ele>
        <time>1970-01-01T01:00:00Z</time>
      </trkpt>
      <trkpt lat="63.3554695" lon="10.25035767">
        <ele>194.922</ele>
        <time>1970-01-01T01:00:00Z</time>
      </trkpt>
      <trkpt lat="63.35547233" lon="10.2504195">
        <ele>195.074</ele>
        <time>1970-01-01T01:00:00Z</time>
      </trkpt>
      <trkpt lat="63.355478" lon="10.2504815">
        <ele>195.074</ele>
        <time>1970-01-01T01:00:00Z</time>
      </trkpt>
      <trkpt lat="63.35548583" lon="10.2505435">
        <ele>195.379</ele>
        <time>1970-01-01T01:00:00Z</time>
      </trkpt>
      <trkpt lat="63.355495" lon="10.25060583">
        <ele>195.379</ele>
        <time>1970-01-01T01:00:00Z</time>
      </trkpt>
      <trkpt lat="63.35550633" lon="10.250664">
        <ele>195.532</ele>
        <time>1970-01-01T01:00:00Z</time>
      </trkpt>
      <trkpt lat="63.35551883" lon="10.25071667">
        <ele>195.532</ele>
        <time>1970-01-01T01:00:00Z</time>
      </trkpt>
      <trkpt lat="63.355532" lon="10.25076867">
        <ele>195.532</ele>
        <time>1970-01-01T01:00:00Z</time>
      </trkpt>
      <trkpt lat="63.3555465" lon="10.25081517">
        <ele>195.532</ele>
        <time>1970-01-01T01:00:00Z</time>
      </trkpt>
      <trkpt lat="63.355562" lon="10.25085917">
        <ele>195.684</ele>
        <time>1970-01-01T01:00:00Z</time>
      </trkpt>
      <trkpt lat="63.35557867" lon="10.25089933">
        <ele>195.684</ele>
        <time>1970-01-01T01:00:00Z</time>
      </trkpt>
      <trkpt lat="63.35559467" lon="10.25093733">
        <ele>195.684</ele>
        <time>1970-01-01T01:00:00Z</time>
      </trkpt>
      <trkpt lat="63.35561317" lon="10.250969">
        <ele>195.684</ele>
        <time>1970-01-01T01:00:00Z</time>
      </trkpt>
      <trkpt lat="63.35563517" lon="10.25099117">
        <ele>195.836</ele>
        <time>1970-01-01T01:00:00Z</time>
      </trkpt>
      <trkpt lat="63.35566183" lon="10.2510055">
        <ele>195.836</ele>
        <time>1970-01-01T01:00:00Z</time>
      </trkpt>
      <trkpt lat="63.3556885" lon="10.25101967">
        <ele>195.836</ele>
        <time>1970-01-01T01:00:00Z</time>
      </trkpt>
      <trkpt lat="63.35571417" lon="10.25103267">
        <ele>195.836</ele>
        <time>1970-01-01T01:00:00Z</time>
      </trkpt>
      <trkpt lat="63.35573833" lon="10.25104317">
        <ele>195.684</ele>
        <time>1970-01-01T01:00:00Z</time>
      </trkpt>
      <trkpt lat="63.35576217" lon="10.2510505">
        <ele>195.684</ele>
        <time>1970-01-01T01:00:00Z</time>
      </trkpt>
      <trkpt lat="63.35578583" lon="10.25105767">
        <ele>195.684</ele>
        <time>1970-01-01T01:00:00Z</time>
      </trkpt>
      <trkpt lat="63.35580967" lon="10.25107017">
        <ele>195.684</ele>
        <time>1970-01-01T01:00:00Z</time>
      </trkpt>
      <trkpt lat="63.355834" lon="10.251086">
        <ele>195.684</ele>
        <time>1970-01-01T01:00:00Z</time>
      </trkpt>
      <trkpt lat="63.3558595" lon="10.25109983">
        <ele>195.684</ele>
        <time>1970-01-01T01:00:00Z</time>
      </trkpt>
      <trkpt lat="63.35588517" lon="10.2511115">
        <ele>195.532</ele>
        <time>1970-01-01T01:00:00Z</time>
      </trkpt>
      <trkpt lat="63.3559115" lon="10.25111983">
        <ele>195.532</ele>
        <time>1970-01-01T01:00:00Z</time>
      </trkpt>
      <trkpt lat="63.3559365" lon="10.25112717">
        <ele>195.379</ele>
        <time>1970-01-01T01:00:00Z</time>
      </trkpt>
      <trkpt lat="63.3559605" lon="10.2511315">
        <ele>195.379</ele>
        <time>1970-01-01T01:00:00Z</time>
      </trkpt>
      <trkpt lat="63.35598583" lon="10.25113517">
        <ele>195.227</ele>
        <time>1970-01-01T01:00:00Z</time>
      </trkpt>
      <trkpt lat="63.35601583" lon="10.25115417">
        <ele>195.227</ele>
        <time>1970-01-01T01:00:00Z</time>
      </trkpt>
      <trkpt lat="63.35604783" lon="10.2511725">
        <ele>195.074</ele>
        <time>1970-01-01T01:00:00Z</time>
      </trkpt>
      <trkpt lat="63.35607867" lon="10.251192">
        <ele>195.074</ele>
        <time>1970-01-01T01:00:00Z</time>
      </trkpt>
      <trkpt lat="63.3561075" lon="10.25119817">
        <ele>194.922</ele>
        <time>1970-01-01T01:00:00Z</time>
      </trkpt>
      <trkpt lat="63.35613683" lon="10.251208">
        <ele>194.922</ele>
        <time>1970-01-01T01:00:00Z</time>
      </trkpt>
      <trkpt lat="63.35616633" lon="10.251215">
        <ele>194.922</ele>
        <time>1970-01-01T01:00:00Z</time>
      </trkpt>
      <trkpt lat="63.356196" lon="10.2512185">
        <ele>194.922</ele>
        <time>1970-01-01T01:00:00Z</time>
      </trkpt>
      <trkpt lat="63.3562245" lon="10.25121967">
        <ele>194.77</ele>
        <time>1970-01-01T01:00:00Z</time>
      </trkpt>
      <trkpt lat="63.35625483" lon="10.25122333">
        <ele>194.77</ele>
        <time>1970-01-01T01:00:00Z</time>
      </trkpt>
      <trkpt lat="63.35628367" lon="10.25123167">
        <ele>194.617</ele>
        <time>1970-01-01T01:00:00Z</time>
      </trkpt>
      <trkpt lat="63.35631333" lon="10.251239">
        <ele>194.617</ele>
        <time>1970-01-01T01:00:00Z</time>
      </trkpt>
      <trkpt lat="63.35634183" lon="10.25124567">
        <ele>194.617</ele>
        <time>1970-01-01T01:00:00Z</time>
      </trkpt>
      <trkpt lat="63.35637033" lon="10.2512495">
        <ele>194.617</ele>
        <time>1970-01-01T01:00:00Z</time>
      </trkpt>
      <trkpt lat="63.356399" lon="10.251256">
        <ele>194.465</ele>
        <time>1970-01-01T01:00:00Z</time>
      </trkpt>
      <trkpt lat="63.35642817" lon="10.25126267">
        <ele>194.465</ele>
        <time>1970-01-01T01:00:00Z</time>
      </trkpt>
      <trkpt lat="63.35645817" lon="10.25126917">
        <ele>194.465</ele>
        <time>1970-01-01T01:00:00Z</time>
      </trkpt>
      <trkpt lat="63.3564875" lon="10.25127683">
        <ele>194.465</ele>
        <time>1970-01-01T01:00:00Z</time>
      </trkpt>
      <trkpt lat="63.35651633" lon="10.25128167">
        <ele>194.312</ele>
        <time>1970-01-01T01:00:00Z</time>
      </trkpt>
      <trkpt lat="63.35654517" lon="10.25128433">
        <ele>194.312</ele>
        <time>1970-01-01T01:00:00Z</time>
      </trkpt>
      <trkpt lat="63.35657417" lon="10.2512815">
        <ele>194.312</ele>
        <time>1970-01-01T01:00:00Z</time>
      </trkpt>
      <trkpt lat="63.35660433" lon="10.251279">
        <ele>194.312</ele>
        <time>1970-01-01T01:00:00Z</time>
      </trkpt>
      <trkpt lat="63.35663383" lon="10.25127333">
        <ele>194.16</ele>
        <time>1970-01-01T01:00:00Z</time>
      </trkpt>
      <trkpt lat="63.35666383" lon="10.25126583">
        <ele>194.16</ele>
        <time>1970-01-01T01:00:00Z</time>
      </trkpt>
      <trkpt lat="63.35669533" lon="10.2512585">
        <ele>194.008</ele>
        <time>1970-01-01T01:00:00Z</time>
      </trkpt>
      <trkpt lat="63.356726" lon="10.251252">
        <ele>194.008</ele>
        <time>1970-01-01T01:00:00Z</time>
      </trkpt>
      <trkpt lat="63.3567565" lon="10.25124633">
        <ele>194.008</ele>
        <time>1970-01-01T01:00:00Z</time>
      </trkpt>
      <trkpt lat="63.35678417" lon="10.25124117">
        <ele>194.008</ele>
        <time>1970-01-01T01:00:00Z</time>
      </trkpt>
      <trkpt lat="63.3568125" lon="10.25123433">
        <ele>193.855</ele>
        <time>1970-01-01T01:00:00Z</time>
      </trkpt>
      <trkpt lat="63.3568405" lon="10.25122733">
        <ele>193.855</ele>
        <time>1970-01-01T01:00:00Z</time>
      </trkpt>
      <trkpt lat="63.356869" lon="10.251219">
        <ele>193.855</ele>
        <time>1970-01-01T01:00:00Z</time>
      </trkpt>
      <trkpt lat="63.3568985" lon="10.25121233">
        <ele>193.855</ele>
        <time>1970-01-01T01:00:00Z</time>
      </trkpt>
      <trkpt lat="63.35692683" lon="10.251202">
        <ele>193.855</ele>
        <time>1970-01-01T01:00:00Z</time>
      </trkpt>
      <trkpt lat="63.35695683" lon="10.25118483">
        <ele>193.855</ele>
        <time>1970-01-01T01:00:00Z</time>
      </trkpt>
      <trkpt lat="63.35698483" lon="10.25116533">
        <ele>193.855</ele>
        <time>1970-01-01T01:00:00Z</time>
      </trkpt>
      <trkpt lat="63.35701367" lon="10.25114183">
        <ele>193.855</ele>
        <time>1970-01-01T01:00:00Z</time>
      </trkpt>
      <trkpt lat="63.35704133" lon="10.25111683">
        <ele>193.703</ele>
        <time>1970-01-01T01:00:00Z</time>
      </trkpt>
      <trkpt lat="63.35706817" lon="10.25109033">
        <ele>193.703</ele>
        <time>1970-01-01T01:00:00Z</time>
      </trkpt>
      <trkpt lat="63.35709683" lon="10.25106833">
        <ele>193.703</ele>
        <time>1970-01-01T01:00:00Z</time>
      </trkpt>
      <trkpt lat="63.35712783" lon="10.25105583">
        <ele>193.703</ele>
        <time>1970-01-01T01:00:00Z</time>
      </trkpt>
      <trkpt lat="63.35716117" lon="10.25104683">
        <ele>193.703</ele>
        <time>1970-01-01T01:00:00Z</time>
      </trkpt>
      <trkpt lat="63.35719383" lon="10.25103583">
        <ele>193.703</ele>
        <time>1970-01-01T01:00:00Z</time>
      </trkpt>
      <trkpt lat="63.35722433" lon="10.25102">
        <ele>193.55</ele>
        <time>1970-01-01T01:00:00Z</time>
      </trkpt>
      <trkpt lat="63.35725617" lon="10.251">
        <ele>193.55</ele>
        <time>1970-01-01T01:00:00Z</time>
      </trkpt>
      <trkpt lat="63.35728583" lon="10.2509785">
        <ele>193.55</ele>
        <time>1970-01-01T01:00:00Z</time>
      </trkpt>
      <trkpt lat="63.35731567" lon="10.2509545">
        <ele>193.55</ele>
        <time>1970-01-01T01:00:00Z</time>
      </trkpt>
      <trkpt lat="63.35734433" lon="10.25093617">
        <ele>193.55</ele>
        <time>1970-01-01T01:00:00Z</time>
      </trkpt>
      <trkpt lat="63.3573755" lon="10.25092083">
        <ele>193.55</ele>
        <time>1970-01-01T01:00:00Z</time>
      </trkpt>
      <trkpt lat="63.357407" lon="10.250907">
        <ele>193.398</ele>
        <time>1970-01-01T01:00:00Z</time>
      </trkpt>
      <trkpt lat="63.357439" lon="10.25089067">
        <ele>193.398</ele>
        <time>1970-01-01T01:00:00Z</time>
      </trkpt>
      <trkpt lat="63.35747083" lon="10.25087417">
        <ele>193.398</ele>
        <time>1970-01-01T01:00:00Z</time>
      </trkpt>
      <trkpt lat="63.35750217" lon="10.25085567">
        <ele>193.398</ele>
        <time>1970-01-01T01:00:00Z</time>
      </trkpt>
      <trkpt lat="63.35753483" lon="10.250837">
        <ele>193.398</ele>
        <time>1970-01-01T01:00:00Z</time>
      </trkpt>
      <trkpt lat="63.3575665" lon="10.25081633">
        <ele>193.398</ele>
        <time>1970-01-01T01:00:00Z</time>
      </trkpt>
      <trkpt lat="63.3575965" lon="10.25079267">
        <ele>193.246</ele>
        <time>1970-01-01T01:00:00Z</time>
      </trkpt>
      <trkpt lat="63.35762367" lon="10.25076217">
        <ele>193.246</ele>
        <time>1970-01-01T01:00:00Z</time>
      </trkpt>
      <trkpt lat="63.357647" lon="10.25072867">
        <ele>193.246</ele>
        <time>1970-01-01T01:00:00Z</time>
      </trkpt>
      <trkpt lat="63.35767217" lon="10.25069783">
        <ele>193.246</ele>
        <time>1970-01-01T01:00:00Z</time>
      </trkpt>
      <trkpt lat="63.357697" lon="10.25067117">
        <ele>193.246</ele>
        <time>1970-01-01T01:00:00Z</time>
      </trkpt>
      <trkpt lat="63.357725" lon="10.25064717">
        <ele>193.246</ele>
        <time>1970-01-01T01:00:00Z</time>
      </trkpt>
      <trkpt lat="63.35775483" lon="10.25062333">
        <ele>193.093</ele>
        <time>1970-01-01T01:00:00Z</time>
      </trkpt>
      <trkpt lat="63.35778533" lon="10.25059817">
        <ele>193.093</ele>
        <time>1970-01-01T01:00:00Z</time>
      </trkpt>
      <trkpt lat="63.35781783" lon="10.2505745">
        <ele>192.941</ele>
        <time>1970-01-01T01:00:00Z</time>
      </trkpt>
      <trkpt lat="63.35784867" lon="10.250552">
        <ele>192.941</ele>
        <time>1970-01-01T01:00:00Z</time>
      </trkpt>
      <trkpt lat="63.3578805" lon="10.25053083">
        <ele>192.941</ele>
        <time>1970-01-01T01:00:00Z</time>
      </trkpt>
      <trkpt lat="63.3579115" lon="10.250507">
        <ele>192.941</ele>
        <time>1970-01-01T01:00:00Z</time>
      </trkpt>
      <trkpt lat="63.35794233" lon="10.25048183">
        <ele>192.788</ele>
        <time>1970-01-01T01:00:00Z</time>
      </trkpt>
      <trkpt lat="63.35797217" lon="10.2504575">
        <ele>192.788</ele>
        <time>1970-01-01T01:00:00Z</time>
      </trkpt>
      <trkpt lat="63.35800017" lon="10.25043267">
        <ele>192.636</ele>
        <time>1970-01-01T01:00:00Z</time>
      </trkpt>
      <trkpt lat="63.3580285" lon="10.25040717">
        <ele>192.636</ele>
        <time>1970-01-01T01:00:00Z</time>
      </trkpt>
      <trkpt lat="63.35805417" lon="10.25038233">
        <ele>192.331</ele>
        <time>1970-01-01T01:00:00Z</time>
      </trkpt>
      <trkpt lat="63.35808217" lon="10.25036233">
        <ele>192.331</ele>
        <time>1970-01-01T01:00:00Z</time>
      </trkpt>
      <trkpt lat="63.35810883" lon="10.25034">
        <ele>192.179</ele>
        <time>1970-01-01T01:00:00Z</time>
      </trkpt>
      <trkpt lat="63.35813717" lon="10.25031517">
        <ele>192.179</ele>
        <time>1970-01-01T01:00:00Z</time>
      </trkpt>
      <trkpt lat="63.35816433" lon="10.25028517">
        <ele>192.026</ele>
        <time>1970-01-01T01:00:00Z</time>
      </trkpt>
      <trkpt lat="63.35819083" lon="10.250261">
        <ele>192.026</ele>
        <time>1970-01-01T01:00:00Z</time>
      </trkpt>
      <trkpt lat="63.3582185" lon="10.2502425">
        <ele>191.722</ele>
        <time>1970-01-01T01:00:00Z</time>
      </trkpt>
      <trkpt lat="63.35824617" lon="10.2502325">
        <ele>191.722</ele>
        <time>1970-01-01T01:00:00Z</time>
      </trkpt>
      <trkpt lat="63.35827467" lon="10.2502265">
        <ele>191.569</ele>
        <time>1970-01-01T01:00:00Z</time>
      </trkpt>
      <trkpt lat="63.3583015" lon="10.25022033">
        <ele>191.569</ele>
        <time>1970-01-01T01:00:00Z</time>
      </trkpt>
      <trkpt lat="63.358328" lon="10.25020867">
        <ele>191.417</ele>
        <time>1970-01-01T01:00:00Z</time>
      </trkpt>
      <trkpt lat="63.358353" lon="10.250193">
        <ele>191.417</ele>
        <time>1970-01-01T01:00:00Z</time>
      </trkpt>
      <trkpt lat="63.3583765" lon="10.250175">
        <ele>191.264</ele>
        <time>1970-01-01T01:00:00Z</time>
      </trkpt>
      <trkpt lat="63.35840017" lon="10.25015967">
        <ele>191.264</ele>
        <time>1970-01-01T01:00:00Z</time>
      </trkpt>
      <trkpt lat="63.3584245" lon="10.25014317">
        <ele>190.96</ele>
        <time>1970-01-01T01:00:00Z</time>
      </trkpt>
      <trkpt lat="63.35845267" lon="10.25013017">
        <ele>190.96</ele>
        <time>1970-01-01T01:00:00Z</time>
      </trkpt>
      <trkpt lat="63.35848033" lon="10.25011583">
        <ele>190.807</ele>
        <time>1970-01-01T01:00:00Z</time>
      </trkpt>
      <trkpt lat="63.35850717" lon="10.2501015">
        <ele>190.807</ele>
        <time>1970-01-01T01:00:00Z</time>
      </trkpt>
      <trkpt lat="63.35853167" lon="10.25008433">
        <ele>190.502</ele>
        <time>1970-01-01T01:00:00Z</time>
      </trkpt>
      <trkpt lat="63.35855483" lon="10.25006533">
        <ele>190.502</ele>
        <time>1970-01-01T01:00:00Z</time>
      </trkpt>
      <trkpt lat="63.3585785" lon="10.25004383">
        <ele>190.35</ele>
        <time>1970-01-01T01:00:00Z</time>
      </trkpt>
      <trkpt lat="63.358604" lon="10.250018">
        <ele>190.35</ele>
        <time>1970-01-01T01:00:00Z</time>
      </trkpt>
      <trkpt lat="63.358635" lon="10.25000417">
        <ele>190.045</ele>
        <time>1970-01-01T01:00:00Z</time>
      </trkpt>
      <trkpt lat="63.35866533" lon="10.24999067">
        <ele>190.045</ele>
        <time>1970-01-01T01:00:00Z</time>
      </trkpt>
      <trkpt lat="63.358693" lon="10.24997933">
        <ele>189.893</ele>
        <time>1970-01-01T01:00:00Z</time>
      </trkpt>
      <trkpt lat="63.3587155" lon="10.24995283">
        <ele>189.893</ele>
        <time>1970-01-01T01:00:00Z</time>
      </trkpt>
      <trkpt lat="63.35873767" lon="10.24992583">
        <ele>189.74</ele>
        <time>1970-01-01T01:00:00Z</time>
      </trkpt>
      <trkpt lat="63.358761" lon="10.249893">
        <ele>189.74</ele>
        <time>1970-01-01T01:00:00Z</time>
      </trkpt>
      <trkpt lat="63.35878567" lon="10.24985983">
        <ele>189.588</ele>
        <time>1970-01-01T01:00:00Z</time>
      </trkpt>
      <trkpt lat="63.35880933" lon="10.249823">
        <ele>189.588</ele>
        <time>1970-01-01T01:00:00Z</time>
      </trkpt>
      <trkpt lat="63.35883267" lon="10.24978883">
        <ele>189.436</ele>
        <time>1970-01-01T01:00:00Z</time>
      </trkpt>
      <trkpt lat="63.35885617" lon="10.24975267">
        <ele>189.436</ele>
        <time>1970-01-01T01:00:00Z</time>
      </trkpt>
      <trkpt lat="63.358881" lon="10.24971867">
        <ele>189.283</ele>
        <time>1970-01-01T01:00:00Z</time>
      </trkpt>
      <trkpt lat="63.35890567" lon="10.24968033">
        <ele>189.283</ele>
        <time>1970-01-01T01:00:00Z</time>
      </trkpt>
      <trkpt lat="63.3589285" lon="10.249641">
        <ele>189.131</ele>
        <time>1970-01-01T01:00:00Z</time>
      </trkpt>
      <trkpt lat="63.35895183" lon="10.249597">
        <ele>189.131</ele>
        <time>1970-01-01T01:00:00Z</time>
      </trkpt>
      <trkpt lat="63.35897417" lon="10.24955567">
        <ele>189.131</ele>
        <time>1970-01-01T01:00:00Z</time>
      </trkpt>
      <trkpt lat="63.35899717" lon="10.2495155">
        <ele>189.131</ele>
        <time>1970-01-01T01:00:00Z</time>
      </trkpt>
      <trkpt lat="63.35901983" lon="10.24947483">
        <ele>188.978</ele>
        <time>1970-01-01T01:00:00Z</time>
      </trkpt>
      <trkpt lat="63.35904067" lon="10.2494335">
        <ele>188.978</ele>
        <time>1970-01-01T01:00:00Z</time>
      </trkpt>
      <trkpt lat="63.3590625" lon="10.24939333">
        <ele>188.978</ele>
        <time>1970-01-01T01:00:00Z</time>
      </trkpt>
      <trkpt lat="63.35908333" lon="10.2493565">
        <ele>188.978</ele>
        <time>1970-01-01T01:00:00Z</time>
      </trkpt>
      <trkpt lat="63.3591055" lon="10.24932133">
        <ele>188.826</ele>
        <time>1970-01-01T01:00:00Z</time>
      </trkpt>
      <trkpt lat="63.35912833" lon="10.24928433">
        <ele>188.826</ele>
        <time>1970-01-01T01:00:00Z</time>
      </trkpt>
      <trkpt lat="63.3591515" lon="10.24924867">
        <ele>188.826</ele>
        <time>1970-01-01T01:00:00Z</time>
      </trkpt>
      <trkpt lat="63.359175" lon="10.24921233">
        <ele>188.826</ele>
        <time>1970-01-01T01:00:00Z</time>
      </trkpt>
      <trkpt lat="63.3591965" lon="10.24917733">
        <ele>188.826</ele>
        <time>1970-01-01T01:00:00Z</time>
      </trkpt>
      <trkpt lat="63.359217" lon="10.24914333">
        <ele>188.826</ele>
        <time>1970-01-01T01:00:00Z</time>
      </trkpt>
      <trkpt lat="63.35923633" lon="10.2491095">
        <ele>188.826</ele>
        <time>1970-01-01T01:00:00Z</time>
      </trkpt>
      <trkpt lat="63.35925433" lon="10.249076">
        <ele>188.826</ele>
        <time>1970-01-01T01:00:00Z</time>
      </trkpt>
      <trkpt lat="63.35927117" lon="10.24903983">
        <ele>188.826</ele>
        <time>1970-01-01T01:00:00Z</time>
      </trkpt>
      <trkpt lat="63.35928883" lon="10.24900667">
        <ele>188.826</ele>
        <time>1970-01-01T01:00:00Z</time>
      </trkpt>
      <trkpt lat="63.35930633" lon="10.248975">
        <ele>188.826</ele>
        <time>1970-01-01T01:00:00Z</time>
      </trkpt>
      <trkpt lat="63.35932467" lon="10.24894767">
        <ele>188.826</ele>
        <time>1970-01-01T01:00:00Z</time>
      </trkpt>
      <trkpt lat="63.35934083" lon="10.24892083">
        <ele>188.826</ele>
        <time>1970-01-01T01:00:00Z</time>
      </trkpt>
      <trkpt lat="63.35935767" lon="10.24889767">
        <ele>188.826</ele>
        <time>1970-01-01T01:00:00Z</time>
      </trkpt>
      <trkpt lat="63.359374" lon="10.248877">
        <ele>188.826</ele>
        <time>1970-01-01T01:00:00Z</time>
      </trkpt>
      <trkpt lat="63.35939083" lon="10.24885617">
        <ele>188.826</ele>
        <time>1970-01-01T01:00:00Z</time>
      </trkpt>
      <trkpt lat="63.359405" lon="10.24883117">
        <ele>188.826</ele>
        <time>1970-01-01T01:00:00Z</time>
      </trkpt>
      <trkpt lat="63.35941633" lon="10.248804">
        <ele>188.826</ele>
        <time>1970-01-01T01:00:00Z</time>
      </trkpt>
      <trkpt lat="63.3594255" lon="10.24878067">
        <ele>188.826</ele>
        <time>1970-01-01T01:00:00Z</time>
      </trkpt>
      <trkpt lat="63.3594355" lon="10.248757">
        <ele>188.826</ele>
        <time>1970-01-01T01:00:00Z</time>
      </trkpt>
      <trkpt lat="63.35944383" lon="10.24873">
        <ele>188.826</ele>
        <time>1970-01-01T01:00:00Z</time>
      </trkpt>
      <trkpt lat="63.35945267" lon="10.24869517">
        <ele>188.826</ele>
        <time>1970-01-01T01:00:00Z</time>
      </trkpt>
      <trkpt lat="63.3594585" lon="10.248656">
        <ele>188.978</ele>
        <time>1970-01-01T01:00:00Z</time>
      </trkpt>
      <trkpt lat="63.35946433" lon="10.2486145">
        <ele>188.978</ele>
        <time>1970-01-01T01:00:00Z</time>
      </trkpt>
      <trkpt lat="63.35946767" lon="10.24856883">
        <ele>188.978</ele>
        <time>1970-01-01T01:00:00Z</time>
      </trkpt>
      <trkpt lat="63.35946933" lon="10.2485255">
        <ele>188.978</ele>
        <time>1970-01-01T01:00:00Z</time>
      </trkpt>
      <trkpt lat="63.35947" lon="10.24848333">
        <ele>189.131</ele>
        <time>1970-01-01T01:00:00Z</time>
      </trkpt>
      <trkpt lat="63.35947" lon="10.24844167">
        <ele>189.131</ele>
        <time>1970-01-01T01:00:00Z</time>
      </trkpt>
      <trkpt lat="63.35946967" lon="10.24840283">
        <ele>189.283</ele>
        <time>1970-01-01T01:00:00Z</time>
      </trkpt>
      <trkpt lat="63.35946633" lon="10.24836167">
        <ele>189.283</ele>
        <time>1970-01-01T01:00:00Z</time>
      </trkpt>
      <trkpt lat="63.35946233" lon="10.2483215">
        <ele>189.436</ele>
        <time>1970-01-01T01:00:00Z</time>
      </trkpt>
      <trkpt lat="63.359455" lon="10.24827783">
        <ele>189.436</ele>
        <time>1970-01-01T01:00:00Z</time>
      </trkpt>
      <trkpt lat="63.35944667" lon="10.248233">
        <ele>189.74</ele>
        <time>1970-01-01T01:00:00Z</time>
      </trkpt>
      <trkpt lat="63.35943717" lon="10.24819233">
        <ele>189.74</ele>
        <time>1970-01-01T01:00:00Z</time>
      </trkpt>
      <trkpt lat="63.35942867" lon="10.248149">
        <ele>190.045</ele>
        <time>1970-01-01T01:00:00Z</time>
      </trkpt>
      <trkpt lat="63.35942017" lon="10.24810767">
        <ele>190.045</ele>
        <time>1970-01-01T01:00:00Z</time>
      </trkpt>
      <trkpt lat="63.3594105" lon="10.24806417">
        <ele>190.35</ele>
        <time>1970-01-01T01:00:00Z</time>
      </trkpt>
      <trkpt lat="63.35940017" lon="10.24802133">
        <ele>190.35</ele>
        <time>1970-01-01T01:00:00Z</time>
      </trkpt>
      <trkpt lat="63.35938683" lon="10.24797567">
        <ele>190.655</ele>
        <time>1970-01-01T01:00:00Z</time>
      </trkpt>
      <trkpt lat="63.35937067" lon="10.24792583">
        <ele>190.655</ele>
        <time>1970-01-01T01:00:00Z</time>
      </trkpt>
      <trkpt lat="63.35935383" lon="10.247875">
        <ele>190.96</ele>
        <time>1970-01-01T01:00:00Z</time>
      </trkpt>
      <trkpt lat="63.35933833" lon="10.24782683">
        <ele>190.96</ele>
        <time>1970-01-01T01:00:00Z</time>
      </trkpt>
      <trkpt lat="63.35932517" lon="10.2477775">
        <ele>191.264</ele>
        <time>1970-01-01T01:00:00Z</time>
      </trkpt>
      <trkpt lat="63.359312" lon="10.24772883">
        <ele>191.264</ele>
        <time>1970-01-01T01:00:00Z</time>
      </trkpt>
      <trkpt lat="63.35929933" lon="10.24767483">
        <ele>191.569</ele>
        <time>1970-01-01T01:00:00Z</time>
      </trkpt>
      <trkpt lat="63.35928667" lon="10.24761617">
        <ele>191.569</ele>
        <time>1970-01-01T01:00:00Z</time>
      </trkpt>
      <trkpt lat="63.359274" lon="10.24755683">
        <ele>191.722</ele>
        <time>1970-01-01T01:00:00Z</time>
      </trkpt>
      <trkpt lat="63.35926" lon="10.24749767">
        <ele>191.722</ele>
        <time>1970-01-01T01:00:00Z</time>
      </trkpt>
      <trkpt lat="63.3592465" lon="10.24744717">
        <ele>192.026</ele>
        <time>1970-01-01T01:00:00Z</time>
      </trkpt>
      <trkpt lat="63.359233" lon="10.24739967">
        <ele>192.026</ele>
        <time>1970-01-01T01:00:00Z</time>
      </trkpt>
      <trkpt lat="63.35922083" lon="10.24735">
        <ele>192.331</ele>
        <time>1970-01-01T01:00:00Z</time>
      </trkpt>
      <trkpt lat="63.35920867" lon="10.2472985">
        <ele>192.331</ele>
        <time>1970-01-01T01:00:00Z</time>
      </trkpt>
      <trkpt lat="63.35919883" lon="10.2472395">
        <ele>192.636</ele>
        <time>1970-01-01T01:00:00Z</time>
      </trkpt>
      <trkpt lat="63.35919067" lon="10.24718">
        <ele>192.636</ele>
        <time>1970-01-01T01:00:00Z</time>
      </trkpt>
      <trkpt lat="63.3591815" lon="10.24711683">
        <ele>192.788</ele>
        <time>1970-01-01T01:00:00Z</time>
      </trkpt>
      <trkpt lat="63.35917" lon="10.24705483">
        <ele>192.788</ele>
        <time>1970-01-01T01:00:00Z</time>
      </trkpt>
      <trkpt lat="63.359159" lon="10.24699183">
        <ele>192.941</ele>
        <time>1970-01-01T01:00:00Z</time>
      </trkpt>
      <trkpt lat="63.35914983" lon="10.24692817">
        <ele>192.941</ele>
        <time>1970-01-01T01:00:00Z</time>
      </trkpt>
      <trkpt lat="63.3591435" lon="10.24686467">
        <ele>193.093</ele>
        <time>1970-01-01T01:00:00Z</time>
      </trkpt>
      <trkpt lat="63.35913833" lon="10.2468045">
        <ele>193.093</ele>
        <time>1970-01-01T01:00:00Z</time>
      </trkpt>
      <trkpt lat="63.359135" lon="10.24674767">
        <ele>193.246</ele>
        <time>1970-01-01T01:00:00Z</time>
      </trkpt>
      <trkpt lat="63.35913283" lon="10.24669233">
        <ele>193.246</ele>
        <time>1970-01-01T01:00:00Z</time>
      </trkpt>
      <trkpt lat="63.35913183" lon="10.2466385">
        <ele>193.246</ele>
        <time>1970-01-01T01:00:00Z</time>
      </trkpt>
      <trkpt lat="63.35913333" lon="10.2465835">
        <ele>193.246</ele>
        <time>1970-01-01T01:00:00Z</time>
      </trkpt>
      <trkpt lat="63.35913717" lon="10.246528">
        <ele>193.246</ele>
        <time>1970-01-01T01:00:00Z</time>
      </trkpt>
      <trkpt lat="63.3591435" lon="10.24647517">
        <ele>193.246</ele>
        <time>1970-01-01T01:00:00Z</time>
      </trkpt>
      <trkpt lat="63.35915017" lon="10.24641883">
        <ele>193.246</ele>
        <time>1970-01-01T01:00:00Z</time>
      </trkpt>
      <trkpt lat="63.35915717" lon="10.24636417">
        <ele>193.246</ele>
        <time>1970-01-01T01:00:00Z</time>
      </trkpt>
      <trkpt lat="63.359164" lon="10.24630833">
        <ele>193.246</ele>
        <time>1970-01-01T01:00:00Z</time>
      </trkpt>
      <trkpt lat="63.35917183" lon="10.24626">
        <ele>193.246</ele>
        <time>1970-01-01T01:00:00Z</time>
      </trkpt>
      <trkpt lat="63.35918017" lon="10.2462165">
        <ele>193.398</ele>
        <time>1970-01-01T01:00:00Z</time>
      </trkpt>
      <trkpt lat="63.35918933" lon="10.24617383">
        <ele>193.398</ele>
        <time>1970-01-01T01:00:00Z</time>
      </trkpt>
      <trkpt lat="63.35919767" lon="10.24613017">
        <ele>193.55</ele>
        <time>1970-01-01T01:00:00Z</time>
      </trkpt>
      <trkpt lat="63.3592055" lon="10.246087">
        <ele>193.55</ele>
        <time>1970-01-01T01:00:00Z</time>
      </trkpt>
      <trkpt lat="63.35921267" lon="10.24604333">
        <ele>193.55</ele>
        <time>1970-01-01T01:00:00Z</time>
      </trkpt>
      <trkpt lat="63.35922183" lon="10.246003">
        <ele>193.55</ele>
        <time>1970-01-01T01:00:00Z</time>
      </trkpt>
      <trkpt lat="63.35923283" lon="10.24596083">
        <ele>193.703</ele>
        <time>1970-01-01T01:00:00Z</time>
      </trkpt>
      <trkpt lat="63.359244" lon="10.2459185">
        <ele>193.703</ele>
        <time>1970-01-01T01:00:00Z</time>
      </trkpt>
      <trkpt lat="63.35925583" lon="10.245869">
        <ele>193.855</ele>
        <time>1970-01-01T01:00:00Z</time>
      </trkpt>
      <trkpt lat="63.359269" lon="10.24581817">
        <ele>193.855</ele>
        <time>1970-01-01T01:00:00Z</time>
      </trkpt>
      <trkpt lat="63.35928367" lon="10.24576817">
        <ele>194.008</ele>
        <time>1970-01-01T01:00:00Z</time>
      </trkpt>
      <trkpt lat="63.359299" lon="10.24572183">
        <ele>194.008</ele>
        <time>1970-01-01T01:00:00Z</time>
      </trkpt>
      <trkpt lat="63.35931533" lon="10.2456765">
        <ele>194.16</ele>
        <time>1970-01-01T01:00:00Z</time>
      </trkpt>
      <trkpt lat="63.35933183" lon="10.2456335">
        <ele>194.16</ele>
        <time>1970-01-01T01:00:00Z</time>
      </trkpt>
      <trkpt lat="63.3593465" lon="10.24558833">
        <ele>194.312</ele>
        <time>1970-01-01T01:00:00Z</time>
      </trkpt>
      <trkpt lat="63.3593605" lon="10.24554517">
        <ele>194.312</ele>
        <time>1970-01-01T01:00:00Z</time>
      </trkpt>
      <trkpt lat="63.35937283" lon="10.24549783">
        <ele>194.617</ele>
        <time>1970-01-01T01:00:00Z</time>
      </trkpt>
      <trkpt lat="63.35938367" lon="10.24545267">
        <ele>194.617</ele>
        <time>1970-01-01T01:00:00Z</time>
      </trkpt>
      <trkpt lat="63.359391" lon="10.245404">
        <ele>194.77</ele>
        <time>1970-01-01T01:00:00Z</time>
      </trkpt>
      <trkpt lat="63.35939783" lon="10.245352">
        <ele>194.77</ele>
        <time>1970-01-01T01:00:00Z</time>
      </trkpt>
      <trkpt lat="63.35940433" lon="10.2452985">
        <ele>194.922</ele>
        <time>1970-01-01T01:00:00Z</time>
      </trkpt>
      <trkpt lat="63.35941217" lon="10.24523917">
        <ele>194.922</ele>
        <time>1970-01-01T01:00:00Z</time>
      </trkpt>
      <trkpt lat="63.35942083" lon="10.2451815">
        <ele>195.227</ele>
        <time>1970-01-01T01:00:00Z</time>
      </trkpt>
      <trkpt lat="63.3594295" lon="10.2451245">
        <ele>195.227</ele>
        <time>1970-01-01T01:00:00Z</time>
      </trkpt>
      <trkpt lat="63.3594355" lon="10.24506733">
        <ele>195.379</ele>
        <time>1970-01-01T01:00:00Z</time>
      </trkpt>
      <trkpt lat="63.35943817" lon="10.24500817">
        <ele>195.379</ele>
        <time>1970-01-01T01:00:00Z</time>
      </trkpt>
      <trkpt lat="63.35944017" lon="10.24494683">
        <ele>195.684</ele>
        <time>1970-01-01T01:00:00Z</time>
      </trkpt>
      <trkpt lat="63.35944283" lon="10.24488883">
        <ele>195.684</ele>
        <time>1970-01-01T01:00:00Z</time>
      </trkpt>
      <trkpt lat="63.359447" lon="10.24483117">
        <ele>195.836</ele>
        <time>1970-01-01T01:00:00Z</time>
      </trkpt>
      <trkpt lat="63.35944933" lon="10.244768">
        <ele>195.836</ele>
        <time>1970-01-01T01:00:00Z</time>
      </trkpt>
      <trkpt lat="63.35945233" lon="10.24470633">
        <ele>196.141</ele>
        <time>1970-01-01T01:00:00Z</time>
      </trkpt>
      <trkpt lat="63.35945533" lon="10.24464517">
        <ele>196.141</ele>
        <time>1970-01-01T01:00:00Z</time>
      </trkpt>
      <trkpt lat="63.35946067" lon="10.24458583">
        <ele>196.446</ele>
        <time>1970-01-01T01:00:00Z</time>
      </trkpt>
      <trkpt lat="63.3594665" lon="10.2445195">
        <ele>196.446</ele>
        <time>1970-01-01T01:00:00Z</time>
      </trkpt>
      <trkpt lat="63.3594745" lon="10.2444475">
        <ele>196.598</ele>
        <time>1970-01-01T01:00:00Z</time>
      </trkpt>
      <trkpt lat="63.35948383" lon="10.24437733">
        <ele>196.598</ele>
        <time>1970-01-01T01:00:00Z</time>
      </trkpt>
      <trkpt lat="63.3594925" lon="10.24430933">
        <ele>196.903</ele>
        <time>1970-01-01T01:00:00Z</time>
      </trkpt>
      <trkpt lat="63.35949667" lon="10.24424033">
        <ele>196.903</ele>
        <time>1970-01-01T01:00:00Z</time>
      </trkpt>
      <trkpt lat="63.35949733" lon="10.2441685">
        <ele>197.208</ele>
        <time>1970-01-01T01:00:00Z</time>
      </trkpt>
      <trkpt lat="63.35949517" lon="10.24410017">
        <ele>197.208</ele>
        <time>1970-01-01T01:00:00Z</time>
      </trkpt>
      <trkpt lat="63.359493" lon="10.24403667">
        <ele>197.36</ele>
        <time>1970-01-01T01:00:00Z</time>
      </trkpt>
      <trkpt lat="63.35949167" lon="10.24397667">
        <ele>197.36</ele>
        <time>1970-01-01T01:00:00Z</time>
      </trkpt>
      <trkpt lat="63.35949383" lon="10.24391317">
        <ele>197.665</ele>
        <time>1970-01-01T01:00:00Z</time>
      </trkpt>
      <trkpt lat="63.35949933" lon="10.24384433">
        <ele>197.665</ele>
        <time>1970-01-01T01:00:00Z</time>
      </trkpt>
      <trkpt lat="63.359505" lon="10.2437745">
        <ele>197.818</ele>
        <time>1970-01-01T01:00:00Z</time>
      </trkpt>
      <trkpt lat="63.3595105" lon="10.24370517">
        <ele>197.818</ele>
        <time>1970-01-01T01:00:00Z</time>
      </trkpt>
      <trkpt lat="63.359516" lon="10.24364117">
        <ele>198.122</ele>
        <time>1970-01-01T01:00:00Z</time>
      </trkpt>
      <trkpt lat="63.35952383" lon="10.243574">
        <ele>198.122</ele>
        <time>1970-01-01T01:00:00Z</time>
      </trkpt>
      <trkpt lat="63.35953333" lon="10.24350667">
        <ele>198.275</ele>
        <time>1970-01-01T01:00:00Z</time>
      </trkpt>
      <trkpt lat="63.35954317" lon="10.24343767">
        <ele>198.275</ele>
        <time>1970-01-01T01:00:00Z</time>
      </trkpt>
      <trkpt lat="63.3595555" lon="10.24336783">
        <ele>198.275</ele>
        <time>1970-01-01T01:00:00Z</time>
      </trkpt>
      <trkpt lat="63.35956767" lon="10.2432995">
        <ele>198.275</ele>
        <time>1970-01-01T01:00:00Z</time>
      </trkpt>
      <trkpt lat="63.35958017" lon="10.24323083">
        <ele>198.427</ele>
        <time>1970-01-01T01:00:00Z</time>
      </trkpt>
      <trkpt lat="63.35959117" lon="10.24316867">
        <ele>198.427</ele>
        <time>1970-01-01T01:00:00Z</time>
      </trkpt>
      <trkpt lat="63.359602" lon="10.24310633">
        <ele>198.427</ele>
        <time>1970-01-01T01:00:00Z</time>
      </trkpt>
      <trkpt lat="63.35961383" lon="10.2430425">
        <ele>198.427</ele>
        <time>1970-01-01T01:00:00Z</time>
      </trkpt>
      <trkpt lat="63.359625" lon="10.2429775">
        <ele>198.58</ele>
        <time>1970-01-01T01:00:00Z</time>
      </trkpt>
      <trkpt lat="63.35963533" lon="10.24290967">
        <ele>198.58</ele>
        <time>1970-01-01T01:00:00Z</time>
      </trkpt>
      <trkpt lat="63.359645" lon="10.242847">
        <ele>198.58</ele>
        <time>1970-01-01T01:00:00Z</time>
      </trkpt>
      <trkpt lat="63.35965667" lon="10.2427815">
        <ele>198.58</ele>
        <time>1970-01-01T01:00:00Z</time>
      </trkpt>
      <trkpt lat="63.35967083" lon="10.24272083">
        <ele>198.58</ele>
        <time>1970-01-01T01:00:00Z</time>
      </trkpt>
      <trkpt lat="63.3596855" lon="10.24266017">
        <ele>198.58</ele>
        <time>1970-01-01T01:00:00Z</time>
      </trkpt>
      <trkpt lat="63.3597005" lon="10.242602">
        <ele>198.58</ele>
        <time>1970-01-01T01:00:00Z</time>
      </trkpt>
      <trkpt lat="63.3597145" lon="10.2425415">
        <ele>198.58</ele>
        <time>1970-01-01T01:00:00Z</time>
      </trkpt>
      <trkpt lat="63.359729" lon="10.242481">
        <ele>198.58</ele>
        <time>1970-01-01T01:00:00Z</time>
      </trkpt>
      <trkpt lat="63.359742" lon="10.24242567">
        <ele>198.58</ele>
        <time>1970-01-01T01:00:00Z</time>
      </trkpt>
      <trkpt lat="63.35975583" lon="10.24237533">
        <ele>198.427</ele>
        <time>1970-01-01T01:00:00Z</time>
      </trkpt>
      <trkpt lat="63.35977017" lon="10.242332">
        <ele>198.427</ele>
        <time>1970-01-01T01:00:00Z</time>
      </trkpt>
      <trkpt lat="63.35978367" lon="10.24229033">
        <ele>198.427</ele>
        <time>1970-01-01T01:00:00Z</time>
      </trkpt>
      <trkpt lat="63.35979867" lon="10.24224833">
        <ele>198.427</ele>
        <time>1970-01-01T01:00:00Z</time>
      </trkpt>
      <trkpt lat="63.35981367" lon="10.24221167">
        <ele>198.427</ele>
        <time>1970-01-01T01:00:00Z</time>
      </trkpt>
      <trkpt lat="63.35982833" lon="10.24217233">
        <ele>198.427</ele>
        <time>1970-01-01T01:00:00Z</time>
      </trkpt>
      <trkpt lat="63.35984433" lon="10.24213667">
        <ele>198.427</ele>
        <time>1970-01-01T01:00:00Z</time>
      </trkpt>
      <trkpt lat="63.35986083" lon="10.24209517">
        <ele>198.427</ele>
        <time>1970-01-01T01:00:00Z</time>
      </trkpt>
      <trkpt lat="63.35988133" lon="10.24205167">
        <ele>198.427</ele>
        <time>1970-01-01T01:00:00Z</time>
      </trkpt>
      <trkpt lat="63.35990067" lon="10.242003">
        <ele>198.427</ele>
        <time>1970-01-01T01:00:00Z</time>
      </trkpt>
      <trkpt lat="63.35992033" lon="10.24194883">
        <ele>198.427</ele>
        <time>1970-01-01T01:00:00Z</time>
      </trkpt>
      <trkpt lat="63.3599405" lon="10.241897">
        <ele>198.427</ele>
        <time>1970-01-01T01:00:00Z</time>
      </trkpt>
      <trkpt lat="63.35996183" lon="10.24184883">
        <ele>198.427</ele>
        <time>1970-01-01T01:00:00Z</time>
      </trkpt>
      <trkpt lat="63.35998217" lon="10.24180767">
        <ele>198.427</ele>
        <time>1970-01-01T01:00:00Z</time>
      </trkpt>
      <trkpt lat="63.360001" lon="10.24176583">
        <ele>198.427</ele>
        <time>1970-01-01T01:00:00Z</time>
      </trkpt>
      <trkpt lat="63.360019" lon="10.24172633">
        <ele>198.427</ele>
        <time>1970-01-01T01:00:00Z</time>
      </trkpt>
      <trkpt lat="63.36003833" lon="10.2416845">
        <ele>198.427</ele>
        <time>1970-01-01T01:00:00Z</time>
      </trkpt>
      <trkpt lat="63.36005767" lon="10.24164633">
        <ele>198.427</ele>
        <time>1970-01-01T01:00:00Z</time>
      </trkpt>
      <trkpt lat="63.3600755" lon="10.24161367">
        <ele>198.427</ele>
        <time>1970-01-01T01:00:00Z</time>
      </trkpt>
      <trkpt lat="63.3600915" lon="10.24158183">
        <ele>198.427</ele>
        <time>1970-01-01T01:00:00Z</time>
      </trkpt>
      <trkpt lat="63.36010717" lon="10.24155117">
        <ele>198.427</ele>
        <time>1970-01-01T01:00:00Z</time>
      </trkpt>
      <trkpt lat="63.36012133" lon="10.24151483">
        <ele>198.427</ele>
        <time>1970-01-01T01:00:00Z</time>
      </trkpt>
      <trkpt lat="63.3601325" lon="10.24147683">
        <ele>198.427</ele>
        <time>1970-01-01T01:00:00Z</time>
      </trkpt>
      <trkpt lat="63.3601405" lon="10.24143633">
        <ele>198.427</ele>
        <time>1970-01-01T01:00:00Z</time>
      </trkpt>
      <trkpt lat="63.36015" lon="10.24139267">
        <ele>198.427</ele>
        <time>1970-01-01T01:00:00Z</time>
      </trkpt>
      <trkpt lat="63.3601615" lon="10.24134767">
        <ele>198.427</ele>
        <time>1970-01-01T01:00:00Z</time>
      </trkpt>
      <trkpt lat="63.36017417" lon="10.24130167">
        <ele>198.58</ele>
        <time>1970-01-01T01:00:00Z</time>
      </trkpt>
      <trkpt lat="63.3601905" lon="10.24125583">
        <ele>198.58</ele>
        <time>1970-01-01T01:00:00Z</time>
      </trkpt>
      <trkpt lat="63.360208" lon="10.24121517">
        <ele>198.58</ele>
        <time>1970-01-01T01:00:00Z</time>
      </trkpt>
      <trkpt lat="63.3602265" lon="10.24117517">
        <ele>198.58</ele>
        <time>1970-01-01T01:00:00Z</time>
      </trkpt>
      <trkpt lat="63.360243" lon="10.24113583">
        <ele>198.58</ele>
        <time>1970-01-01T01:00:00Z</time>
      </trkpt>
      <trkpt lat="63.36026" lon="10.24109017">
        <ele>198.58</ele>
        <time>1970-01-01T01:00:00Z</time>
      </trkpt>
      <trkpt lat="63.36027883" lon="10.2410425">
        <ele>198.427</ele>
        <time>1970-01-01T01:00:00Z</time>
      </trkpt>
      <trkpt lat="63.36029633" lon="10.24099">
        <ele>198.427</ele>
        <time>1970-01-01T01:00:00Z</time>
      </trkpt>
      <trkpt lat="63.360314" lon="10.24093117">
        <ele>198.427</ele>
        <time>1970-01-01T01:00:00Z</time>
      </trkpt>
      <trkpt lat="63.36033017" lon="10.24086667">
        <ele>198.427</ele>
        <time>1970-01-01T01:00:00Z</time>
      </trkpt>
      <trkpt lat="63.3603515" lon="10.2407985">
        <ele>198.275</ele>
        <time>1970-01-01T01:00:00Z</time>
      </trkpt>
      <trkpt lat="63.36037567" lon="10.240737">
        <ele>198.275</ele>
        <time>1970-01-01T01:00:00Z</time>
      </trkpt>
      <trkpt lat="63.36040033" lon="10.2406805">
        <ele>198.275</ele>
        <time>1970-01-01T01:00:00Z</time>
      </trkpt>
      <trkpt lat="63.36042083" lon="10.24062717">
        <ele>198.275</ele>
        <time>1970-01-01T01:00:00Z</time>
      </trkpt>
      <trkpt lat="63.3604385" lon="10.24057717">
        <ele>198.122</ele>
        <time>1970-01-01T01:00:00Z</time>
      </trkpt>
      <trkpt lat="63.36045583" lon="10.2405235">
        <ele>198.122</ele>
        <time>1970-01-01T01:00:00Z</time>
      </trkpt>
      <trkpt lat="63.360473" lon="10.2404715">
        <ele>198.122</ele>
        <time>1970-01-01T01:00:00Z</time>
      </trkpt>
      <trkpt lat="63.36049183" lon="10.24041267">
        <ele>198.122</ele>
        <time>1970-01-01T01:00:00Z</time>
      </trkpt>
      <trkpt lat="63.360511" lon="10.24036083">
        <ele>197.97</ele>
        <time>1970-01-01T01:00:00Z</time>
      </trkpt>
      <trkpt lat="63.36052883" lon="10.24031167">
        <ele>197.97</ele>
        <time>1970-01-01T01:00:00Z</time>
      </trkpt>
      <trkpt lat="63.36054417" lon="10.24026317">
        <ele>197.818</ele>
        <time>1970-01-01T01:00:00Z</time>
      </trkpt>
      <trkpt lat="63.36056" lon="10.24021967">
        <ele>197.818</ele>
        <time>1970-01-01T01:00:00Z</time>
      </trkpt>
      <trkpt lat="63.36058033" lon="10.240176">
        <ele>197.665</ele>
        <time>1970-01-01T01:00:00Z</time>
      </trkpt>
      <trkpt lat="63.36060133" lon="10.2401445">
        <ele>197.665</ele>
        <time>1970-01-01T01:00:00Z</time>
      </trkpt>
      <trkpt lat="63.3606225" lon="10.2401085">
        <ele>197.665</ele>
        <time>1970-01-01T01:00:00Z</time>
      </trkpt>
      <trkpt lat="63.36064033" lon="10.24007333">
        <ele>197.665</ele>
        <time>1970-01-01T01:00:00Z</time>
      </trkpt>
      <trkpt lat="63.36065933" lon="10.2400315">
        <ele>197.513</ele>
        <time>1970-01-01T01:00:00Z</time>
      </trkpt>
      <trkpt lat="63.360678" lon="10.239991">
        <ele>197.513</ele>
        <time>1970-01-01T01:00:00Z</time>
      </trkpt>
      <trkpt lat="63.3606975" lon="10.2399515">
        <ele>197.36</ele>
        <time>1970-01-01T01:00:00Z</time>
      </trkpt>
      <trkpt lat="63.36071783" lon="10.2399155">
        <ele>197.36</ele>
        <time>1970-01-01T01:00:00Z</time>
      </trkpt>
      <trkpt lat="63.3607375" lon="10.23987683">
        <ele>197.36</ele>
        <time>1970-01-01T01:00:00Z</time>
      </trkpt>
      <trkpt lat="63.36075617" lon="10.23983767">
        <ele>197.36</ele>
        <time>1970-01-01T01:00:00Z</time>
      </trkpt>
      <trkpt lat="63.3607735" lon="10.2397965">
        <ele>197.208</ele>
        <time>1970-01-01T01:00:00Z</time>
      </trkpt>
      <trkpt lat="63.3607905" lon="10.23975633">
        <ele>197.208</ele>
        <time>1970-01-01T01:00:00Z</time>
      </trkpt>
      <trkpt lat="63.36080583" lon="10.23971933">
        <ele>197.056</ele>
        <time>1970-01-01T01:00:00Z</time>
      </trkpt>
      <trkpt lat="63.36082" lon="10.23968167">
        <ele>197.056</ele>
        <time>1970-01-01T01:00:00Z</time>
      </trkpt>
      <trkpt lat="63.36083233" lon="10.23964567">
        <ele>197.056</ele>
        <time>1970-01-01T01:00:00Z</time>
      </trkpt>
      <trkpt lat="63.36084417" lon="10.23960733">
        <ele>197.056</ele>
        <time>1970-01-01T01:00:00Z</time>
      </trkpt>
      <trkpt lat="63.3608535" lon="10.239568">
        <ele>196.903</ele>
        <time>1970-01-01T01:00:00Z</time>
      </trkpt>
      <trkpt lat="63.3608615" lon="10.23952917">
        <ele>196.903</ele>
        <time>1970-01-01T01:00:00Z</time>
      </trkpt>
      <trkpt lat="63.360869" lon="10.23949">
        <ele>196.903</ele>
        <time>1970-01-01T01:00:00Z</time>
      </trkpt>
      <trkpt lat="63.36087533" lon="10.239457">
        <ele>196.903</ele>
        <time>1970-01-01T01:00:00Z</time>
      </trkpt>
      <trkpt lat="63.36087983" lon="10.23941983">
        <ele>196.903</ele>
        <time>1970-01-01T01:00:00Z</time>
      </trkpt>
      <trkpt lat="63.36088183" lon="10.2393835">
        <ele>196.903</ele>
        <time>1970-01-01T01:00:00Z</time>
      </trkpt>
      <trkpt lat="63.36088217" lon="10.2393335">
        <ele>196.903</ele>
        <time>1970-01-01T01:00:00Z</time>
      </trkpt>
      <trkpt lat="63.3608815" lon="10.23928083">
        <ele>196.903</ele>
        <time>1970-01-01T01:00:00Z</time>
      </trkpt>
      <trkpt lat="63.36088067" lon="10.239224">
        <ele>196.903</ele>
        <time>1970-01-01T01:00:00Z</time>
      </trkpt>
      <trkpt lat="63.3608775" lon="10.2391755">
        <ele>196.903</ele>
        <time>1970-01-01T01:00:00Z</time>
      </trkpt>
      <trkpt lat="63.36087317" lon="10.23912867">
        <ele>196.903</ele>
        <time>1970-01-01T01:00:00Z</time>
      </trkpt>
      <trkpt lat="63.36086617" lon="10.2390825">
        <ele>196.903</ele>
        <time>1970-01-01T01:00:00Z</time>
      </trkpt>
      <trkpt lat="63.36085933" lon="10.2390335">
        <ele>197.056</ele>
        <time>1970-01-01T01:00:00Z</time>
      </trkpt>
      <trkpt lat="63.36085217" lon="10.23898333">
        <ele>197.056</ele>
        <time>1970-01-01T01:00:00Z</time>
      </trkpt>
      <trkpt lat="63.36084467" lon="10.23894333">
        <ele>197.208</ele>
        <time>1970-01-01T01:00:00Z</time>
      </trkpt>
      <trkpt lat="63.3608375" lon="10.23890683">
        <ele>197.208</ele>
        <time>1970-01-01T01:00:00Z</time>
      </trkpt>
      <trkpt lat="63.36083017" lon="10.23887417">
        <ele>197.208</ele>
        <time>1970-01-01T01:00:00Z</time>
      </trkpt>
      <trkpt lat="63.360823" lon="10.238835">
        <ele>197.208</ele>
        <time>1970-01-01T01:00:00Z</time>
      </trkpt>
      <trkpt lat="63.36081683" lon="10.2387955">
        <ele>197.36</ele>
        <time>1970-01-01T01:00:00Z</time>
      </trkpt>
      <trkpt lat="63.36080867" lon="10.238756">
        <ele>197.36</ele>
        <time>1970-01-01T01:00:00Z</time>
      </trkpt>
      <trkpt lat="63.36080067" lon="10.23871633">
        <ele>197.36</ele>
        <time>1970-01-01T01:00:00Z</time>
      </trkpt>
      <trkpt lat="63.36078817" lon="10.23867717">
        <ele>197.36</ele>
        <time>1970-01-01T01:00:00Z</time>
      </trkpt>
      <trkpt lat="63.36077633" lon="10.23864">
        <ele>197.513</ele>
        <time>1970-01-01T01:00:00Z</time>
      </trkpt>
      <trkpt lat="63.3607625" lon="10.2386055">
        <ele>197.513</ele>
        <time>1970-01-01T01:00:00Z</time>
      </trkpt>
      <trkpt lat="63.36074933" lon="10.23857133">
        <ele>197.513</ele>
        <time>1970-01-01T01:00:00Z</time>
      </trkpt>
      <trkpt lat="63.36073767" lon="10.238534">
        <ele>197.513</ele>
        <time>1970-01-01T01:00:00Z</time>
      </trkpt>
      <trkpt lat="63.36072917" lon="10.238498">
        <ele>197.665</ele>
        <time>1970-01-01T01:00:00Z</time>
      </trkpt>
      <trkpt lat="63.36072217" lon="10.23846067">
        <ele>197.665</ele>
        <time>1970-01-01T01:00:00Z</time>
      </trkpt>
      <trkpt lat="63.360714" lon="10.23842583">
        <ele>197.818</ele>
        <time>1970-01-01T01:00:00Z</time>
      </trkpt>
      <trkpt lat="63.360703" lon="10.23838817">
        <ele>197.818</ele>
        <time>1970-01-01T01:00:00Z</time>
      </trkpt>
      <trkpt lat="63.3606915" lon="10.23835233">
        <ele>197.97</ele>
        <time>1970-01-01T01:00:00Z</time>
      </trkpt>
      <trkpt lat="63.36067967" lon="10.238322">
        <ele>197.97</ele>
        <time>1970-01-01T01:00:00Z</time>
      </trkpt>
      <trkpt lat="63.36066917" lon="10.23829167">
        <ele>198.275</ele>
        <time>1970-01-01T01:00:00Z</time>
      </trkpt>
      <trkpt lat="63.3606605" lon="10.2382575">
        <ele>198.275</ele>
        <time>1970-01-01T01:00:00Z</time>
      </trkpt>
      <trkpt lat="63.36065283" lon="10.2382205">
        <ele>198.427</ele>
        <time>1970-01-01T01:00:00Z</time>
      </trkpt>
      <trkpt lat="63.36064333" lon="10.23817217">
        <ele>198.427</ele>
        <time>1970-01-01T01:00:00Z</time>
      </trkpt>
      <trkpt lat="63.360632" lon="10.23812567">
        <ele>198.58</ele>
        <time>1970-01-01T01:00:00Z</time>
      </trkpt>
      <trkpt lat="63.36061817" lon="10.2380685">
        <ele>198.58</ele>
        <time>1970-01-01T01:00:00Z</time>
      </trkpt>
      <trkpt lat="63.36060583" lon="10.23801783">
        <ele>198.732</ele>
        <time>1970-01-01T01:00:00Z</time>
      </trkpt>
      <trkpt lat="63.3605945" lon="10.23796367">
        <ele>198.732</ele>
        <time>1970-01-01T01:00:00Z</time>
      </trkpt>
      <trkpt lat="63.36058633" lon="10.2379085">
        <ele>198.732</ele>
        <time>1970-01-01T01:00:00Z</time>
      </trkpt>
      <trkpt lat="63.3605805" lon="10.23785233">
        <ele>198.732</ele>
        <time>1970-01-01T01:00:00Z</time>
      </trkpt>
      <trkpt lat="63.360576" lon="10.23780067">
        <ele>198.884</ele>
        <time>1970-01-01T01:00:00Z</time>
      </trkpt>
      <trkpt lat="63.360571" lon="10.2377475">
        <ele>198.884</ele>
        <time>1970-01-01T01:00:00Z</time>
      </trkpt>
      <trkpt lat="63.36056267" lon="10.2376995">
        <ele>198.884</ele>
        <time>1970-01-01T01:00:00Z</time>
      </trkpt>
      <trkpt lat="63.36055367" lon="10.237651">
        <ele>198.884</ele>
        <time>1970-01-01T01:00:00Z</time>
      </trkpt>
      <trkpt lat="63.36054617" lon="10.23760817">
        <ele>198.884</ele>
        <time>1970-01-01T01:00:00Z</time>
      </trkpt>
      <trkpt lat="63.36054017" lon="10.23756783">
        <ele>198.884</ele>
        <time>1970-01-01T01:00:00Z</time>
      </trkpt>
      <trkpt lat="63.36053517" lon="10.23752917">
        <ele>198.884</ele>
        <time>1970-01-01T01:00:00Z</time>
      </trkpt>
      <trkpt lat="63.36053" lon="10.23749583">
        <ele>198.884</ele>
        <time>1970-01-01T01:00:00Z</time>
      </trkpt>
      <trkpt lat="63.36052883" lon="10.23746133">
        <ele>199.037</ele>
        <time>1970-01-01T01:00:00Z</time>
      </trkpt>
      <trkpt lat="63.3605285" lon="10.23742683">
        <ele>199.037</ele>
        <time>1970-01-01T01:00:00Z</time>
      </trkpt>
      <trkpt lat="63.36052767" lon="10.23739517">
        <ele>199.037</ele>
        <time>1970-01-01T01:00:00Z</time>
      </trkpt>
      <trkpt lat="63.360525" lon="10.23736983">
        <ele>199.037</ele>
        <time>1970-01-01T01:00:00Z</time>
      </trkpt>
      <trkpt lat="63.36052233" lon="10.23734783">
        <ele>199.189</ele>
        <time>1970-01-01T01:00:00Z</time>
      </trkpt>
      <trkpt lat="63.36052" lon="10.23732817">
        <ele>199.189</ele>
        <time>1970-01-01T01:00:00Z</time>
      </trkpt>
      <trkpt lat="63.36052183" lon="10.23730967">
        <ele>199.342</ele>
        <time>1970-01-01T01:00:00Z</time>
      </trkpt>
      <trkpt lat="63.36052267" lon="10.23729167">
        <ele>199.342</ele>
        <time>1970-01-01T01:00:00Z</time>
      </trkpt>
      <trkpt lat="63.36052317" lon="10.23727283">
        <ele>199.494</ele>
        <time>1970-01-01T01:00:00Z</time>
      </trkpt>
      <trkpt lat="63.36052017" lon="10.237249">
        <ele>199.494</ele>
        <time>1970-01-01T01:00:00Z</time>
      </trkpt>
      <trkpt lat="63.360517" lon="10.2372255">
        <ele>199.646</ele>
        <time>1970-01-01T01:00:00Z</time>
      </trkpt>
      <trkpt lat="63.36051567" lon="10.23720117">
        <ele>199.646</ele>
        <time>1970-01-01T01:00:00Z</time>
      </trkpt>
      <trkpt lat="63.3605145" lon="10.23718083">
        <ele>199.799</ele>
        <time>1970-01-01T01:00:00Z</time>
      </trkpt>
      <trkpt lat="63.36051617" lon="10.23715467">
        <ele>199.799</ele>
        <time>1970-01-01T01:00:00Z</time>
      </trkpt>
      <trkpt lat="63.36051733" lon="10.23713117">
        <ele>199.951</ele>
        <time>1970-01-01T01:00:00Z</time>
      </trkpt>
      <trkpt lat="63.36051717" lon="10.23710017">
        <ele>199.951</ele>
        <time>1970-01-01T01:00:00Z</time>
      </trkpt>
      <trkpt lat="63.36051383" lon="10.23707233">
        <ele>200.256</ele>
        <time>1970-01-01T01:00:00Z</time>
      </trkpt>
      <trkpt lat="63.36050933" lon="10.23704317">
        <ele>200.256</ele>
        <time>1970-01-01T01:00:00Z</time>
      </trkpt>
      <trkpt lat="63.36050583" lon="10.23701883">
        <ele>200.561</ele>
        <time>1970-01-01T01:00:00Z</time>
      </trkpt>
      <trkpt lat="63.360502" lon="10.23699683">
        <ele>200.561</ele>
        <time>1970-01-01T01:00:00Z</time>
      </trkpt>
      <trkpt lat="63.36049867" lon="10.236974">
        <ele>200.866</ele>
        <time>1970-01-01T01:00:00Z</time>
      </trkpt>
      <trkpt lat="63.36049583" lon="10.2369495">
        <ele>200.866</ele>
        <time>1970-01-01T01:00:00Z</time>
      </trkpt>
      <trkpt lat="63.360494" lon="10.236925">
        <ele>201.17</ele>
        <time>1970-01-01T01:00:00Z</time>
      </trkpt>
      <trkpt lat="63.36049183" lon="10.23690117">
        <ele>201.17</ele>
        <time>1970-01-01T01:00:00Z</time>
      </trkpt>
      <trkpt lat="63.36048867" lon="10.23687983">
        <ele>201.323</ele>
        <time>1970-01-01T01:00:00Z</time>
      </trkpt>
      <trkpt lat="63.36048633" lon="10.2368545">
        <ele>201.323</ele>
        <time>1970-01-01T01:00:00Z</time>
      </trkpt>
      <trkpt lat="63.360485" lon="10.23682333">
        <ele>201.628</ele>
        <time>1970-01-01T01:00:00Z</time>
      </trkpt>
      <trkpt lat="63.36048333" lon="10.23679017">
        <ele>201.628</ele>
        <time>1970-01-01T01:00:00Z</time>
      </trkpt>
      <trkpt lat="63.36048317" lon="10.23676283">
        <ele>201.932</ele>
        <time>1970-01-01T01:00:00Z</time>
      </trkpt>
      <trkpt lat="63.3604825" lon="10.236735">
        <ele>201.932</ele>
        <time>1970-01-01T01:00:00Z</time>
      </trkpt>
      <trkpt lat="63.36048133" lon="10.23671083">
        <ele>202.237</ele>
        <time>1970-01-01T01:00:00Z</time>
      </trkpt>
      <trkpt lat="63.360478" lon="10.23668383">
        <ele>202.237</ele>
        <time>1970-01-01T01:00:00Z</time>
      </trkpt>
      <trkpt lat="63.3604735" lon="10.2366635">
        <ele>202.542</ele>
        <time>1970-01-01T01:00:00Z</time>
      </trkpt>
      <trkpt lat="63.36047083" lon="10.236641">
        <ele>202.542</ele>
        <time>1970-01-01T01:00:00Z</time>
      </trkpt>
      <trkpt lat="63.36046817" lon="10.23662233">
        <ele>202.694</ele>
        <time>1970-01-01T01:00:00Z</time>
      </trkpt>
      <trkpt lat="63.360466" lon="10.23659767">
        <ele>202.694</ele>
        <time>1970-01-01T01:00:00Z</time>
      </trkpt>
      <trkpt lat="63.36046483" lon="10.23656967">
        <ele>202.999</ele>
        <time>1970-01-01T01:00:00Z</time>
      </trkpt>
      <trkpt lat="63.36046367" lon="10.23653733">
        <ele>202.999</ele>
        <time>1970-01-01T01:00:00Z</time>
      </trkpt>
      <trkpt lat="63.36046333" lon="10.23650983">
        <ele>203.304</ele>
        <time>1970-01-01T01:00:00Z</time>
      </trkpt>
      <trkpt lat="63.360463" lon="10.23648383">
        <ele>203.304</ele>
        <time>1970-01-01T01:00:00Z</time>
      </trkpt>
      <trkpt lat="63.36046217" lon="10.2364575">
        <ele>203.456</ele>
        <time>1970-01-01T01:00:00Z</time>
      </trkpt>
      <trkpt lat="63.36046033" lon="10.23642933">
        <ele>203.456</ele>
        <time>1970-01-01T01:00:00Z</time>
      </trkpt>
      <trkpt lat="63.36045583" lon="10.23639233">
        <ele>203.761</ele>
        <time>1970-01-01T01:00:00Z</time>
      </trkpt>
      <trkpt lat="63.36045183" lon="10.23635567">
        <ele>203.761</ele>
        <time>1970-01-01T01:00:00Z</time>
      </trkpt>
      <trkpt lat="63.36044683" lon="10.2363175">
        <ele>204.066</ele>
        <time>1970-01-01T01:00:00Z</time>
      </trkpt>
      <trkpt lat="63.36044217" lon="10.23628533">
        <ele>204.066</ele>
        <time>1970-01-01T01:00:00Z</time>
      </trkpt>
      <trkpt lat="63.3604385" lon="10.23625283">
        <ele>204.371</ele>
        <time>1970-01-01T01:00:00Z</time>
      </trkpt>
      <trkpt lat="63.36043617" lon="10.236222">
        <ele>204.371</ele>
        <time>1970-01-01T01:00:00Z</time>
      </trkpt>
      <trkpt lat="63.36043433" lon="10.23619483">
        <ele>204.523</ele>
        <time>1970-01-01T01:00:00Z</time>
      </trkpt>
      <trkpt lat="63.36043117" lon="10.23616733">
        <ele>204.523</ele>
        <time>1970-01-01T01:00:00Z</time>
      </trkpt>
      <trkpt lat="63.360427" lon="10.23613783">
        <ele>204.828</ele>
        <time>1970-01-01T01:00:00Z</time>
      </trkpt>
      <trkpt lat="63.36042283" lon="10.23610383">
        <ele>204.828</ele>
        <time>1970-01-01T01:00:00Z</time>
      </trkpt>
      <trkpt lat="63.36041767" lon="10.23606667">
        <ele>205.133</ele>
        <time>1970-01-01T01:00:00Z</time>
      </trkpt>
      <trkpt lat="63.3604115" lon="10.23602817">
        <ele>205.133</ele>
        <time>1970-01-01T01:00:00Z</time>
      </trkpt>
      <trkpt lat="63.36040317" lon="10.23598683">
        <ele>205.285</ele>
        <time>1970-01-01T01:00:00Z</time>
      </trkpt>
      <trkpt lat="63.36039167" lon="10.23594317">
        <ele>205.285</ele>
        <time>1970-01-01T01:00:00Z</time>
      </trkpt>
      <trkpt lat="63.36037783" lon="10.23589533">
        <ele>205.59</ele>
        <time>1970-01-01T01:00:00Z</time>
      </trkpt>
      <trkpt lat="63.36036283" lon="10.235845">
        <ele>205.59</ele>
        <time>1970-01-01T01:00:00Z</time>
      </trkpt>
      <trkpt lat="63.36034833" lon="10.23579383">
        <ele>206.047</ele>
        <time>1970-01-01T01:00:00Z</time>
      </trkpt>
      <trkpt lat="63.36033533" lon="10.23574333">
        <ele>206.047</ele>
        <time>1970-01-01T01:00:00Z</time>
      </trkpt>
      <trkpt lat="63.36032383" lon="10.2356945">
        <ele>206.352</ele>
        <time>1970-01-01T01:00:00Z</time>
      </trkpt>
      <trkpt lat="63.36031367" lon="10.235645">
        <ele>206.352</ele>
        <time>1970-01-01T01:00:00Z</time>
      </trkpt>
      <trkpt lat="63.3603025" lon="10.2355905">
        <ele>206.657</ele>
        <time>1970-01-01T01:00:00Z</time>
      </trkpt>
      <trkpt lat="63.3602925" lon="10.23553833">
        <ele>206.657</ele>
        <time>1970-01-01T01:00:00Z</time>
      </trkpt>
      <trkpt lat="63.36028117" lon="10.23548367">
        <ele>206.962</ele>
        <time>1970-01-01T01:00:00Z</time>
      </trkpt>
      <trkpt lat="63.36027117" lon="10.23543517">
        <ele>206.962</ele>
        <time>1970-01-01T01:00:00Z</time>
      </trkpt>
      <trkpt lat="63.3602595" lon="10.23538383">
        <ele>207.267</ele>
        <time>1970-01-01T01:00:00Z</time>
      </trkpt>
      <trkpt lat="63.3602485" lon="10.23533283">
        <ele>207.267</ele>
        <time>1970-01-01T01:00:00Z</time>
      </trkpt>
      <trkpt lat="63.36023767" lon="10.235279">
        <ele>207.571</ele>
        <time>1970-01-01T01:00:00Z</time>
      </trkpt>
      <trkpt lat="63.36022717" lon="10.23522433">
        <ele>207.571</ele>
        <time>1970-01-01T01:00:00Z</time>
      </trkpt>
      <trkpt lat="63.3602175" lon="10.2351705">
        <ele>207.876</ele>
        <time>1970-01-01T01:00:00Z</time>
      </trkpt>
      <trkpt lat="63.3602055" lon="10.23512117">
        <ele>207.876</ele>
        <time>1970-01-01T01:00:00Z</time>
      </trkpt>
      <trkpt lat="63.36019483" lon="10.2350745">
        <ele>208.181</ele>
        <time>1970-01-01T01:00:00Z</time>
      </trkpt>
      <trkpt lat="63.3601855" lon="10.23503267">
        <ele>208.181</ele>
        <time>1970-01-01T01:00:00Z</time>
      </trkpt>
      <trkpt lat="63.36017983" lon="10.23498517">
        <ele>208.333</ele>
        <time>1970-01-01T01:00:00Z</time>
      </trkpt>
      <trkpt lat="63.3601735" lon="10.23493783">
        <ele>208.333</ele>
        <time>1970-01-01T01:00:00Z</time>
      </trkpt>
      <trkpt lat="63.36016083" lon="10.234883">
        <ele>208.638</ele>
        <time>1970-01-01T01:00:00Z</time>
      </trkpt>
      <trkpt lat="63.360145" lon="10.23483067">
        <ele>208.638</ele>
        <time>1970-01-01T01:00:00Z</time>
      </trkpt>
      <trkpt lat="63.3601275" lon="10.23477583">
        <ele>208.791</ele>
        <time>1970-01-01T01:00:00Z</time>
      </trkpt>
      <trkpt lat="63.36011233" lon="10.23472183">
        <ele>208.791</ele>
        <time>1970-01-01T01:00:00Z</time>
      </trkpt>
      <trkpt lat="63.3600985" lon="10.23467133">
        <ele>209.095</ele>
        <time>1970-01-01T01:00:00Z</time>
      </trkpt>
      <trkpt lat="63.36008417" lon="10.23462283">
        <ele>209.095</ele>
        <time>1970-01-01T01:00:00Z</time>
      </trkpt>
      <trkpt lat="63.360069" lon="10.2345785">
        <ele>209.248</ele>
        <time>1970-01-01T01:00:00Z</time>
      </trkpt>
      <trkpt lat="63.36005167" lon="10.2345375">
        <ele>209.248</ele>
        <time>1970-01-01T01:00:00Z</time>
      </trkpt>
      <trkpt lat="63.36003367" lon="10.234497">
        <ele>209.4</ele>
        <time>1970-01-01T01:00:00Z</time>
      </trkpt>
      <trkpt lat="63.36001317" lon="10.234465">
        <ele>209.4</ele>
        <time>1970-01-01T01:00:00Z</time>
      </trkpt>
      <trkpt lat="63.35998917" lon="10.234433">
        <ele>209.553</ele>
        <time>1970-01-01T01:00:00Z</time>
      </trkpt>
      <trkpt lat="63.35996367" lon="10.23440667">
        <ele>209.553</ele>
        <time>1970-01-01T01:00:00Z</time>
      </trkpt>
      <trkpt lat="63.35993917" lon="10.2343795">
        <ele>209.705</ele>
        <time>1970-01-01T01:00:00Z</time>
      </trkpt>
      <trkpt lat="63.35991433" lon="10.23435983">
        <ele>209.705</ele>
        <time>1970-01-01T01:00:00Z</time>
      </trkpt>
      <trkpt lat="63.359891" lon="10.23434383">
        <ele>209.857</ele>
        <time>1970-01-01T01:00:00Z</time>
      </trkpt>
      <trkpt lat="63.359869" lon="10.23432833">
        <ele>209.857</ele>
        <time>1970-01-01T01:00:00Z</time>
      </trkpt>
      <trkpt lat="63.35984767" lon="10.23430983">
        <ele>210.01</ele>
        <time>1970-01-01T01:00:00Z</time>
      </trkpt>
      <trkpt lat="63.35982333" lon="10.23429167">
        <ele>210.01</ele>
        <time>1970-01-01T01:00:00Z</time>
      </trkpt>
      <trkpt lat="63.35979633" lon="10.2342795">
        <ele>210.162</ele>
        <time>1970-01-01T01:00:00Z</time>
      </trkpt>
      <trkpt lat="63.35976833" lon="10.234273">
        <ele>210.162</ele>
        <time>1970-01-01T01:00:00Z</time>
      </trkpt>
      <trkpt lat="63.35973983" lon="10.23426767">
        <ele>210.315</ele>
        <time>1970-01-01T01:00:00Z</time>
      </trkpt>
      <trkpt lat="63.359712" lon="10.23426133">
        <ele>210.315</ele>
        <time>1970-01-01T01:00:00Z</time>
      </trkpt>
      <trkpt lat="63.35968267" lon="10.23425283">
        <ele>210.315</ele>
        <time>1970-01-01T01:00:00Z</time>
      </trkpt>
      <trkpt lat="63.359654" lon="10.2342455">
        <ele>210.315</ele>
        <time>1970-01-01T01:00:00Z</time>
      </trkpt>
      <trkpt lat="63.35962333" lon="10.23423583">
        <ele>210.315</ele>
        <time>1970-01-01T01:00:00Z</time>
      </trkpt>
      <trkpt lat="63.35959283" lon="10.23422383">
        <ele>210.315</ele>
        <time>1970-01-01T01:00:00Z</time>
      </trkpt>
      <trkpt lat="63.3595615" lon="10.23421267">
        <ele>210.315</ele>
        <time>1970-01-01T01:00:00Z</time>
      </trkpt>
      <trkpt lat="63.359532" lon="10.23420067">
        <ele>210.315</ele>
        <time>1970-01-01T01:00:00Z</time>
      </trkpt>
      <trkpt lat="63.35950433" lon="10.2341885">
        <ele>210.162</ele>
        <time>1970-01-01T01:00:00Z</time>
      </trkpt>
      <trkpt lat="63.35947767" lon="10.23417617">
        <ele>210.162</ele>
        <time>1970-01-01T01:00:00Z</time>
      </trkpt>
      <trkpt lat="63.35945133" lon="10.23416767">
        <ele>210.162</ele>
        <time>1970-01-01T01:00:00Z</time>
      </trkpt>
      <trkpt lat="63.35942367" lon="10.23416133">
        <ele>210.162</ele>
        <time>1970-01-01T01:00:00Z</time>
      </trkpt>
      <trkpt lat="63.359398" lon="10.23415833">
        <ele>210.01</ele>
        <time>1970-01-01T01:00:00Z</time>
      </trkpt>
      <trkpt lat="63.35937767" lon="10.23415767">
        <ele>210.01</ele>
        <time>1970-01-01T01:00:00Z</time>
      </trkpt>
      <trkpt lat="63.35935983" lon="10.2341545">
        <ele>209.857</ele>
        <time>1970-01-01T01:00:00Z</time>
      </trkpt>
      <trkpt lat="63.35934383" lon="10.23414833">
        <ele>209.857</ele>
        <time>1970-01-01T01:00:00Z</time>
      </trkpt>
      <trkpt lat="63.3593235" lon="10.23413867">
        <ele>209.705</ele>
        <time>1970-01-01T01:00:00Z</time>
      </trkpt>
      <trkpt lat="63.359302" lon="10.23413667">
        <ele>209.705</ele>
        <time>1970-01-01T01:00:00Z</time>
      </trkpt>
      <trkpt lat="63.35927733" lon="10.234134">
        <ele>209.553</ele>
        <time>1970-01-01T01:00:00Z</time>
      </trkpt>
      <trkpt lat="63.35925083" lon="10.23413317">
        <ele>209.553</ele>
        <time>1970-01-01T01:00:00Z</time>
      </trkpt>
      <trkpt lat="63.35922383" lon="10.23412717">
        <ele>209.4</ele>
        <time>1970-01-01T01:00:00Z</time>
      </trkpt>
      <trkpt lat="63.35919383" lon="10.23411833">
        <ele>209.4</ele>
        <time>1970-01-01T01:00:00Z</time>
      </trkpt>
      <trkpt lat="63.35916517" lon="10.23410767">
        <ele>209.248</ele>
        <time>1970-01-01T01:00:00Z</time>
      </trkpt>
      <trkpt lat="63.359136" lon="10.23409733">
        <ele>209.248</ele>
        <time>1970-01-01T01:00:00Z</time>
      </trkpt>
      <trkpt lat="63.35910617" lon="10.2340905">
        <ele>209.095</ele>
        <time>1970-01-01T01:00:00Z</time>
      </trkpt>
      <trkpt lat="63.35907517" lon="10.234085">
        <ele>209.095</ele>
        <time>1970-01-01T01:00:00Z</time>
      </trkpt>
      <trkpt lat="63.35904467" lon="10.2340795">
        <ele>208.943</ele>
        <time>1970-01-01T01:00:00Z</time>
      </trkpt>
      <trkpt lat="63.35901783" lon="10.2340745">
        <ele>208.943</ele>
        <time>1970-01-01T01:00:00Z</time>
      </trkpt>
      <trkpt lat="63.35899283" lon="10.23407267">
        <ele>208.791</ele>
        <time>1970-01-01T01:00:00Z</time>
      </trkpt>
      <trkpt lat="63.358969" lon="10.23407033">
        <ele>208.791</ele>
        <time>1970-01-01T01:00:00Z</time>
      </trkpt>
      <trkpt lat="63.358945" lon="10.23406967">
        <ele>208.486</ele>
        <time>1970-01-01T01:00:00Z</time>
      </trkpt>
      <trkpt lat="63.35892067" lon="10.23406717">
        <ele>208.486</ele>
        <time>1970-01-01T01:00:00Z</time>
      </trkpt>
      <trkpt lat="63.35889683" lon="10.23406683">
        <ele>208.333</ele>
        <time>1970-01-01T01:00:00Z</time>
      </trkpt>
      <trkpt lat="63.35887417" lon="10.23406433">
        <ele>208.333</ele>
        <time>1970-01-01T01:00:00Z</time>
      </trkpt>
      <trkpt lat="63.3588535" lon="10.23406733">
        <ele>208.181</ele>
        <time>1970-01-01T01:00:00Z</time>
      </trkpt>
      <trkpt lat="63.35883117" lon="10.2340715">
        <ele>208.181</ele>
        <time>1970-01-01T01:00:00Z</time>
      </trkpt>
      <trkpt lat="63.35881" lon="10.234072">
        <ele>208.029</ele>
        <time>1970-01-01T01:00:00Z</time>
      </trkpt>
      <trkpt lat="63.35878733" lon="10.23406767">
        <ele>208.029</ele>
        <time>1970-01-01T01:00:00Z</time>
      </trkpt>
      <trkpt lat="63.35876317" lon="10.23405783">
        <ele>207.876</ele>
        <time>1970-01-01T01:00:00Z</time>
      </trkpt>
      <trkpt lat="63.35873783" lon="10.23404967">
        <ele>207.876</ele>
        <time>1970-01-01T01:00:00Z</time>
      </trkpt>
      <trkpt lat="63.35871017" lon="10.23404383">
        <ele>207.724</ele>
        <time>1970-01-01T01:00:00Z</time>
      </trkpt>
      <trkpt lat="63.35868533" lon="10.234042">
        <ele>207.724</ele>
        <time>1970-01-01T01:00:00Z</time>
      </trkpt>
      <trkpt lat="63.35866033" lon="10.23404567">
        <ele>207.571</ele>
        <time>1970-01-01T01:00:00Z</time>
      </trkpt>
      <trkpt lat="63.3586365" lon="10.23405033">
        <ele>207.571</ele>
        <time>1970-01-01T01:00:00Z</time>
      </trkpt>
      <trkpt lat="63.35861267" lon="10.23406283">
        <ele>207.419</ele>
        <time>1970-01-01T01:00:00Z</time>
      </trkpt>
      <trkpt lat="63.35858817" lon="10.23408433">
        <ele>207.419</ele>
        <time>1970-01-01T01:00:00Z</time>
      </trkpt>
      <trkpt lat="63.35856567" lon="10.23411333">
        <ele>207.267</ele>
        <time>1970-01-01T01:00:00Z</time>
      </trkpt>
      <trkpt lat="63.358544" lon="10.2341505">
        <ele>207.267</ele>
        <time>1970-01-01T01:00:00Z</time>
      </trkpt>
      <trkpt lat="63.35852483" lon="10.234197">
        <ele>207.267</ele>
        <time>1970-01-01T01:00:00Z</time>
      </trkpt>
      <trkpt lat="63.35850633" lon="10.2342495">
        <ele>207.267</ele>
        <time>1970-01-01T01:00:00Z</time>
      </trkpt>
      <trkpt lat="63.35848983" lon="10.234305">
        <ele>207.114</ele>
        <time>1970-01-01T01:00:00Z</time>
      </trkpt>
      <trkpt lat="63.358475" lon="10.23435483">
        <ele>207.114</ele>
        <time>1970-01-01T01:00:00Z</time>
      </trkpt>
      <trkpt lat="63.35846217" lon="10.2344045">
        <ele>207.114</ele>
        <time>1970-01-01T01:00:00Z</time>
      </trkpt>
      <trkpt lat="63.358451" lon="10.23445167">
        <ele>207.114</ele>
        <time>1970-01-01T01:00:00Z</time>
      </trkpt>
      <trkpt lat="63.35843983" lon="10.23450117">
        <ele>207.114</ele>
        <time>1970-01-01T01:00:00Z</time>
      </trkpt>
      <trkpt lat="63.35842883" lon="10.23455167">
        <ele>207.114</ele>
        <time>1970-01-01T01:00:00Z</time>
      </trkpt>
      <trkpt lat="63.35841667" lon="10.234604">
        <ele>207.114</ele>
        <time>1970-01-01T01:00:00Z</time>
      </trkpt>
      <trkpt lat="63.35840383" lon="10.234661">
        <ele>207.114</ele>
        <time>1970-01-01T01:00:00Z</time>
      </trkpt>
      <trkpt lat="63.35839217" lon="10.2347145">
        <ele>207.114</ele>
        <time>1970-01-01T01:00:00Z</time>
      </trkpt>
      <trkpt lat="63.35838117" lon="10.23476933">
        <ele>207.114</ele>
        <time>1970-01-01T01:00:00Z</time>
      </trkpt>
      <trkpt lat="63.3583715" lon="10.23482017">
        <ele>207.114</ele>
        <time>1970-01-01T01:00:00Z</time>
      </trkpt>
      <trkpt lat="63.3583625" lon="10.23487633">
        <ele>207.114</ele>
        <time>1970-01-01T01:00:00Z</time>
      </trkpt>
      <trkpt lat="63.35835267" lon="10.234935">
        <ele>207.114</ele>
        <time>1970-01-01T01:00:00Z</time>
      </trkpt>
      <trkpt lat="63.35834283" lon="10.23499383">
        <ele>207.114</ele>
        <time>1970-01-01T01:00:00Z</time>
      </trkpt>
      <trkpt lat="63.35833217" lon="10.23505283">
        <ele>207.114</ele>
        <time>1970-01-01T01:00:00Z</time>
      </trkpt>
      <trkpt lat="63.35832183" lon="10.23511633">
        <ele>207.114</ele>
        <time>1970-01-01T01:00:00Z</time>
      </trkpt>
      <trkpt lat="63.35831117" lon="10.235182">
        <ele>207.114</ele>
        <time>1970-01-01T01:00:00Z</time>
      </trkpt>
      <trkpt lat="63.35830083" lon="10.2352475">
        <ele>207.114</ele>
        <time>1970-01-01T01:00:00Z</time>
      </trkpt>
      <trkpt lat="63.358293" lon="10.23531">
        <ele>207.114</ele>
        <time>1970-01-01T01:00:00Z</time>
      </trkpt>
      <trkpt lat="63.35828767" lon="10.23537233">
        <ele>207.114</ele>
        <time>1970-01-01T01:00:00Z</time>
      </trkpt>
      <trkpt lat="63.35828333" lon="10.2354345">
        <ele>207.114</ele>
        <time>1970-01-01T01:00:00Z</time>
      </trkpt>
      <trkpt lat="63.3582805" lon="10.235488">
        <ele>207.114</ele>
        <time>1970-01-01T01:00:00Z</time>
      </trkpt>
      <trkpt lat="63.35827867" lon="10.23553567">
        <ele>207.267</ele>
        <time>1970-01-01T01:00:00Z</time>
      </trkpt>
      <trkpt lat="63.358277" lon="10.2355765">
        <ele>207.267</ele>
        <time>1970-01-01T01:00:00Z</time>
      </trkpt>
      <trkpt lat="63.35827283" lon="10.2356175">
        <ele>207.267</ele>
        <time>1970-01-01T01:00:00Z</time>
      </trkpt>
      <trkpt lat="63.3582665" lon="10.23565533">
        <ele>207.267</ele>
        <time>1970-01-01T01:00:00Z</time>
      </trkpt>
      <trkpt lat="63.35826" lon="10.2356905">
        <ele>207.419</ele>
        <time>1970-01-01T01:00:00Z</time>
      </trkpt>
      <trkpt lat="63.35825833" lon="10.2357235">
        <ele>207.419</ele>
        <time>1970-01-01T01:00:00Z</time>
      </trkpt>
      <trkpt lat="63.35825783" lon="10.23575967">
        <ele>207.571</ele>
        <time>1970-01-01T01:00:00Z</time>
      </trkpt>
      <trkpt lat="63.358258" lon="10.2358005">
        <ele>207.571</ele>
        <time>1970-01-01T01:00:00Z</time>
      </trkpt>
      <trkpt lat="63.3582555" lon="10.23584083">
        <ele>207.876</ele>
        <time>1970-01-01T01:00:00Z</time>
      </trkpt>
      <trkpt lat="63.35825133" lon="10.23587683">
        <ele>207.876</ele>
        <time>1970-01-01T01:00:00Z</time>
      </trkpt>
      <trkpt lat="63.358246" lon="10.23591683">
        <ele>208.029</ele>
        <time>1970-01-01T01:00:00Z</time>
      </trkpt>
      <trkpt lat="63.358241" lon="10.23596167">
        <ele>208.029</ele>
        <time>1970-01-01T01:00:00Z</time>
      </trkpt>
      <trkpt lat="63.358238" lon="10.23601717">
        <ele>208.333</ele>
        <time>1970-01-01T01:00:00Z</time>
      </trkpt>
      <trkpt lat="63.35823483" lon="10.23606967">
        <ele>208.333</ele>
        <time>1970-01-01T01:00:00Z</time>
      </trkpt>
      <trkpt lat="63.35823" lon="10.23612083">
        <ele>208.638</ele>
        <time>1970-01-01T01:00:00Z</time>
      </trkpt>
      <trkpt lat="63.35822017" lon="10.23617383">
        <ele>208.638</ele>
        <time>1970-01-01T01:00:00Z</time>
      </trkpt>
      <trkpt lat="63.35820867" lon="10.23622833">
        <ele>208.943</ele>
        <time>1970-01-01T01:00:00Z</time>
      </trkpt>
      <trkpt lat="63.35819533" lon="10.23628733">
        <ele>208.943</ele>
        <time>1970-01-01T01:00:00Z</time>
      </trkpt>
      <trkpt lat="63.3581855" lon="10.23634267">
        <ele>209.248</ele>
        <time>1970-01-01T01:00:00Z</time>
      </trkpt>
      <trkpt lat="63.35817867" lon="10.236396">
        <ele>209.248</ele>
        <time>1970-01-01T01:00:00Z</time>
      </trkpt>
      <trkpt lat="63.35817267" lon="10.23644717">
        <ele>209.705</ele>
        <time>1970-01-01T01:00:00Z</time>
      </trkpt>
      <trkpt lat="63.3581665" lon="10.23649117">
        <ele>209.705</ele>
        <time>1970-01-01T01:00:00Z</time>
      </trkpt>
      <trkpt lat="63.35815833" lon="10.23653683">
        <ele>210.01</ele>
        <time>1970-01-01T01:00:00Z</time>
      </trkpt>
      <trkpt lat="63.358152" lon="10.23658167">
        <ele>210.01</ele>
        <time>1970-01-01T01:00:00Z</time>
      </trkpt>
      <trkpt lat="63.35814467" lon="10.236629">
        <ele>210.315</ele>
        <time>1970-01-01T01:00:00Z</time>
      </trkpt>
      <trkpt lat="63.35813617" lon="10.23667183">
        <ele>210.315</ele>
        <time>1970-01-01T01:00:00Z</time>
      </trkpt>
      <trkpt lat="63.35812517" lon="10.23671433">
        <ele>210.619</ele>
        <time>1970-01-01T01:00:00Z</time>
      </trkpt>
      <trkpt lat="63.3581155" lon="10.2367595">
        <ele>210.619</ele>
        <time>1970-01-01T01:00:00Z</time>
      </trkpt>
      <trkpt lat="63.358109" lon="10.23680817">
        <ele>210.924</ele>
        <time>1970-01-01T01:00:00Z</time>
      </trkpt>
      <trkpt lat="63.35810567" lon="10.23685867">
        <ele>210.924</ele>
        <time>1970-01-01T01:00:00Z</time>
      </trkpt>
      <trkpt lat="63.3581035" lon="10.23691117">
        <ele>211.077</ele>
        <time>1970-01-01T01:00:00Z</time>
      </trkpt>
      <trkpt lat="63.358102" lon="10.23696617">
        <ele>211.077</ele>
        <time>1970-01-01T01:00:00Z</time>
      </trkpt>
      <trkpt lat="63.35810033" lon="10.23702217">
        <ele>211.381</ele>
        <time>1970-01-01T01:00:00Z</time>
      </trkpt>
      <trkpt lat="63.35809783" lon="10.23707633">
        <ele>211.381</ele>
        <time>1970-01-01T01:00:00Z</time>
      </trkpt>
      <trkpt lat="63.35809433" lon="10.23712683">
        <ele>211.534</ele>
        <time>1970-01-01T01:00:00Z</time>
      </trkpt>
      <trkpt lat="63.35809033" lon="10.23717683">
        <ele>211.534</ele>
        <time>1970-01-01T01:00:00Z</time>
      </trkpt>
      <trkpt lat="63.35808567" lon="10.2372275">
        <ele>211.839</ele>
        <time>1970-01-01T01:00:00Z</time>
      </trkpt>
      <trkpt lat="63.3580805" lon="10.23728283">
        <ele>211.839</ele>
        <time>1970-01-01T01:00:00Z</time>
      </trkpt>
      <trkpt lat="63.35807317" lon="10.23733967">
        <ele>212.143</ele>
        <time>1970-01-01T01:00:00Z</time>
      </trkpt>
      <trkpt lat="63.35806333" lon="10.237395">
        <ele>212.143</ele>
        <time>1970-01-01T01:00:00Z</time>
      </trkpt>
      <trkpt lat="63.35804717" lon="10.2374485">
        <ele>212.296</ele>
        <time>1970-01-01T01:00:00Z</time>
      </trkpt>
      <trkpt lat="63.3580335" lon="10.23749783">
        <ele>212.296</ele>
        <time>1970-01-01T01:00:00Z</time>
      </trkpt>
      <trkpt lat="63.35801917" lon="10.23754667">
        <ele>212.601</ele>
        <time>1970-01-01T01:00:00Z</time>
      </trkpt>
      <trkpt lat="63.358009" lon="10.23759333">
        <ele>212.601</ele>
        <time>1970-01-01T01:00:00Z</time>
      </trkpt>
      <trkpt lat="63.35799733" lon="10.23764033">
        <ele>212.753</ele>
        <time>1970-01-01T01:00:00Z</time>
      </trkpt>
      <trkpt lat="63.3579865" lon="10.23768767">
        <ele>212.753</ele>
        <time>1970-01-01T01:00:00Z</time>
      </trkpt>
      <trkpt lat="63.35797583" lon="10.237734">
        <ele>213.058</ele>
        <time>1970-01-01T01:00:00Z</time>
      </trkpt>
      <trkpt lat="63.35796483" lon="10.23777767">
        <ele>213.058</ele>
        <time>1970-01-01T01:00:00Z</time>
      </trkpt>
      <trkpt lat="63.3579555" lon="10.23782317">
        <ele>213.21</ele>
        <time>1970-01-01T01:00:00Z</time>
      </trkpt>
      <trkpt lat="63.35794783" lon="10.237868">
        <ele>213.21</ele>
        <time>1970-01-01T01:00:00Z</time>
      </trkpt>
      <trkpt lat="63.3579385" lon="10.237921">
        <ele>213.515</ele>
        <time>1970-01-01T01:00:00Z</time>
      </trkpt>
      <trkpt lat="63.35792933" lon="10.23797017">
        <ele>213.515</ele>
        <time>1970-01-01T01:00:00Z</time>
      </trkpt>
      <trkpt lat="63.35791817" lon="10.23802217">
        <ele>213.667</ele>
        <time>1970-01-01T01:00:00Z</time>
      </trkpt>
      <trkpt lat="63.35790783" lon="10.23806983">
        <ele>213.667</ele>
        <time>1970-01-01T01:00:00Z</time>
      </trkpt>
      <trkpt lat="63.35789917" lon="10.23812133">
        <ele>213.82</ele>
        <time>1970-01-01T01:00:00Z</time>
      </trkpt>
      <trkpt lat="63.3578905" lon="10.2381735">
        <ele>213.82</ele>
        <time>1970-01-01T01:00:00Z</time>
      </trkpt>
      <trkpt lat="63.35788317" lon="10.23822233">
        <ele>213.972</ele>
        <time>1970-01-01T01:00:00Z</time>
      </trkpt>
      <trkpt lat="63.35787317" lon="10.23826567">
        <ele>213.972</ele>
        <time>1970-01-01T01:00:00Z</time>
      </trkpt>
      <trkpt lat="63.35785983" lon="10.23830433">
        <ele>214.277</ele>
        <time>1970-01-01T01:00:00Z</time>
      </trkpt>
      <trkpt lat="63.35784583" lon="10.23834433">
        <ele>214.277</ele>
        <time>1970-01-01T01:00:00Z</time>
      </trkpt>
      <trkpt lat="63.35783167" lon="10.238388">
        <ele>214.277</ele>
        <time>1970-01-01T01:00:00Z</time>
      </trkpt>
      <trkpt lat="63.3578195" lon="10.23843567">
        <ele>214.277</ele>
        <time>1970-01-01T01:00:00Z</time>
      </trkpt>
      <trkpt lat="63.35780583" lon="10.23848483">
        <ele>214.429</ele>
        <time>1970-01-01T01:00:00Z</time>
      </trkpt>
      <trkpt lat="63.357791" lon="10.23853883">
        <ele>214.429</ele>
        <time>1970-01-01T01:00:00Z</time>
      </trkpt>
      <trkpt lat="63.3577765" lon="10.23859233">
        <ele>214.582</ele>
        <time>1970-01-01T01:00:00Z</time>
      </trkpt>
      <trkpt lat="63.35776317" lon="10.23864817">
        <ele>214.582</ele>
        <time>1970-01-01T01:00:00Z</time>
      </trkpt>
      <trkpt lat="63.3577515" lon="10.2386985">
        <ele>214.734</ele>
        <time>1970-01-01T01:00:00Z</time>
      </trkpt>
      <trkpt lat="63.35774117" lon="10.23874583">
        <ele>214.734</ele>
        <time>1970-01-01T01:00:00Z</time>
      </trkpt>
      <trkpt lat="63.35773" lon="10.2387965">
        <ele>214.734</ele>
        <time>1970-01-01T01:00:00Z</time>
      </trkpt>
      <trkpt lat="63.35772" lon="10.2388495">
        <ele>214.734</ele>
        <time>1970-01-01T01:00:00Z</time>
      </trkpt>
      <trkpt lat="63.35770883" lon="10.23890733">
        <ele>214.887</ele>
        <time>1970-01-01T01:00:00Z</time>
      </trkpt>
      <trkpt lat="63.357699" lon="10.23896217">
        <ele>214.887</ele>
        <time>1970-01-01T01:00:00Z</time>
      </trkpt>
      <trkpt lat="63.35769" lon="10.23901817">
        <ele>215.039</ele>
        <time>1970-01-01T01:00:00Z</time>
      </trkpt>
      <trkpt lat="63.35768167" lon="10.23907667">
        <ele>215.039</ele>
        <time>1970-01-01T01:00:00Z</time>
      </trkpt>
      <trkpt lat="63.35767333" lon="10.2391335">
        <ele>215.191</ele>
        <time>1970-01-01T01:00:00Z</time>
      </trkpt>
      <trkpt lat="63.35766517" lon="10.23919217">
        <ele>215.191</ele>
        <time>1970-01-01T01:00:00Z</time>
      </trkpt>
      <trkpt lat="63.357658" lon="10.2392475">
        <ele>215.344</ele>
        <time>1970-01-01T01:00:00Z</time>
      </trkpt>
      <trkpt lat="63.35765233" lon="10.23930267">
        <ele>215.344</ele>
        <time>1970-01-01T01:00:00Z</time>
      </trkpt>
      <trkpt lat="63.35764533" lon="10.2393555">
        <ele>215.496</ele>
        <time>1970-01-01T01:00:00Z</time>
      </trkpt>
      <trkpt lat="63.3576385" lon="10.23940833">
        <ele>215.496</ele>
        <time>1970-01-01T01:00:00Z</time>
      </trkpt>
      <trkpt lat="63.35763083" lon="10.23946383">
        <ele>215.649</ele>
        <time>1970-01-01T01:00:00Z</time>
      </trkpt>
      <trkpt lat="63.3576265" lon="10.23951717">
        <ele>215.649</ele>
        <time>1970-01-01T01:00:00Z</time>
      </trkpt>
      <trkpt lat="63.357623" lon="10.23956867">
        <ele>215.801</ele>
        <time>1970-01-01T01:00:00Z</time>
      </trkpt>
      <trkpt lat="63.3576195" lon="10.23961817">
        <ele>215.801</ele>
        <time>1970-01-01T01:00:00Z</time>
      </trkpt>
      <trkpt lat="63.35761183" lon="10.2396685">
        <ele>215.953</ele>
        <time>1970-01-01T01:00:00Z</time>
      </trkpt>
      <trkpt lat="63.3576025" lon="10.239721">
        <ele>215.953</ele>
        <time>1970-01-01T01:00:00Z</time>
      </trkpt>
      <trkpt lat="63.35759083" lon="10.23976967">
        <ele>216.106</ele>
        <time>1970-01-01T01:00:00Z</time>
      </trkpt>
      <trkpt lat="63.35758167" lon="10.239817">
        <ele>216.106</ele>
        <time>1970-01-01T01:00:00Z</time>
      </trkpt>
      <trkpt lat="63.3575715" lon="10.23985983">
        <ele>216.106</ele>
        <time>1970-01-01T01:00:00Z</time>
      </trkpt>
      <trkpt lat="63.35756367" lon="10.23990283">
        <ele>216.106</ele>
        <time>1970-01-01T01:00:00Z</time>
      </trkpt>
      <trkpt lat="63.35755483" lon="10.23994017">
        <ele>216.258</ele>
        <time>1970-01-01T01:00:00Z</time>
      </trkpt>
      <trkpt lat="63.35754733" lon="10.23997983">
        <ele>216.258</ele>
        <time>1970-01-01T01:00:00Z</time>
      </trkpt>
      <trkpt lat="63.35754017" lon="10.2400185">
        <ele>216.411</ele>
        <time>1970-01-01T01:00:00Z</time>
      </trkpt>
      <trkpt lat="63.35753317" lon="10.24006333">
        <ele>216.411</ele>
        <time>1970-01-01T01:00:00Z</time>
      </trkpt>
      <trkpt lat="63.35752783" lon="10.24011217">
        <ele>216.411</ele>
        <time>1970-01-01T01:00:00Z</time>
      </trkpt>
      <trkpt lat="63.35752267" lon="10.2401645">
        <ele>216.411</ele>
        <time>1970-01-01T01:00:00Z</time>
      </trkpt>
      <trkpt lat="63.3575165" lon="10.240218">
        <ele>216.411</ele>
        <time>1970-01-01T01:00:00Z</time>
      </trkpt>
      <trkpt lat="63.35751083" lon="10.2402675">
        <ele>216.411</ele>
        <time>1970-01-01T01:00:00Z</time>
      </trkpt>
      <trkpt lat="63.35750633" lon="10.24031883">
        <ele>216.411</ele>
        <time>1970-01-01T01:00:00Z</time>
      </trkpt>
      <trkpt lat="63.35750283" lon="10.24037417">
        <ele>216.411</ele>
        <time>1970-01-01T01:00:00Z</time>
      </trkpt>
      <trkpt lat="63.35749683" lon="10.24043467">
        <ele>216.411</ele>
        <time>1970-01-01T01:00:00Z</time>
      </trkpt>
      <trkpt lat="63.35748883" lon="10.2405">
        <ele>216.411</ele>
        <time>1970-01-01T01:00:00Z</time>
      </trkpt>
      <trkpt lat="63.35748167" lon="10.24056083">
        <ele>216.411</ele>
        <time>1970-01-01T01:00:00Z</time>
      </trkpt>
      <trkpt lat="63.357477" lon="10.24061917">
        <ele>216.411</ele>
        <time>1970-01-01T01:00:00Z</time>
      </trkpt>
      <trkpt lat="63.35747217" lon="10.24068467">
        <ele>216.411</ele>
        <time>1970-01-01T01:00:00Z</time>
      </trkpt>
      <trkpt lat="63.35746567" lon="10.240758">
        <ele>216.411</ele>
        <time>1970-01-01T01:00:00Z</time>
      </trkpt>
      <trkpt lat="63.35745817" lon="10.24083417">
        <ele>216.411</ele>
        <time>1970-01-01T01:00:00Z</time>
      </trkpt>
      <trkpt lat="63.35745217" lon="10.2409015">
        <ele>216.411</ele>
        <time>1970-01-01T01:00:00Z</time>
      </trkpt>
      <trkpt lat="63.3574455" lon="10.240971">
        <ele>216.411</ele>
        <time>1970-01-01T01:00:00Z</time>
      </trkpt>
      <trkpt lat="63.3574385" lon="10.24104517">
        <ele>216.411</ele>
        <time>1970-01-01T01:00:00Z</time>
      </trkpt>
      <trkpt lat="63.35743167" lon="10.24112367">
        <ele>216.411</ele>
        <time>1970-01-01T01:00:00Z</time>
      </trkpt>
      <trkpt lat="63.35742783" lon="10.24119883">
        <ele>216.411</ele>
        <time>1970-01-01T01:00:00Z</time>
      </trkpt>
      <trkpt lat="63.35742617" lon="10.241271">
        <ele>216.411</ele>
        <time>1970-01-01T01:00:00Z</time>
      </trkpt>
      <trkpt lat="63.3574255" lon="10.24133583">
        <ele>216.411</ele>
        <time>1970-01-01T01:00:00Z</time>
      </trkpt>
      <trkpt lat="63.3574255" lon="10.2413985">
        <ele>216.411</ele>
        <time>1970-01-01T01:00:00Z</time>
      </trkpt>
      <trkpt lat="63.357424" lon="10.24146117">
        <ele>216.411</ele>
        <time>1970-01-01T01:00:00Z</time>
      </trkpt>
      <trkpt lat="63.35742217" lon="10.24152433">
        <ele>216.411</ele>
        <time>1970-01-01T01:00:00Z</time>
      </trkpt>
      <trkpt lat="63.357424" lon="10.24159383">
        <ele>216.411</ele>
        <time>1970-01-01T01:00:00Z</time>
      </trkpt>
      <trkpt lat="63.35743267" lon="10.24166">
        <ele>216.258</ele>
        <time>1970-01-01T01:00:00Z</time>
      </trkpt>
      <trkpt lat="63.35744467" lon="10.24172883">
        <ele>216.258</ele>
        <time>1970-01-01T01:00:00Z</time>
      </trkpt>
      <trkpt lat="63.35745267" lon="10.24179017">
        <ele>216.258</ele>
        <time>1970-01-01T01:00:00Z</time>
      </trkpt>
      <trkpt lat="63.35745583" lon="10.24185117">
        <ele>216.258</ele>
        <time>1970-01-01T01:00:00Z</time>
      </trkpt>
      <trkpt lat="63.35746033" lon="10.24190917">
        <ele>216.258</ele>
        <time>1970-01-01T01:00:00Z</time>
      </trkpt>
      <trkpt lat="63.35746917" lon="10.24196567">
        <ele>216.258</ele>
        <time>1970-01-01T01:00:00Z</time>
      </trkpt>
      <trkpt lat="63.35748133" lon="10.24202517">
        <ele>216.106</ele>
        <time>1970-01-01T01:00:00Z</time>
      </trkpt>
      <trkpt lat="63.3574905" lon="10.242085">
        <ele>216.106</ele>
        <time>1970-01-01T01:00:00Z</time>
      </trkpt>
      <trkpt lat="63.35749733" lon="10.24214567">
        <ele>215.953</ele>
        <time>1970-01-01T01:00:00Z</time>
      </trkpt>
      <trkpt lat="63.35750333" lon="10.242204">
        <ele>215.953</ele>
        <time>1970-01-01T01:00:00Z</time>
      </trkpt>
      <trkpt lat="63.35750883" lon="10.2422635">
        <ele>215.953</ele>
        <time>1970-01-01T01:00:00Z</time>
      </trkpt>
      <trkpt lat="63.35751517" lon="10.2423215">
        <ele>215.953</ele>
        <time>1970-01-01T01:00:00Z</time>
      </trkpt>
      <trkpt lat="63.35752017" lon="10.24237633">
        <ele>215.801</ele>
        <time>1970-01-01T01:00:00Z</time>
      </trkpt>
      <trkpt lat="63.35752667" lon="10.24243417">
        <ele>215.801</ele>
        <time>1970-01-01T01:00:00Z</time>
      </trkpt>
      <trkpt lat="63.35753233" lon="10.24249267">
        <ele>215.649</ele>
        <time>1970-01-01T01:00:00Z</time>
      </trkpt>
      <trkpt lat="63.35753883" lon="10.24255783">
        <ele>215.649</ele>
        <time>1970-01-01T01:00:00Z</time>
      </trkpt>
      <trkpt lat="63.35754433" lon="10.24261983">
        <ele>215.344</ele>
        <time>1970-01-01T01:00:00Z</time>
      </trkpt>
      <trkpt lat="63.35754883" lon="10.24268">
        <ele>215.344</ele>
        <time>1970-01-01T01:00:00Z</time>
      </trkpt>
      <trkpt lat="63.35755217" lon="10.24273833">
        <ele>215.191</ele>
        <time>1970-01-01T01:00:00Z</time>
      </trkpt>
      <trkpt lat="63.35755833" lon="10.24279483">
        <ele>215.191</ele>
        <time>1970-01-01T01:00:00Z</time>
      </trkpt>
      <trkpt lat="63.35756617" lon="10.24285983">
        <ele>215.039</ele>
        <time>1970-01-01T01:00:00Z</time>
      </trkpt>
      <trkpt lat="63.35757483" lon="10.24292567">
        <ele>215.039</ele>
        <time>1970-01-01T01:00:00Z</time>
      </trkpt>
      <trkpt lat="63.3575805" lon="10.242993">
        <ele>214.887</ele>
        <time>1970-01-01T01:00:00Z</time>
      </trkpt>
      <trkpt lat="63.35758617" lon="10.24305667">
        <ele>214.887</ele>
        <time>1970-01-01T01:00:00Z</time>
      </trkpt>
      <trkpt lat="63.35759083" lon="10.243116">
        <ele>214.734</ele>
        <time>1970-01-01T01:00:00Z</time>
      </trkpt>
      <trkpt lat="63.357598" lon="10.24317517">
        <ele>214.734</ele>
        <time>1970-01-01T01:00:00Z</time>
      </trkpt>
      <trkpt lat="63.35760583" lon="10.24322717">
        <ele>214.582</ele>
        <time>1970-01-01T01:00:00Z</time>
      </trkpt>
      <trkpt lat="63.35761817" lon="10.2432775">
        <ele>214.582</ele>
        <time>1970-01-01T01:00:00Z</time>
      </trkpt>
      <trkpt lat="63.35763683" lon="10.24332183">
        <ele>214.582</ele>
        <time>1970-01-01T01:00:00Z</time>
      </trkpt>
      <trkpt lat="63.35765883" lon="10.24336267">
        <ele>214.582</ele>
        <time>1970-01-01T01:00:00Z</time>
      </trkpt>
      <trkpt lat="63.35768433" lon="10.24340217">
        <ele>214.429</ele>
        <time>1970-01-01T01:00:00Z</time>
      </trkpt>
      <trkpt lat="63.35770733" lon="10.243436">
        <ele>214.429</ele>
        <time>1970-01-01T01:00:00Z</time>
      </trkpt>
      <trkpt lat="63.35773317" lon="10.2434715">
        <ele>214.277</ele>
        <time>1970-01-01T01:00:00Z</time>
      </trkpt>
      <trkpt lat="63.357758" lon="10.243504">
        <ele>214.277</ele>
        <time>1970-01-01T01:00:00Z</time>
      </trkpt>
      <trkpt lat="63.35778183" lon="10.24353833">
        <ele>214.277</ele>
        <time>1970-01-01T01:00:00Z</time>
      </trkpt>
      <trkpt lat="63.35780033" lon="10.24357183">
        <ele>214.277</ele>
        <time>1970-01-01T01:00:00Z</time>
      </trkpt>
      <trkpt lat="63.35781767" lon="10.24360483">
        <ele>214.125</ele>
        <time>1970-01-01T01:00:00Z</time>
      </trkpt>
      <trkpt lat="63.3578335" lon="10.24363833">
        <ele>214.125</ele>
        <time>1970-01-01T01:00:00Z</time>
      </trkpt>
      <trkpt lat="63.3578495" lon="10.24367317">
        <ele>213.972</ele>
        <time>1970-01-01T01:00:00Z</time>
      </trkpt>
      <trkpt lat="63.357866" lon="10.2437055">
        <ele>213.972</ele>
        <time>1970-01-01T01:00:00Z</time>
      </trkpt>
      <trkpt lat="63.357887" lon="10.2437385">
        <ele>213.82</ele>
        <time>1970-01-01T01:00:00Z</time>
      </trkpt>
      <trkpt lat="63.35791283" lon="10.24376967">
        <ele>213.82</ele>
        <time>1970-01-01T01:00:00Z</time>
      </trkpt>
      <trkpt lat="63.35794033" lon="10.24379667">
        <ele>213.667</ele>
        <time>1970-01-01T01:00:00Z</time>
      </trkpt>
      <trkpt lat="63.35796683" lon="10.24382017">
        <ele>213.667</ele>
        <time>1970-01-01T01:00:00Z</time>
      </trkpt>
      <trkpt lat="63.357992" lon="10.24384167">
        <ele>213.515</ele>
        <time>1970-01-01T01:00:00Z</time>
      </trkpt>
      <trkpt lat="63.35802083" lon="10.2438715">
        <ele>213.515</ele>
        <time>1970-01-01T01:00:00Z</time>
      </trkpt>
      <trkpt lat="63.35805067" lon="10.243907">
        <ele>213.21</ele>
        <time>1970-01-01T01:00:00Z</time>
      </trkpt>
      <trkpt lat="63.358082" lon="10.2439495">
        <ele>213.21</ele>
        <time>1970-01-01T01:00:00Z</time>
      </trkpt>
      <trkpt lat="63.3581085" lon="10.24399467">
        <ele>213.058</ele>
        <time>1970-01-01T01:00:00Z</time>
      </trkpt>
      <trkpt lat="63.3581335" lon="10.24404233">
        <ele>213.058</ele>
        <time>1970-01-01T01:00:00Z</time>
      </trkpt>
      <trkpt lat="63.35815883" lon="10.24409333">
        <ele>212.905</ele>
        <time>1970-01-01T01:00:00Z</time>
      </trkpt>
      <trkpt lat="63.35818333" lon="10.244142">
        <ele>212.905</ele>
        <time>1970-01-01T01:00:00Z</time>
      </trkpt>
      <trkpt lat="63.358211" lon="10.24418217">
        <ele>212.601</ele>
        <time>1970-01-01T01:00:00Z</time>
      </trkpt>
      <trkpt lat="63.358237" lon="10.24421083">
        <ele>212.601</ele>
        <time>1970-01-01T01:00:00Z</time>
      </trkpt>
      <trkpt lat="63.35826467" lon="10.2442355">
        <ele>212.448</ele>
        <time>1970-01-01T01:00:00Z</time>
      </trkpt>
      <trkpt lat="63.35829167" lon="10.24426317">
        <ele>212.448</ele>
        <time>1970-01-01T01:00:00Z</time>
      </trkpt>
      <trkpt lat="63.35832067" lon="10.2442915">
        <ele>212.296</ele>
        <time>1970-01-01T01:00:00Z</time>
      </trkpt>
      <trkpt lat="63.35835233" lon="10.24432117">
        <ele>212.296</ele>
        <time>1970-01-01T01:00:00Z</time>
      </trkpt>
      <trkpt lat="63.358382" lon="10.24434367">
        <ele>211.991</ele>
        <time>1970-01-01T01:00:00Z</time>
      </trkpt>
      <trkpt lat="63.35841033" lon="10.24435933">
        <ele>211.991</ele>
        <time>1970-01-01T01:00:00Z</time>
      </trkpt>
      <trkpt lat="63.358434" lon="10.24436283">
        <ele>211.839</ele>
        <time>1970-01-01T01:00:00Z</time>
      </trkpt>
      <trkpt lat="63.3584585" lon="10.24436917">
        <ele>211.839</ele>
        <time>1970-01-01T01:00:00Z</time>
      </trkpt>
      <trkpt lat="63.35848167" lon="10.244379">
        <ele>211.686</ele>
        <time>1970-01-01T01:00:00Z</time>
      </trkpt>
      <trkpt lat="63.35850717" lon="10.24439617">
        <ele>211.686</ele>
        <time>1970-01-01T01:00:00Z</time>
      </trkpt>
      <trkpt lat="63.35853433" lon="10.2444125">
        <ele>211.534</ele>
        <time>1970-01-01T01:00:00Z</time>
      </trkpt>
      <trkpt lat="63.35856233" lon="10.244433">
        <ele>211.534</ele>
        <time>1970-01-01T01:00:00Z</time>
      </trkpt>
      <trkpt lat="63.35858983" lon="10.24445533">
        <ele>211.381</ele>
        <time>1970-01-01T01:00:00Z</time>
      </trkpt>
      <trkpt lat="63.35861883" lon="10.24450383">
        <ele>211.381</ele>
        <time>1970-01-01T01:00:00Z</time>
      </trkpt>
      <trkpt lat="63.35864883" lon="10.2445635">
        <ele>211.381</ele>
        <time>1970-01-01T01:00:00Z</time>
      </trkpt>
      <trkpt lat="63.35868517" lon="10.24464867">
        <ele>211.381</ele>
        <time>1970-01-01T01:00:00Z</time>
      </trkpt>
      <trkpt lat="63.35871917" lon="10.24472833">
        <ele>211.229</ele>
        <time>1970-01-01T01:00:00Z</time>
      </trkpt>
      <trkpt lat="63.35875067" lon="10.24481367">
        <ele>211.229</ele>
        <time>1970-01-01T01:00:00Z</time>
      </trkpt>
      <trkpt lat="63.358777" lon="10.24488983">
        <ele>211.229</ele>
        <time>1970-01-01T01:00:00Z</time>
      </trkpt>
      <trkpt lat="63.358799" lon="10.2449615">
        <ele>211.229</ele>
        <time>1970-01-01T01:00:00Z</time>
      </trkpt>
      <trkpt lat="63.35881967" lon="10.24503567">
        <ele>211.077</ele>
        <time>1970-01-01T01:00:00Z</time>
      </trkpt>
      <trkpt lat="63.3588365" lon="10.24511">
        <ele>211.077</ele>
        <time>1970-01-01T01:00:00Z</time>
      </trkpt>
      <trkpt lat="63.358851" lon="10.24518967">
        <ele>211.077</ele>
        <time>1970-01-01T01:00:00Z</time>
      </trkpt>
      <trkpt lat="63.35886233" lon="10.24526133">
        <ele>211.077</ele>
        <time>1970-01-01T01:00:00Z</time>
      </trkpt>
      <trkpt lat="63.3588745" lon="10.24533">
        <ele>210.924</ele>
        <time>1970-01-01T01:00:00Z</time>
      </trkpt>
      <trkpt lat="63.358887" lon="10.2453995">
        <ele>210.924</ele>
        <time>1970-01-01T01:00:00Z</time>
      </trkpt>
      <trkpt lat="63.35890017" lon="10.2454705">
        <ele>210.924</ele>
        <time>1970-01-01T01:00:00Z</time>
      </trkpt>
      <trkpt lat="63.358909" lon="10.24554433">
        <ele>210.924</ele>
        <time>1970-01-01T01:00:00Z</time>
      </trkpt>
      <trkpt lat="63.35891283" lon="10.24561667">
        <ele>210.772</ele>
        <time>1970-01-01T01:00:00Z</time>
      </trkpt>
      <trkpt lat="63.35891467" lon="10.24568867">
        <ele>210.772</ele>
        <time>1970-01-01T01:00:00Z</time>
      </trkpt>
      <trkpt lat="63.35891283" lon="10.24575767">
        <ele>210.772</ele>
        <time>1970-01-01T01:00:00Z</time>
      </trkpt>
      <trkpt lat="63.35890533" lon="10.24582633">
        <ele>210.772</ele>
        <time>1970-01-01T01:00:00Z</time>
      </trkpt>
      <trkpt lat="63.35888567" lon="10.24589683">
        <ele>210.619</ele>
        <time>1970-01-01T01:00:00Z</time>
      </trkpt>
      <trkpt lat="63.35886183" lon="10.24596733">
        <ele>210.619</ele>
        <time>1970-01-01T01:00:00Z</time>
      </trkpt>
      <trkpt lat="63.358838" lon="10.24602933">
        <ele>210.467</ele>
        <time>1970-01-01T01:00:00Z</time>
      </trkpt>
      <trkpt lat="63.35881667" lon="10.24608767">
        <ele>210.467</ele>
        <time>1970-01-01T01:00:00Z</time>
      </trkpt>
      <trkpt lat="63.358787" lon="10.24613783">
        <ele>210.315</ele>
        <time>1970-01-01T01:00:00Z</time>
      </trkpt>
      <trkpt lat="63.35875217" lon="10.24618617">
        <ele>210.315</ele>
        <time>1970-01-01T01:00:00Z</time>
      </trkpt>
      <trkpt lat="63.358717" lon="10.24622717">
        <ele>210.162</ele>
        <time>1970-01-01T01:00:00Z</time>
      </trkpt>
      <trkpt lat="63.3586845" lon="10.246268">
        <ele>210.162</ele>
        <time>1970-01-01T01:00:00Z</time>
      </trkpt>
      <trkpt lat="63.35865467" lon="10.24630567">
        <ele>209.705</ele>
        <time>1970-01-01T01:00:00Z</time>
      </trkpt>
      <trkpt lat="63.35862467" lon="10.24634367">
        <ele>209.705</ele>
        <time>1970-01-01T01:00:00Z</time>
      </trkpt>
      <trkpt lat="63.35859733" lon="10.24637983">
        <ele>209.4</ele>
        <time>1970-01-01T01:00:00Z</time>
      </trkpt>
      <trkpt lat="63.35856833" lon="10.24641783">
        <ele>209.4</ele>
        <time>1970-01-01T01:00:00Z</time>
      </trkpt>
      <trkpt lat="63.358539" lon="10.24645367">
        <ele>208.943</ele>
        <time>1970-01-01T01:00:00Z</time>
      </trkpt>
      <trkpt lat="63.35850917" lon="10.2464885">
        <ele>208.943</ele>
        <time>1970-01-01T01:00:00Z</time>
      </trkpt>
      <trkpt lat="63.35847917" lon="10.24651417">
        <ele>208.486</ele>
        <time>1970-01-01T01:00:00Z</time>
      </trkpt>
      <trkpt lat="63.358451" lon="10.24653667">
        <ele>208.486</ele>
        <time>1970-01-01T01:00:00Z</time>
      </trkpt>
      <trkpt lat="63.3584225" lon="10.2465605">
        <ele>208.029</ele>
        <time>1970-01-01T01:00:00Z</time>
      </trkpt>
      <trkpt lat="63.35839333" lon="10.246581">
        <ele>208.029</ele>
        <time>1970-01-01T01:00:00Z</time>
      </trkpt>
      <trkpt lat="63.35836133" lon="10.24659883">
        <ele>207.571</ele>
        <time>1970-01-01T01:00:00Z</time>
      </trkpt>
      <trkpt lat="63.35832883" lon="10.24661367">
        <ele>207.571</ele>
        <time>1970-01-01T01:00:00Z</time>
      </trkpt>
      <trkpt lat="63.35829633" lon="10.24663717">
        <ele>206.962</ele>
        <time>1970-01-01T01:00:00Z</time>
      </trkpt>
      <trkpt lat="63.35826117" lon="10.246663">
        <ele>206.962</ele>
        <time>1970-01-01T01:00:00Z</time>
      </trkpt>
      <trkpt lat="63.358226" lon="10.2466865">
        <ele>206.505</ele>
        <time>1970-01-01T01:00:00Z</time>
      </trkpt>
      <trkpt lat="63.358193" lon="10.24670583">
        <ele>206.505</ele>
        <time>1970-01-01T01:00:00Z</time>
      </trkpt>
      <trkpt lat="63.35816183" lon="10.24672867">
        <ele>205.895</ele>
        <time>1970-01-01T01:00:00Z</time>
      </trkpt>
      <trkpt lat="63.35813117" lon="10.246752">
        <ele>205.895</ele>
        <time>1970-01-01T01:00:00Z</time>
      </trkpt>
      <trkpt lat="63.35809867" lon="10.24677667">
        <ele>205.285</ele>
        <time>1970-01-01T01:00:00Z</time>
      </trkpt>
      <trkpt lat="63.35806867" lon="10.24679933">
        <ele>205.285</ele>
        <time>1970-01-01T01:00:00Z</time>
      </trkpt>
      <trkpt lat="63.35804033" lon="10.24682483">
        <ele>204.828</ele>
        <time>1970-01-01T01:00:00Z</time>
      </trkpt>
      <trkpt lat="63.35801167" lon="10.24684533">
        <ele>204.828</ele>
        <time>1970-01-01T01:00:00Z</time>
      </trkpt>
      <trkpt lat="63.357982" lon="10.2468655">
        <ele>204.218</ele>
        <time>1970-01-01T01:00:00Z</time>
      </trkpt>
      <trkpt lat="63.35794867" lon="10.24688267">
        <ele>204.218</ele>
        <time>1970-01-01T01:00:00Z</time>
      </trkpt>
      <trkpt lat="63.357916" lon="10.24690233">
        <ele>203.456</ele>
        <time>1970-01-01T01:00:00Z</time>
      </trkpt>
      <trkpt lat="63.3578815" lon="10.24691517">
        <ele>203.456</ele>
        <time>1970-01-01T01:00:00Z</time>
      </trkpt>
      <trkpt lat="63.35784983" lon="10.24692567">
        <ele>202.847</ele>
        <time>1970-01-01T01:00:00Z</time>
      </trkpt>
      <trkpt lat="63.3578185" lon="10.246935">
        <ele>202.847</ele>
        <time>1970-01-01T01:00:00Z</time>
      </trkpt>
      <trkpt lat="63.35778717" lon="10.24694517">
        <ele>202.085</ele>
        <time>1970-01-01T01:00:00Z</time>
      </trkpt>
      <trkpt lat="63.35775367" lon="10.246957">
        <ele>202.085</ele>
        <time>1970-01-01T01:00:00Z</time>
      </trkpt>
      <trkpt lat="63.35772183" lon="10.246967">
        <ele>201.475</ele>
        <time>1970-01-01T01:00:00Z</time>
      </trkpt>
      <trkpt lat="63.35769367" lon="10.246978">
        <ele>201.475</ele>
        <time>1970-01-01T01:00:00Z</time>
      </trkpt>
      <trkpt lat="63.35766717" lon="10.24698267">
        <ele>200.713</ele>
        <time>1970-01-01T01:00:00Z</time>
      </trkpt>
      <trkpt lat="63.35763983" lon="10.24698533">
        <ele>200.713</ele>
        <time>1970-01-01T01:00:00Z</time>
      </trkpt>
      <trkpt lat="63.3576105" lon="10.24698567">
        <ele>199.951</ele>
        <time>1970-01-01T01:00:00Z</time>
      </trkpt>
      <trkpt lat="63.3575815" lon="10.24698883">
        <ele>199.951</ele>
        <time>1970-01-01T01:00:00Z</time>
      </trkpt>
      <trkpt lat="63.35755083" lon="10.24699517">
        <ele>199.189</ele>
        <time>1970-01-01T01:00:00Z</time>
      </trkpt>
      <trkpt lat="63.3575165" lon="10.247004">
        <ele>199.189</ele>
        <time>1970-01-01T01:00:00Z</time>
      </trkpt>
      <trkpt lat="63.357481" lon="10.2470125">
        <ele>198.427</ele>
        <time>1970-01-01T01:00:00Z</time>
      </trkpt>
      <trkpt lat="63.35744283" lon="10.24701383">
        <ele>198.427</ele>
        <time>1970-01-01T01:00:00Z</time>
      </trkpt>
      <trkpt lat="63.3574075" lon="10.24700667">
        <ele>197.665</ele>
        <time>1970-01-01T01:00:00Z</time>
      </trkpt>
      <trkpt lat="63.35737383" lon="10.24699917">
        <ele>197.665</ele>
        <time>1970-01-01T01:00:00Z</time>
      </trkpt>
      <trkpt lat="63.35734083" lon="10.24699583">
        <ele>196.751</ele>
        <time>1970-01-01T01:00:00Z</time>
      </trkpt>
      <trkpt lat="63.35730717" lon="10.246993">
        <ele>196.751</ele>
        <time>1970-01-01T01:00:00Z</time>
      </trkpt>
      <trkpt lat="63.35727117" lon="10.24698517">
        <ele>195.836</ele>
        <time>1970-01-01T01:00:00Z</time>
      </trkpt>
      <trkpt lat="63.35723933" lon="10.24697533">
        <ele>195.836</ele>
        <time>1970-01-01T01:00:00Z</time>
      </trkpt>
      <trkpt lat="63.35720917" lon="10.24696233">
        <ele>194.922</ele>
        <time>1970-01-01T01:00:00Z</time>
      </trkpt>
      <trkpt lat="63.35718067" lon="10.246942">
        <ele>194.922</ele>
        <time>1970-01-01T01:00:00Z</time>
      </trkpt>
      <trkpt lat="63.35715233" lon="10.24691233">
        <ele>194.16</ele>
        <time>1970-01-01T01:00:00Z</time>
      </trkpt>
      <trkpt lat="63.357122" lon="10.24688167">
        <ele>194.16</ele>
        <time>1970-01-01T01:00:00Z</time>
      </trkpt>
      <trkpt lat="63.357093" lon="10.24685067">
        <ele>193.246</ele>
        <time>1970-01-01T01:00:00Z</time>
      </trkpt>
      <trkpt lat="63.35706317" lon="10.24682467">
        <ele>193.246</ele>
        <time>1970-01-01T01:00:00Z</time>
      </trkpt>
      <trkpt lat="63.35703517" lon="10.246801">
        <ele>192.484</ele>
        <time>1970-01-01T01:00:00Z</time>
      </trkpt>
      <trkpt lat="63.3570075" lon="10.24678133">
        <ele>192.484</ele>
        <time>1970-01-01T01:00:00Z</time>
      </trkpt>
      <trkpt lat="63.35697883" lon="10.246759">
        <ele>191.722</ele>
        <time>1970-01-01T01:00:00Z</time>
      </trkpt>
      <trkpt lat="63.35695133" lon="10.246737">
        <ele>191.722</ele>
        <time>1970-01-01T01:00:00Z</time>
      </trkpt>
      <trkpt lat="63.35692217" lon="10.246714">
        <ele>190.96</ele>
        <time>1970-01-01T01:00:00Z</time>
      </trkpt>
      <trkpt lat="63.35689417" lon="10.24669167">
        <ele>190.96</ele>
        <time>1970-01-01T01:00:00Z</time>
      </trkpt>
      <trkpt lat="63.35686433" lon="10.24666183">
        <ele>190.35</ele>
        <time>1970-01-01T01:00:00Z</time>
      </trkpt>
      <trkpt lat="63.356838" lon="10.24662883">
        <ele>190.35</ele>
        <time>1970-01-01T01:00:00Z</time>
      </trkpt>
      <trkpt lat="63.3568135" lon="10.246595">
        <ele>189.74</ele>
        <time>1970-01-01T01:00:00Z</time>
      </trkpt>
      <trkpt lat="63.35678967" lon="10.24656383">
        <ele>189.74</ele>
        <time>1970-01-01T01:00:00Z</time>
      </trkpt>
      <trkpt lat="63.3567645" lon="10.24653533">
        <ele>189.131</ele>
        <time>1970-01-01T01:00:00Z</time>
      </trkpt>
      <trkpt lat="63.35673833" lon="10.246506">
        <ele>189.131</ele>
        <time>1970-01-01T01:00:00Z</time>
      </trkpt>
      <trkpt lat="63.356715" lon="10.246483">
        <ele>188.521</ele>
        <time>1970-01-01T01:00:00Z</time>
      </trkpt>
      <trkpt lat="63.3566925" lon="10.24646167">
        <ele>188.521</ele>
        <time>1970-01-01T01:00:00Z</time>
      </trkpt>
      <trkpt lat="63.35666967" lon="10.24644433">
        <ele>188.064</ele>
        <time>1970-01-01T01:00:00Z</time>
      </trkpt>
      <trkpt lat="63.35664567" lon="10.24642317">
        <ele>188.064</ele>
        <time>1970-01-01T01:00:00Z</time>
      </trkpt>
      <trkpt lat="63.3566195" lon="10.2463975">
        <ele>187.607</ele>
        <time>1970-01-01T01:00:00Z</time>
      </trkpt>
      <trkpt lat="63.35659317" lon="10.24636767">
        <ele>187.607</ele>
        <time>1970-01-01T01:00:00Z</time>
      </trkpt>
      <trkpt lat="63.35656667" lon="10.24633733">
        <ele>187.149</ele>
        <time>1970-01-01T01:00:00Z</time>
      </trkpt>
      <trkpt lat="63.35654067" lon="10.24630517">
        <ele>187.149</ele>
        <time>1970-01-01T01:00:00Z</time>
      </trkpt>
      <trkpt lat="63.35651717" lon="10.24627283">
        <ele>186.845</ele>
        <time>1970-01-01T01:00:00Z</time>
      </trkpt>
      <trkpt lat="63.3564935" lon="10.24623933">
        <ele>186.845</ele>
        <time>1970-01-01T01:00:00Z</time>
      </trkpt>
      <trkpt lat="63.35647117" lon="10.24620933">
        <ele>186.387</ele>
        <time>1970-01-01T01:00:00Z</time>
      </trkpt>
      <trkpt lat="63.35644833" lon="10.2461815">
        <ele>186.387</ele>
        <time>1970-01-01T01:00:00Z</time>
      </trkpt>
      <trkpt lat="63.35642367" lon="10.246163">
        <ele>186.083</ele>
        <time>1970-01-01T01:00:00Z</time>
      </trkpt>
      <trkpt lat="63.35639783" lon="10.24614717">
        <ele>186.083</ele>
        <time>1970-01-01T01:00:00Z</time>
      </trkpt>
      <trkpt lat="63.35637267" lon="10.24613183">
        <ele>185.625</ele>
        <time>1970-01-01T01:00:00Z</time>
      </trkpt>
      <trkpt lat="63.35634783" lon="10.2461125">
        <ele>185.625</ele>
        <time>1970-01-01T01:00:00Z</time>
      </trkpt>
      <trkpt lat="63.35632267" lon="10.24609733">
        <ele>185.321</ele>
        <time>1970-01-01T01:00:00Z</time>
      </trkpt>
      <trkpt lat="63.35629533" lon="10.24608233">
        <ele>185.321</ele>
        <time>1970-01-01T01:00:00Z</time>
      </trkpt>
      <trkpt lat="63.356269" lon="10.2460655">
        <ele>185.016</ele>
        <time>1970-01-01T01:00:00Z</time>
      </trkpt>
      <trkpt lat="63.35624083" lon="10.24605383">
        <ele>185.016</ele>
        <time>1970-01-01T01:00:00Z</time>
      </trkpt>
      <trkpt lat="63.35621233" lon="10.24604633">
        <ele>184.711</ele>
        <time>1970-01-01T01:00:00Z</time>
      </trkpt>
      <trkpt lat="63.3561815" lon="10.24604333">
        <ele>184.711</ele>
        <time>1970-01-01T01:00:00Z</time>
      </trkpt>
      <trkpt lat="63.3561505" lon="10.24603717">
        <ele>184.406</ele>
        <time>1970-01-01T01:00:00Z</time>
      </trkpt>
      <trkpt lat="63.35611833" lon="10.24603633">
        <ele>184.406</ele>
        <time>1970-01-01T01:00:00Z</time>
      </trkpt>
      <trkpt lat="63.35608717" lon="10.24603683">
        <ele>184.101</ele>
        <time>1970-01-01T01:00:00Z</time>
      </trkpt>
      <trkpt lat="63.35605717" lon="10.24603783">
        <ele>184.101</ele>
        <time>1970-01-01T01:00:00Z</time>
      </trkpt>
      <trkpt lat="63.35602833" lon="10.24603933">
        <ele>183.949</ele>
        <time>1970-01-01T01:00:00Z</time>
      </trkpt>
      <trkpt lat="63.35599767" lon="10.24604117">
        <ele>183.949</ele>
        <time>1970-01-01T01:00:00Z</time>
      </trkpt>
      <trkpt lat="63.35596867" lon="10.2460435">
        <ele>183.644</ele>
        <time>1970-01-01T01:00:00Z</time>
      </trkpt>
      <trkpt lat="63.35593933" lon="10.24604367">
        <ele>183.644</ele>
        <time>1970-01-01T01:00:00Z</time>
      </trkpt>
      <trkpt lat="63.355912" lon="10.24604233">
        <ele>183.339</ele>
        <time>1970-01-01T01:00:00Z</time>
      </trkpt>
      <trkpt lat="63.3558865" lon="10.24604317">
        <ele>183.339</ele>
        <time>1970-01-01T01:00:00Z</time>
      </trkpt>
      <trkpt lat="63.3558605" lon="10.24604917">
        <ele>183.035</ele>
        <time>1970-01-01T01:00:00Z</time>
      </trkpt>
      <trkpt lat="63.35583567" lon="10.24605783">
        <ele>183.035</ele>
        <time>1970-01-01T01:00:00Z</time>
      </trkpt>
      <trkpt lat="63.35580733" lon="10.246068">
        <ele>182.882</ele>
        <time>1970-01-01T01:00:00Z</time>
      </trkpt>
      <trkpt lat="63.35578" lon="10.2460785">
        <ele>182.882</ele>
        <time>1970-01-01T01:00:00Z</time>
      </trkpt>
      <trkpt lat="63.35575583" lon="10.2460915">
        <ele>182.577</ele>
        <time>1970-01-01T01:00:00Z</time>
      </trkpt>
      <trkpt lat="63.35573317" lon="10.24610633">
        <ele>182.577</ele>
        <time>1970-01-01T01:00:00Z</time>
      </trkpt>
      <trkpt lat="63.3557135" lon="10.24612517">
        <ele>182.425</ele>
        <time>1970-01-01T01:00:00Z</time>
      </trkpt>
      <trkpt lat="63.35569183" lon="10.24614967">
        <ele>182.425</ele>
        <time>1970-01-01T01:00:00Z</time>
      </trkpt>
      <trkpt lat="63.35566917" lon="10.24617933">
        <ele>182.273</ele>
        <time>1970-01-01T01:00:00Z</time>
      </trkpt>
      <trkpt lat="63.35564433" lon="10.24620867">
        <ele>182.273</ele>
        <time>1970-01-01T01:00:00Z</time>
      </trkpt>
      <trkpt lat="63.3556195" lon="10.24623783">
        <ele>182.12</ele>
        <time>1970-01-01T01:00:00Z</time>
      </trkpt>
      <trkpt lat="63.35559517" lon="10.24626483">
        <ele>182.12</ele>
        <time>1970-01-01T01:00:00Z</time>
      </trkpt>
      <trkpt lat="63.35557183" lon="10.24628867">
        <ele>181.968</ele>
        <time>1970-01-01T01:00:00Z</time>
      </trkpt>
      <trkpt lat="63.35554667" lon="10.246323">
        <ele>181.968</ele>
        <time>1970-01-01T01:00:00Z</time>
      </trkpt>
      <trkpt lat="63.35552233" lon="10.24636067">
        <ele>181.815</ele>
        <time>1970-01-01T01:00:00Z</time>
      </trkpt>
      <trkpt lat="63.35549783" lon="10.24640483">
        <ele>181.815</ele>
        <time>1970-01-01T01:00:00Z</time>
      </trkpt>
      <trkpt lat="63.35547567" lon="10.246442">
        <ele>181.663</ele>
        <time>1970-01-01T01:00:00Z</time>
      </trkpt>
      <trkpt lat="63.3554565" lon="10.24647917">
        <ele>181.663</ele>
        <time>1970-01-01T01:00:00Z</time>
      </trkpt>
      <trkpt lat="63.35543633" lon="10.2465115">
        <ele>181.511</ele>
        <time>1970-01-01T01:00:00Z</time>
      </trkpt>
      <trkpt lat="63.35541717" lon="10.24654133">
        <ele>181.511</ele>
        <time>1970-01-01T01:00:00Z</time>
      </trkpt>
      <trkpt lat="63.35539517" lon="10.24656767">
        <ele>181.511</ele>
        <time>1970-01-01T01:00:00Z</time>
      </trkpt>
      <trkpt lat="63.35537583" lon="10.24659617">
        <ele>181.511</ele>
        <time>1970-01-01T01:00:00Z</time>
      </trkpt>
      <trkpt lat="63.355357" lon="10.24662067">
        <ele>181.511</ele>
        <time>1970-01-01T01:00:00Z</time>
      </trkpt>
      <trkpt lat="63.35533817" lon="10.2466485">
        <ele>181.511</ele>
        <time>1970-01-01T01:00:00Z</time>
      </trkpt>
      <trkpt lat="63.355319" lon="10.246677">
        <ele>181.511</ele>
        <time>1970-01-01T01:00:00Z</time>
      </trkpt>
      <trkpt lat="63.35530017" lon="10.246712">
        <ele>181.511</ele>
        <time>1970-01-01T01:00:00Z</time>
      </trkpt>
      <trkpt lat="63.3552835" lon="10.246746">
        <ele>181.511</ele>
        <time>1970-01-01T01:00:00Z</time>
      </trkpt>
      <trkpt lat="63.3552685" lon="10.2467795">
        <ele>181.511</ele>
        <time>1970-01-01T01:00:00Z</time>
      </trkpt>
      <trkpt lat="63.35525433" lon="10.24680817">
        <ele>181.511</ele>
        <time>1970-01-01T01:00:00Z</time>
      </trkpt>
      <trkpt lat="63.35524183" lon="10.24683567">
        <ele>181.511</ele>
        <time>1970-01-01T01:00:00Z</time>
      </trkpt>
      <trkpt lat="63.35523067" lon="10.24686167">
        <ele>181.663</ele>
        <time>1970-01-01T01:00:00Z</time>
      </trkpt>
      <trkpt lat="63.3552195" lon="10.24688967">
        <ele>181.663</ele>
        <time>1970-01-01T01:00:00Z</time>
      </trkpt>
      <trkpt lat="63.35520983" lon="10.2469155">
        <ele>181.815</ele>
        <time>1970-01-01T01:00:00Z</time>
      </trkpt>
      <trkpt lat="63.3552" lon="10.24694483">
        <ele>181.815</ele>
        <time>1970-01-01T01:00:00Z</time>
      </trkpt>
      <trkpt lat="63.35519283" lon="10.24697233">
        <ele>181.968</ele>
        <time>1970-01-01T01:00:00Z</time>
      </trkpt>
      <trkpt lat="63.35518517" lon="10.24700483">
        <ele>181.968</ele>
        <time>1970-01-01T01:00:00Z</time>
      </trkpt>
      <trkpt lat="63.35517867" lon="10.24703317">
        <ele>182.12</ele>
        <time>1970-01-01T01:00:00Z</time>
      </trkpt>
      <trkpt lat="63.35517183" lon="10.2470635">
        <ele>182.12</ele>
        <time>1970-01-01T01:00:00Z</time>
      </trkpt>
      <trkpt lat="63.35516417" lon="10.24709433">
        <ele>182.273</ele>
        <time>1970-01-01T01:00:00Z</time>
      </trkpt>
      <trkpt lat="63.35515633" lon="10.24712767">
        <ele>182.273</ele>
        <time>1970-01-01T01:00:00Z</time>
      </trkpt>
      <trkpt lat="63.35514733" lon="10.24716017">
        <ele>182.425</ele>
        <time>1970-01-01T01:00:00Z</time>
      </trkpt>
      <trkpt lat="63.35514133" lon="10.24719183">
        <ele>182.425</ele>
        <time>1970-01-01T01:00:00Z</time>
      </trkpt>
      <trkpt lat="63.35513667" lon="10.24722517">
        <ele>182.73</ele>
        <time>1970-01-01T01:00:00Z</time>
      </trkpt>
      <trkpt lat="63.3551355" lon="10.24726183">
        <ele>182.73</ele>
        <time>1970-01-01T01:00:00Z</time>
      </trkpt>
      <trkpt lat="63.35513467" lon="10.24730167">
        <ele>182.882</ele>
        <time>1970-01-01T01:00:00Z</time>
      </trkpt>
      <trkpt lat="63.35513533" lon="10.24734033">
        <ele>182.882</ele>
        <time>1970-01-01T01:00:00Z</time>
      </trkpt>
      <trkpt lat="63.355138" lon="10.2473765">
        <ele>183.187</ele>
        <time>1970-01-01T01:00:00Z</time>
      </trkpt>
      <trkpt lat="63.355142" lon="10.2474095">
        <ele>183.187</ele>
        <time>1970-01-01T01:00:00Z</time>
      </trkpt>
      <trkpt lat="63.35514833" lon="10.24744717">
        <ele>183.492</ele>
        <time>1970-01-01T01:00:00Z</time>
      </trkpt>
      <trkpt lat="63.355154" lon="10.24748733">
        <ele>183.492</ele>
        <time>1970-01-01T01:00:00Z</time>
      </trkpt>
      <trkpt lat="63.35516083" lon="10.247536">
        <ele>183.644</ele>
        <time>1970-01-01T01:00:00Z</time>
      </trkpt>
      <trkpt lat="63.35516817" lon="10.247585">
        <ele>183.644</ele>
        <time>1970-01-01T01:00:00Z</time>
      </trkpt>
      <trkpt lat="63.35517467" lon="10.24763417">
        <ele>183.949</ele>
        <time>1970-01-01T01:00:00Z</time>
      </trkpt>
      <trkpt lat="63.35518" lon="10.24767933">
        <ele>183.949</ele>
        <time>1970-01-01T01:00:00Z</time>
      </trkpt>
      <trkpt lat="63.355182" lon="10.24772267">
        <ele>184.406</ele>
        <time>1970-01-01T01:00:00Z</time>
      </trkpt>
      <trkpt lat="63.3551845" lon="10.24776367">
        <ele>184.406</ele>
        <time>1970-01-01T01:00:00Z</time>
      </trkpt>
      <trkpt lat="63.355186" lon="10.24780717">
        <ele>184.711</ele>
        <time>1970-01-01T01:00:00Z</time>
      </trkpt>
      <trkpt lat="63.35518917" lon="10.2478525">
        <ele>184.711</ele>
        <time>1970-01-01T01:00:00Z</time>
      </trkpt>
      <trkpt lat="63.35519183" lon="10.24790067">
        <ele>185.016</ele>
        <time>1970-01-01T01:00:00Z</time>
      </trkpt>
      <trkpt lat="63.355193" lon="10.24794483">
        <ele>185.016</ele>
        <time>1970-01-01T01:00:00Z</time>
      </trkpt>
      <trkpt lat="63.355193" lon="10.24799017">
        <ele>185.473</ele>
        <time>1970-01-01T01:00:00Z</time>
      </trkpt>
      <trkpt lat="63.35519217" lon="10.24803767">
        <ele>185.473</ele>
        <time>1970-01-01T01:00:00Z</time>
      </trkpt>
      <trkpt lat="63.355192" lon="10.24809117">
        <ele>185.778</ele>
        <time>1970-01-01T01:00:00Z</time>
      </trkpt>
      <trkpt lat="63.35519267" lon="10.24813667">
        <ele>185.778</ele>
        <time>1970-01-01T01:00:00Z</time>
      </trkpt>
      <trkpt lat="63.35519667" lon="10.24818733">
        <ele>186.083</ele>
        <time>1970-01-01T01:00:00Z</time>
      </trkpt>
      <trkpt lat="63.35520317" lon="10.2482325">
        <ele>186.083</ele>
        <time>1970-01-01T01:00:00Z</time>
      </trkpt>
      <trkpt lat="63.35520833" lon="10.248286">
        <ele>186.235</ele>
        <time>1970-01-01T01:00:00Z</time>
      </trkpt>
      <trkpt lat="63.355212" lon="10.24833817">
        <ele>186.235</ele>
        <time>1970-01-01T01:00:00Z</time>
      </trkpt>
      <trkpt lat="63.35521483" lon="10.2483915">
        <ele>186.54</ele>
        <time>1970-01-01T01:00:00Z</time>
      </trkpt>
      <trkpt lat="63.35521783" lon="10.2484485">
        <ele>186.54</ele>
        <time>1970-01-01T01:00:00Z</time>
      </trkpt>
      <trkpt lat="63.35522133" lon="10.24850683">
        <ele>186.845</ele>
        <time>1970-01-01T01:00:00Z</time>
      </trkpt>
      <trkpt lat="63.35522817" lon="10.24856683">
        <ele>186.845</ele>
        <time>1970-01-01T01:00:00Z</time>
      </trkpt>
      <trkpt lat="63.3552375" lon="10.24862267">
        <ele>187.149</ele>
        <time>1970-01-01T01:00:00Z</time>
      </trkpt>
      <trkpt lat="63.35524683" lon="10.2486735">
        <ele>187.149</ele>
        <time>1970-01-01T01:00:00Z</time>
      </trkpt>
      <trkpt lat="63.35525467" lon="10.24873017">
        <ele>187.302</ele>
        <time>1970-01-01T01:00:00Z</time>
      </trkpt>
      <trkpt lat="63.35526283" lon="10.24878267">
        <ele>187.302</ele>
        <time>1970-01-01T01:00:00Z</time>
      </trkpt>
      <trkpt lat="63.3552695" lon="10.248838">
        <ele>187.607</ele>
        <time>1970-01-01T01:00:00Z</time>
      </trkpt>
      <trkpt lat="63.35527433" lon="10.24888883">
        <ele>187.607</ele>
        <time>1970-01-01T01:00:00Z</time>
      </trkpt>
      <trkpt lat="63.35527817" lon="10.24894417">
        <ele>187.911</ele>
        <time>1970-01-01T01:00:00Z</time>
      </trkpt>
      <trkpt lat="63.3552815" lon="10.24900133">
        <ele>187.911</ele>
        <time>1970-01-01T01:00:00Z</time>
      </trkpt>
      <trkpt lat="63.3552855" lon="10.2490585">
        <ele>188.216</ele>
        <time>1970-01-01T01:00:00Z</time>
      </trkpt>
      <trkpt lat="63.35529117" lon="10.24911667">
        <ele>188.216</ele>
        <time>1970-01-01T01:00:00Z</time>
      </trkpt>
      <trkpt lat="63.35529783" lon="10.249179">
        <ele>188.521</ele>
        <time>1970-01-01T01:00:00Z</time>
      </trkpt>
      <trkpt lat="63.35530317" lon="10.24924367">
        <ele>188.521</ele>
        <time>1970-01-01T01:00:00Z</time>
      </trkpt>
      <trkpt lat="63.355309" lon="10.24931233">
        <ele>188.673</ele>
        <time>1970-01-01T01:00:00Z</time>
      </trkpt>
      <trkpt lat="63.35531617" lon="10.249378">
        <ele>188.673</ele>
        <time>1970-01-01T01:00:00Z</time>
      </trkpt>
      <trkpt lat="63.35532667" lon="10.24944417">
        <ele>188.978</ele>
        <time>1970-01-01T01:00:00Z</time>
      </trkpt>
      <trkpt lat="63.3553375" lon="10.24951133">
        <ele>188.978</ele>
        <time>1970-01-01T01:00:00Z</time>
      </trkpt>
      <trkpt lat="63.35535067" lon="10.24957467">
        <ele>189.283</ele>
        <time>1970-01-01T01:00:00Z</time>
      </trkpt>
      <trkpt lat="63.35536383" lon="10.24964133">
        <ele>189.283</ele>
        <time>1970-01-01T01:00:00Z</time>
      </trkpt>
      <trkpt lat="63.355375" lon="10.24970217">
        <ele>189.588</ele>
        <time>1970-01-01T01:00:00Z</time>
      </trkpt>
      <trkpt lat="63.355386" lon="10.2497725">
        <ele>189.588</ele>
        <time>1970-01-01T01:00:00Z</time>
      </trkpt>
      <trkpt lat="63.35539417" lon="10.24983817">
        <ele>189.893</ele>
        <time>1970-01-01T01:00:00Z</time>
      </trkpt>
      <trkpt lat="63.3554035" lon="10.24990767">
        <ele>189.893</ele>
        <time>1970-01-01T01:00:00Z</time>
      </trkpt>
      <trkpt lat="63.35541233" lon="10.24996967">
        <ele>190.198</ele>
        <time>1970-01-01T01:00:00Z</time>
      </trkpt>
      <trkpt lat="63.35542233" lon="10.25003017">
        <ele>190.198</ele>
        <time>1970-01-01T01:00:00Z</time>
      </trkpt>
      <trkpt lat="63.35543067" lon="10.25009183">
        <ele>190.502</ele>
        <time>1970-01-01T01:00:00Z</time>
      </trkpt>
      <trkpt lat="63.35543683" lon="10.25015683">
        <ele>190.502</ele>
        <time>1970-01-01T01:00:00Z</time>
      </trkpt>
      <trkpt lat="63.35544183" lon="10.25022583">
        <ele>190.807</ele>
        <time>1970-01-01T01:00:00Z</time>
      </trkpt>
      <trkpt lat="63.35544667" lon="10.25029083">
        <ele>190.807</ele>
        <time>1970-01-01T01:00:00Z</time>
      </trkpt>
      <trkpt lat="63.3554515" lon="10.250355">
        <ele>191.112</ele>
        <time>1970-01-01T01:00:00Z</time>
      </trkpt>
      <trkpt lat="63.35545967" lon="10.2504195">
        <ele>191.112</ele>
        <time>1970-01-01T01:00:00Z</time>
      </trkpt>
      <trkpt lat="63.35546967" lon="10.25048467">
        <ele>191.417</ele>
        <time>1970-01-01T01:00:00Z</time>
      </trkpt>
      <trkpt lat="63.35548117" lon="10.25054833">
        <ele>191.417</ele>
        <time>1970-01-01T01:00:00Z</time>
      </trkpt>
      <trkpt lat="63.355494" lon="10.25060717">
        <ele>191.722</ele>
        <time>1970-01-01T01:00:00Z</time>
      </trkpt>
      <trkpt lat="63.35550867" lon="10.250667">
        <ele>191.722</ele>
        <time>1970-01-01T01:00:00Z</time>
      </trkpt>
      <trkpt lat="63.35552433" lon="10.25072633">
        <ele>192.179</ele>
        <time>1970-01-01T01:00:00Z</time>
      </trkpt>
      <trkpt lat="63.35554117" lon="10.2507815">
        <ele>192.179</ele>
        <time>1970-01-01T01:00:00Z</time>
      </trkpt>
      <trkpt lat="63.35555883" lon="10.2508305">
        <ele>192.484</ele>
        <time>1970-01-01T01:00:00Z</time>
      </trkpt>
      <trkpt lat="63.355577" lon="10.250874">
        <ele>192.484</ele>
        <time>1970-01-01T01:00:00Z</time>
      </trkpt>
      <trkpt lat="63.355596" lon="10.25091667">
        <ele>192.636</ele>
        <time>1970-01-01T01:00:00Z</time>
      </trkpt>
      <trkpt lat="63.35561633" lon="10.25095517">
        <ele>192.636</ele>
        <time>1970-01-01T01:00:00Z</time>
      </trkpt>
      <trkpt lat="63.35564083" lon="10.25098733">
        <ele>192.941</ele>
        <time>1970-01-01T01:00:00Z</time>
      </trkpt>
      <trkpt lat="63.3556655" lon="10.25101417">
        <ele>192.941</ele>
        <time>1970-01-01T01:00:00Z</time>
      </trkpt>
      <trkpt lat="63.355691" lon="10.25103367">
        <ele>193.093</ele>
        <time>1970-01-01T01:00:00Z</time>
      </trkpt>
      <trkpt lat="63.35571433" lon="10.25104833">
        <ele>193.093</ele>
        <time>1970-01-01T01:00:00Z</time>
      </trkpt>
      <trkpt lat="63.35573867" lon="10.25105983">
        <ele>193.093</ele>
        <time>1970-01-01T01:00:00Z</time>
      </trkpt>
      <trkpt lat="63.35576467" lon="10.25107583">
        <ele>193.093</ele>
        <time>1970-01-01T01:00:00Z</time>
      </trkpt>
      <trkpt lat="63.355792" lon="10.25109183">
        <ele>193.246</ele>
        <time>1970-01-01T01:00:00Z</time>
      </trkpt>
      <trkpt lat="63.35582" lon="10.25110633">
        <ele>193.246</ele>
        <time>1970-01-01T01:00:00Z</time>
      </trkpt>
      <trkpt lat="63.35584767" lon="10.25111767">
        <ele>193.246</ele>
        <time>1970-01-01T01:00:00Z</time>
      </trkpt>
      <trkpt lat="63.35587717" lon="10.25112883">
        <ele>193.246</ele>
        <time>1970-01-01T01:00:00Z</time>
      </trkpt>
      <trkpt lat="63.35590483" lon="10.25113733">
        <ele>193.093</ele>
        <time>1970-01-01T01:00:00Z</time>
      </trkpt>
      <trkpt lat="63.35593033" lon="10.25114333">
        <ele>193.093</ele>
        <time>1970-01-01T01:00:00Z</time>
      </trkpt>
      <trkpt lat="63.35595133" lon="10.251147">
        <ele>193.093</ele>
        <time>1970-01-01T01:00:00Z</time>
      </trkpt>
      <trkpt lat="63.35596767" lon="10.25114983">
        <ele>193.093</ele>
        <time>1970-01-01T01:00:00Z</time>
      </trkpt>
      <trkpt lat="63.35598" lon="10.2511505">
        <ele>193.093</ele>
        <time>1970-01-01T01:00:00Z</time>
      </trkpt>
      <trkpt lat="63.35598533" lon="10.251149">
        <ele>193.093</ele>
        <time>1970-01-01T01:00:00Z</time>
      </trkpt>
    </trkseg>
  </trk>
</gpx>